<?xml version="1.0" encoding="UTF-8" standalone="no" ?>
<gpx xmlns="http://www.topografix.com/GPX/1/1" xmlns:xsi="http://www.w3.org/2001/XMLSchema-instance" xsi:schemaLocation="http://www.topografix.com/GPX/1/1 http://www.topografix.com/GPX/1/1/gpx.xsd" version="1.1" creator="VisuGPX - https://www.visugpx.com">
  <metadata>
    <name>Aspremont Parcours 12 Rouge</name>
    <desc><![CDATA[Très bien Balisé
De bonnes Descentes
Beaucoup de Portage
Sortie Enduro]]></desc>
  </metadata>
  <trk>
    <name><![CDATA[VTT Topo]]></name>
    <cmt><![CDATA[Avec Julien, Olive et Christophe]]></cmt>
    <trkseg>
      <trkpt lat="43.78461" lon="7.24424">
        <ele>486.69201660156</ele>
        <time>2011-10-08T11:55:36Z</time>
      </trkpt>
      <trkpt lat="43.78469" lon="7.24429">
        <ele>487.55181884766</ele>
        <time>2011-10-08T11:55:38Z</time>
      </trkpt>
      <trkpt lat="43.78476" lon="7.24429">
        <ele>488.0110168457</ele>
        <time>2011-10-08T11:55:41Z</time>
      </trkpt>
      <trkpt lat="43.78478" lon="7.24414">
        <ele>486.69689941406</ele>
        <time>2011-10-08T11:55:45Z</time>
      </trkpt>
      <trkpt lat="43.78465" lon="7.24395">
        <ele>484.06991577148</ele>
        <time>2011-10-08T11:55:49Z</time>
      </trkpt>
      <trkpt lat="43.78454" lon="7.24387">
        <ele>483.04946899414</ele>
        <time>2011-10-08T11:55:52Z</time>
      </trkpt>
      <trkpt lat="43.78442" lon="7.24379">
        <ele>482.32095336914</ele>
        <time>2011-10-08T11:55:56Z</time>
      </trkpt>
      <trkpt lat="43.78434" lon="7.24373">
        <ele>481.87829589844</ele>
        <time>2011-10-08T11:56:00Z</time>
      </trkpt>
      <trkpt lat="43.78432" lon="7.2437">
        <ele>481.68496704102</ele>
        <time>2011-10-08T11:56:01Z</time>
      </trkpt>
      <trkpt lat="43.78433" lon="7.2436">
        <ele>481.0124206543</ele>
        <time>2011-10-08T11:56:05Z</time>
      </trkpt>
      <trkpt lat="43.78441" lon="7.24362">
        <ele>481.01312255859</ele>
        <time>2011-10-08T11:56:08Z</time>
      </trkpt>
      <trkpt lat="43.78461" lon="7.24375">
        <ele>482.0341796875</ele>
        <time>2011-10-08T11:56:15Z</time>
      </trkpt>
      <trkpt lat="43.78473" lon="7.24385">
        <ele>483.08316040039</ele>
        <time>2011-10-08T11:56:21Z</time>
      </trkpt>
      <trkpt lat="43.78484" lon="7.24386">
        <ele>483.37066650391</ele>
        <time>2011-10-08T11:56:26Z</time>
      </trkpt>
      <trkpt lat="43.78502" lon="7.24393">
        <ele>484.63330078125</ele>
        <time>2011-10-08T11:56:31Z</time>
      </trkpt>
      <trkpt lat="43.78514" lon="7.24399">
        <ele>485.63555908203</ele>
        <time>2011-10-08T11:56:35Z</time>
      </trkpt>
      <trkpt lat="43.78516" lon="7.244">
        <ele>485.87191772461</ele>
        <time>2011-10-08T11:56:36Z</time>
      </trkpt>
      <trkpt lat="43.78528" lon="7.24408">
        <ele>487.25921630859</ele>
        <time>2011-10-08T11:56:42Z</time>
      </trkpt>
      <trkpt lat="43.78536" lon="7.24412">
        <ele>488.07843017578</ele>
        <time>2011-10-08T11:56:46Z</time>
      </trkpt>
      <trkpt lat="43.78542" lon="7.24417">
        <ele>489.0524597168</ele>
        <time>2011-10-08T11:56:50Z</time>
      </trkpt>
      <trkpt lat="43.78549" lon="7.2442">
        <ele>489.77767944336</ele>
        <time>2011-10-08T11:56:54Z</time>
      </trkpt>
      <trkpt lat="43.78557" lon="7.24426">
        <ele>490.9875793457</ele>
        <time>2011-10-08T11:57:00Z</time>
      </trkpt>
      <trkpt lat="43.78567" lon="7.24427">
        <ele>491.4899597168</ele>
        <time>2011-10-08T11:57:06Z</time>
      </trkpt>
      <trkpt lat="43.78573" lon="7.24427">
        <ele>491.55737304688</ele>
        <time>2011-10-08T11:57:17Z</time>
      </trkpt>
      <trkpt lat="43.78577" lon="7.24427">
        <ele>491.84893798828</ele>
        <time>2011-10-08T11:57:22Z</time>
      </trkpt>
      <trkpt lat="43.78586" lon="7.24431">
        <ele>492.81369018555</ele>
        <time>2011-10-08T11:57:27Z</time>
      </trkpt>
      <trkpt lat="43.78591" lon="7.24432">
        <ele>493.04147338867</ele>
        <time>2011-10-08T11:57:31Z</time>
      </trkpt>
      <trkpt lat="43.78603" lon="7.24432">
        <ele>493.33935546875</ele>
        <time>2011-10-08T11:57:38Z</time>
      </trkpt>
      <trkpt lat="43.78609" lon="7.24432">
        <ele>493.43157958984</ele>
        <time>2011-10-08T11:57:42Z</time>
      </trkpt>
      <trkpt lat="43.78615" lon="7.24429">
        <ele>492.96963500977</ele>
        <time>2011-10-08T11:57:46Z</time>
      </trkpt>
      <trkpt lat="43.78626" lon="7.24424">
        <ele>492.12939453125</ele>
        <time>2011-10-08T11:57:54Z</time>
      </trkpt>
      <trkpt lat="43.78638" lon="7.24417">
        <ele>490.66659545898</ele>
        <time>2011-10-08T11:58:02Z</time>
      </trkpt>
      <trkpt lat="43.78651" lon="7.24409">
        <ele>489.09698486328</ele>
        <time>2011-10-08T11:58:10Z</time>
      </trkpt>
      <trkpt lat="43.78659" lon="7.2441">
        <ele>489.33770751953</ele>
        <time>2011-10-08T11:58:15Z</time>
      </trkpt>
      <trkpt lat="43.78664" lon="7.24412">
        <ele>489.81494140625</ele>
        <time>2011-10-08T11:58:19Z</time>
      </trkpt>
      <trkpt lat="43.78662" lon="7.24413">
        <ele>490.15191650391</ele>
        <time>2011-10-08T11:58:25Z</time>
      </trkpt>
      <trkpt lat="43.78661" lon="7.24415">
        <ele>490.60668945312</ele>
        <time>2011-10-08T11:58:29Z</time>
      </trkpt>
      <trkpt lat="43.78663" lon="7.24409">
        <ele>489.32138061523</ele>
        <time>2011-10-08T11:58:31Z</time>
      </trkpt>
      <trkpt lat="43.78675" lon="7.24402">
        <ele>488.51364135742</ele>
        <time>2011-10-08T11:58:38Z</time>
      </trkpt>
      <trkpt lat="43.78685" lon="7.24399">
        <ele>488.69387817383</ele>
        <time>2011-10-08T11:58:44Z</time>
      </trkpt>
      <trkpt lat="43.78698" lon="7.244">
        <ele>490.13870239258</ele>
        <time>2011-10-08T11:58:53Z</time>
      </trkpt>
      <trkpt lat="43.78708" lon="7.244">
        <ele>491.25793457031</ele>
        <time>2011-10-08T11:58:58Z</time>
      </trkpt>
      <trkpt lat="43.78717" lon="7.24406">
        <ele>493.29611206055</ele>
        <time>2011-10-08T11:59:03Z</time>
      </trkpt>
      <trkpt lat="43.78728" lon="7.24414">
        <ele>496.32995605469</ele>
        <time>2011-10-08T11:59:10Z</time>
      </trkpt>
      <trkpt lat="43.78736" lon="7.24417">
        <ele>497.77090454102</ele>
        <time>2011-10-08T11:59:14Z</time>
      </trkpt>
      <trkpt lat="43.78746" lon="7.24426">
        <ele>500.79275512695</ele>
        <time>2011-10-08T11:59:21Z</time>
      </trkpt>
      <trkpt lat="43.78752" lon="7.24435">
        <ele>503.59881591797</ele>
        <time>2011-10-08T11:59:26Z</time>
      </trkpt>
      <trkpt lat="43.78759" lon="7.24443">
        <ele>505.79861450195</ele>
        <time>2011-10-08T11:59:32Z</time>
      </trkpt>
      <trkpt lat="43.78762" lon="7.2445">
        <ele>507.80288696289</ele>
        <time>2011-10-08T11:59:37Z</time>
      </trkpt>
      <trkpt lat="43.78762" lon="7.24456">
        <ele>509.13583374023</ele>
        <time>2011-10-08T11:59:40Z</time>
      </trkpt>
      <trkpt lat="43.78765" lon="7.24467">
        <ele>512.14318847656</ele>
        <time>2011-10-08T11:59:47Z</time>
      </trkpt>
      <trkpt lat="43.78765" lon="7.2447">
        <ele>513.00500488281</ele>
        <time>2011-10-08T11:59:56Z</time>
      </trkpt>
      <trkpt lat="43.78765" lon="7.24473">
        <ele>513.71838378906</ele>
        <time>2011-10-08T12:00:05Z</time>
      </trkpt>
      <trkpt lat="43.78765" lon="7.24478">
        <ele>514.95770263672</ele>
        <time>2011-10-08T12:00:08Z</time>
      </trkpt>
      <trkpt lat="43.78766" lon="7.24489">
        <ele>517.54705810547</ele>
        <time>2011-10-08T12:00:12Z</time>
      </trkpt>
      <trkpt lat="43.78773" lon="7.24507">
        <ele>522.63000488281</ele>
        <time>2011-10-08T12:00:20Z</time>
      </trkpt>
      <trkpt lat="43.78782" lon="7.24511">
        <ele>524.52429199219</ele>
        <time>2011-10-08T12:00:25Z</time>
      </trkpt>
      <trkpt lat="43.78797" lon="7.2452">
        <ele>528.15692138672</ele>
        <time>2011-10-08T12:00:34Z</time>
      </trkpt>
      <trkpt lat="43.78808" lon="7.24527">
        <ele>531.34832763672</ele>
        <time>2011-10-08T12:00:40Z</time>
      </trkpt>
      <trkpt lat="43.78819" lon="7.24538">
        <ele>535.39953613281</ele>
        <time>2011-10-08T12:00:47Z</time>
      </trkpt>
      <trkpt lat="43.78827" lon="7.24546">
        <ele>538.49792480469</ele>
        <time>2011-10-08T12:00:53Z</time>
      </trkpt>
      <trkpt lat="43.78834" lon="7.24551">
        <ele>540.61401367188</ele>
        <time>2011-10-08T12:00:57Z</time>
      </trkpt>
      <trkpt lat="43.78836" lon="7.24553">
        <ele>541.28405761719</ele>
        <time>2011-10-08T12:00:59Z</time>
      </trkpt>
      <trkpt lat="43.78838" lon="7.24569">
        <ele>545.97326660156</ele>
        <time>2011-10-08T12:01:06Z</time>
      </trkpt>
      <trkpt lat="43.78837" lon="7.24571">
        <ele>546.57769775391</ele>
        <time>2011-10-08T12:01:07Z</time>
      </trkpt>
      <trkpt lat="43.78832" lon="7.24584">
        <ele>549.94470214844</ele>
        <time>2011-10-08T12:01:14Z</time>
      </trkpt>
      <trkpt lat="43.78827" lon="7.24586">
        <ele>549.751953125</ele>
        <time>2011-10-08T12:01:20Z</time>
      </trkpt>
      <trkpt lat="43.78816" lon="7.24588">
        <ele>548.82147216797</ele>
        <time>2011-10-08T12:01:27Z</time>
      </trkpt>
      <trkpt lat="43.78814" lon="7.2459">
        <ele>548.83679199219</ele>
        <time>2011-10-08T12:01:28Z</time>
      </trkpt>
      <trkpt lat="43.78811" lon="7.24592">
        <ele>549.01000976562</ele>
        <time>2011-10-08T12:01:30Z</time>
      </trkpt>
      <trkpt lat="43.78807" lon="7.24594">
        <ele>548.91040039062</ele>
        <time>2011-10-08T12:01:45Z</time>
      </trkpt>
      <trkpt lat="43.78807" lon="7.24593">
        <ele>548.7607421875</ele>
        <time>2011-10-08T12:01:50Z</time>
      </trkpt>
      <trkpt lat="43.78809" lon="7.24595">
        <ele>549.48120117188</ele>
        <time>2011-10-08T12:01:55Z</time>
      </trkpt>
      <trkpt lat="43.78814" lon="7.24591">
        <ele>549.25561523438</ele>
        <time>2011-10-08T12:02:00Z</time>
      </trkpt>
      <trkpt lat="43.78811" lon="7.24591">
        <ele>548.65631103516</ele>
        <time>2011-10-08T12:02:04Z</time>
      </trkpt>
      <trkpt lat="43.78812" lon="7.24599">
        <ele>550.71771240234</ele>
        <time>2011-10-08T12:02:08Z</time>
      </trkpt>
      <trkpt lat="43.78813" lon="7.24602">
        <ele>551.37817382812</ele>
        <time>2011-10-08T12:02:09Z</time>
      </trkpt>
      <trkpt lat="43.78814" lon="7.24606">
        <ele>552.66839599609</ele>
        <time>2011-10-08T12:02:11Z</time>
      </trkpt>
      <trkpt lat="43.78821" lon="7.24618">
        <ele>556.19921875</ele>
        <time>2011-10-08T12:02:17Z</time>
      </trkpt>
      <trkpt lat="43.78822" lon="7.2462">
        <ele>556.76617431641</ele>
        <time>2011-10-08T12:02:18Z</time>
      </trkpt>
      <trkpt lat="43.78829" lon="7.24624">
        <ele>558.76025390625</ele>
        <time>2011-10-08T12:02:22Z</time>
      </trkpt>
      <trkpt lat="43.78841" lon="7.24636">
        <ele>562.59130859375</ele>
        <time>2011-10-08T12:02:29Z</time>
      </trkpt>
      <trkpt lat="43.78848" lon="7.24642">
        <ele>564.40783691406</ele>
        <time>2011-10-08T12:02:34Z</time>
      </trkpt>
      <trkpt lat="43.78849" lon="7.24644">
        <ele>564.90563964844</ele>
        <time>2011-10-08T12:02:35Z</time>
      </trkpt>
      <trkpt lat="43.78859" lon="7.24651">
        <ele>567.48205566406</ele>
        <time>2011-10-08T12:02:41Z</time>
      </trkpt>
      <trkpt lat="43.7887" lon="7.24654">
        <ele>568.80279541016</ele>
        <time>2011-10-08T12:02:47Z</time>
      </trkpt>
      <trkpt lat="43.78878" lon="7.24654">
        <ele>569.51019287109</ele>
        <time>2011-10-08T12:02:53Z</time>
      </trkpt>
      <trkpt lat="43.78876" lon="7.2466">
        <ele>570.95574951172</ele>
        <time>2011-10-08T12:02:58Z</time>
      </trkpt>
      <trkpt lat="43.78874" lon="7.24662">
        <ele>571.3359375</ele>
        <time>2011-10-08T12:03:00Z</time>
      </trkpt>
      <trkpt lat="43.78883" lon="7.24671">
        <ele>574.11492919922</ele>
        <time>2011-10-08T12:03:07Z</time>
      </trkpt>
      <trkpt lat="43.78885" lon="7.24672">
        <ele>574.63739013672</ele>
        <time>2011-10-08T12:03:08Z</time>
      </trkpt>
      <trkpt lat="43.78887" lon="7.24676">
        <ele>575.70989990234</ele>
        <time>2011-10-08T12:03:12Z</time>
      </trkpt>
      <trkpt lat="43.78887" lon="7.24675">
        <ele>575.61755371094</ele>
        <time>2011-10-08T12:03:15Z</time>
      </trkpt>
      <trkpt lat="43.78888" lon="7.24676">
        <ele>575.79211425781</ele>
        <time>2011-10-08T12:03:17Z</time>
      </trkpt>
      <trkpt lat="43.78889" lon="7.24681">
        <ele>577.19763183594</ele>
        <time>2011-10-08T12:03:34Z</time>
      </trkpt>
      <trkpt lat="43.78889" lon="7.24682">
        <ele>577.47760009766</ele>
        <time>2011-10-08T12:03:39Z</time>
      </trkpt>
      <trkpt lat="43.78889" lon="7.24683">
        <ele>577.69061279297</ele>
        <time>2011-10-08T12:03:44Z</time>
      </trkpt>
      <trkpt lat="43.78889" lon="7.24684">
        <ele>577.87426757812</ele>
        <time>2011-10-08T12:03:49Z</time>
      </trkpt>
      <trkpt lat="43.78888" lon="7.24684">
        <ele>577.72094726562</ele>
        <time>2011-10-08T12:03:53Z</time>
      </trkpt>
      <trkpt lat="43.78889" lon="7.24684">
        <ele>577.86499023438</ele>
        <time>2011-10-08T12:04:04Z</time>
      </trkpt>
      <trkpt lat="43.78897" lon="7.24693">
        <ele>581.09375</ele>
        <time>2011-10-08T12:04:10Z</time>
      </trkpt>
      <trkpt lat="43.78902" lon="7.24711">
        <ele>586.33349609375</ele>
        <time>2011-10-08T12:04:17Z</time>
      </trkpt>
      <trkpt lat="43.78902" lon="7.24717">
        <ele>587.77465820312</ele>
        <time>2011-10-08T12:04:19Z</time>
      </trkpt>
      <trkpt lat="43.78904" lon="7.24731">
        <ele>591.65368652344</ele>
        <time>2011-10-08T12:04:26Z</time>
      </trkpt>
      <trkpt lat="43.78904" lon="7.24733">
        <ele>592.27355957031</ele>
        <time>2011-10-08T12:04:27Z</time>
      </trkpt>
      <trkpt lat="43.78906" lon="7.24741">
        <ele>594.70648193359</ele>
        <time>2011-10-08T12:04:33Z</time>
      </trkpt>
      <trkpt lat="43.78907" lon="7.24741">
        <ele>594.96209716797</ele>
        <time>2011-10-08T12:04:35Z</time>
      </trkpt>
      <trkpt lat="43.78907" lon="7.24742">
        <ele>595.21667480469</ele>
        <time>2011-10-08T12:04:36Z</time>
      </trkpt>
      <trkpt lat="43.78908" lon="7.24744">
        <ele>595.74053955078</ele>
        <time>2011-10-08T12:04:38Z</time>
      </trkpt>
      <trkpt lat="43.78909" lon="7.24744">
        <ele>596.0224609375</ele>
        <time>2011-10-08T12:04:39Z</time>
      </trkpt>
      <trkpt lat="43.7891" lon="7.24749">
        <ele>597.41339111328</ele>
        <time>2011-10-08T12:04:45Z</time>
      </trkpt>
      <trkpt lat="43.78912" lon="7.24752">
        <ele>598.49291992188</ele>
        <time>2011-10-08T12:04:50Z</time>
      </trkpt>
      <trkpt lat="43.78914" lon="7.24756">
        <ele>599.44152832031</ele>
        <time>2011-10-08T12:04:57Z</time>
      </trkpt>
      <trkpt lat="43.78918" lon="7.24759">
        <ele>600.73657226562</ele>
        <time>2011-10-08T12:05:03Z</time>
      </trkpt>
      <trkpt lat="43.7892" lon="7.24762">
        <ele>601.51690673828</ele>
        <time>2011-10-08T12:05:08Z</time>
      </trkpt>
      <trkpt lat="43.78924" lon="7.24768">
        <ele>603.31958007812</ele>
        <time>2011-10-08T12:05:15Z</time>
      </trkpt>
      <trkpt lat="43.78928" lon="7.24772">
        <ele>604.88635253906</ele>
        <time>2011-10-08T12:05:22Z</time>
      </trkpt>
      <trkpt lat="43.78932" lon="7.24778">
        <ele>606.66735839844</ele>
        <time>2011-10-08T12:05:29Z</time>
      </trkpt>
      <trkpt lat="43.78934" lon="7.24781">
        <ele>607.71917724609</ele>
        <time>2011-10-08T12:05:35Z</time>
      </trkpt>
      <trkpt lat="43.78936" lon="7.24784">
        <ele>608.69104003906</ele>
        <time>2011-10-08T12:05:40Z</time>
      </trkpt>
      <trkpt lat="43.78936" lon="7.24786">
        <ele>609.06164550781</ele>
        <time>2011-10-08T12:05:49Z</time>
      </trkpt>
      <trkpt lat="43.78939" lon="7.2479">
        <ele>610.19598388672</ele>
        <time>2011-10-08T12:05:55Z</time>
      </trkpt>
      <trkpt lat="43.7894" lon="7.24792">
        <ele>610.94525146484</ele>
        <time>2011-10-08T12:06:00Z</time>
      </trkpt>
      <trkpt lat="43.78942" lon="7.24792">
        <ele>611.2666015625</ele>
        <time>2011-10-08T12:06:06Z</time>
      </trkpt>
      <trkpt lat="43.78942" lon="7.24794">
        <ele>611.56207275391</ele>
        <time>2011-10-08T12:06:14Z</time>
      </trkpt>
      <trkpt lat="43.78946" lon="7.24796">
        <ele>612.76147460938</ele>
        <time>2011-10-08T12:06:20Z</time>
      </trkpt>
      <trkpt lat="43.7895" lon="7.24798">
        <ele>613.90002441406</ele>
        <time>2011-10-08T12:06:27Z</time>
      </trkpt>
      <trkpt lat="43.7895" lon="7.24794">
        <ele>613.20043945312</ele>
        <time>2011-10-08T12:06:33Z</time>
      </trkpt>
      <trkpt lat="43.78951" lon="7.24793">
        <ele>613.37921142578</ele>
        <time>2011-10-08T12:06:38Z</time>
      </trkpt>
      <trkpt lat="43.78952" lon="7.24795">
        <ele>613.88287353516</ele>
        <time>2011-10-08T12:06:50Z</time>
      </trkpt>
      <trkpt lat="43.78952" lon="7.24796">
        <ele>614.04357910156</ele>
        <time>2011-10-08T12:06:55Z</time>
      </trkpt>
      <trkpt lat="43.78951" lon="7.24797">
        <ele>614.07745361328</ele>
        <time>2011-10-08T12:06:59Z</time>
      </trkpt>
      <trkpt lat="43.78951" lon="7.24797">
        <ele>614.20013427734</ele>
        <time>2011-10-08T12:07:04Z</time>
      </trkpt>
      <trkpt lat="43.78951" lon="7.24798">
        <ele>614.30395507812</ele>
        <time>2011-10-08T12:07:09Z</time>
      </trkpt>
      <trkpt lat="43.78951" lon="7.24799">
        <ele>614.37927246094</ele>
        <time>2011-10-08T12:07:23Z</time>
      </trkpt>
      <trkpt lat="43.78951" lon="7.24799">
        <ele>614.44512939453</ele>
        <time>2011-10-08T12:07:28Z</time>
      </trkpt>
      <trkpt lat="43.78951" lon="7.248">
        <ele>614.49212646484</ele>
        <time>2011-10-08T12:07:35Z</time>
      </trkpt>
      <trkpt lat="43.78951" lon="7.248">
        <ele>614.63854980469</ele>
        <time>2011-10-08T12:07:46Z</time>
      </trkpt>
      <trkpt lat="43.78951" lon="7.248">
        <ele>614.68566894531</ele>
        <time>2011-10-08T12:07:58Z</time>
      </trkpt>
      <trkpt lat="43.78951" lon="7.24801">
        <ele>614.73278808594</ele>
        <time>2011-10-08T12:08:15Z</time>
      </trkpt>
      <trkpt lat="43.78951" lon="7.24801">
        <ele>614.73278808594</ele>
        <time>2011-10-08T12:08:25Z</time>
      </trkpt>
      <trkpt lat="43.78951" lon="7.24801">
        <ele>614.82293701172</ele>
        <time>2011-10-08T12:08:41Z</time>
      </trkpt>
      <trkpt lat="43.78951" lon="7.24802">
        <ele>615.03424072266</ele>
        <time>2011-10-08T12:08:50Z</time>
      </trkpt>
      <trkpt lat="43.78953" lon="7.24802">
        <ele>615.44995117188</ele>
        <time>2011-10-08T12:09:09Z</time>
      </trkpt>
      <trkpt lat="43.78951" lon="7.24803">
        <ele>615.39855957031</ele>
        <time>2011-10-08T12:09:16Z</time>
      </trkpt>
      <trkpt lat="43.78946" lon="7.2481">
        <ele>615.60003662109</ele>
        <time>2011-10-08T12:09:22Z</time>
      </trkpt>
      <trkpt lat="43.78939" lon="7.24823">
        <ele>616.51647949219</ele>
        <time>2011-10-08T12:09:28Z</time>
      </trkpt>
      <trkpt lat="43.78934" lon="7.2484">
        <ele>616.77294921875</ele>
        <time>2011-10-08T12:09:34Z</time>
      </trkpt>
      <trkpt lat="43.7893" lon="7.24847">
        <ele>615.35424804688</ele>
        <time>2011-10-08T12:09:37Z</time>
      </trkpt>
      <trkpt lat="43.78923" lon="7.24865">
        <ele>612.64825439453</ele>
        <time>2011-10-08T12:09:43Z</time>
      </trkpt>
      <trkpt lat="43.78912" lon="7.2489">
        <ele>608.703125</ele>
        <time>2011-10-08T12:09:51Z</time>
      </trkpt>
      <trkpt lat="43.7891" lon="7.24908">
        <ele>607.21307373047</ele>
        <time>2011-10-08T12:09:56Z</time>
      </trkpt>
      <trkpt lat="43.78917" lon="7.24915">
        <ele>608.16857910156</ele>
        <time>2011-10-08T12:10:00Z</time>
      </trkpt>
      <trkpt lat="43.7893" lon="7.24913">
        <ele>612.11633300781</ele>
        <time>2011-10-08T12:10:07Z</time>
      </trkpt>
      <trkpt lat="43.78939" lon="7.24913">
        <ele>614.64227294922</ele>
        <time>2011-10-08T12:10:12Z</time>
      </trkpt>
      <trkpt lat="43.78945" lon="7.24908">
        <ele>616.48553466797</ele>
        <time>2011-10-08T12:10:16Z</time>
      </trkpt>
      <trkpt lat="43.78951" lon="7.24901">
        <ele>618.59515380859</ele>
        <time>2011-10-08T12:10:21Z</time>
      </trkpt>
      <trkpt lat="43.78954" lon="7.24896">
        <ele>619.52551269531</ele>
        <time>2011-10-08T12:10:24Z</time>
      </trkpt>
      <trkpt lat="43.78961" lon="7.24895">
        <ele>621.46295166016</ele>
        <time>2011-10-08T12:10:29Z</time>
      </trkpt>
      <trkpt lat="43.78965" lon="7.24892">
        <ele>622.72467041016</ele>
        <time>2011-10-08T12:10:32Z</time>
      </trkpt>
      <trkpt lat="43.7897" lon="7.2489">
        <ele>624.01354980469</ele>
        <time>2011-10-08T12:10:35Z</time>
      </trkpt>
      <trkpt lat="43.78971" lon="7.2489">
        <ele>624.44085693359</ele>
        <time>2011-10-08T12:10:36Z</time>
      </trkpt>
      <trkpt lat="43.7898" lon="7.24887">
        <ele>626.91278076172</ele>
        <time>2011-10-08T12:10:41Z</time>
      </trkpt>
      <trkpt lat="43.78981" lon="7.24886">
        <ele>627.34967041016</ele>
        <time>2011-10-08T12:10:42Z</time>
      </trkpt>
      <trkpt lat="43.78981" lon="7.24885">
        <ele>627.36590576172</ele>
        <time>2011-10-08T12:10:48Z</time>
      </trkpt>
      <trkpt lat="43.78967" lon="7.24888">
        <ele>623.45227050781</ele>
        <time>2011-10-08T12:10:56Z</time>
      </trkpt>
      <trkpt lat="43.78963" lon="7.24898">
        <ele>622.09613037109</ele>
        <time>2011-10-08T12:11:02Z</time>
      </trkpt>
      <trkpt lat="43.78962" lon="7.24898">
        <ele>621.7900390625</ele>
        <time>2011-10-08T12:11:08Z</time>
      </trkpt>
      <trkpt lat="43.78959" lon="7.24899">
        <ele>620.7861328125</ele>
        <time>2011-10-08T12:11:14Z</time>
      </trkpt>
      <trkpt lat="43.78942" lon="7.24905">
        <ele>615.97790527344</ele>
        <time>2011-10-08T12:11:18Z</time>
      </trkpt>
      <trkpt lat="43.78936" lon="7.24907">
        <ele>613.91674804688</ele>
        <time>2011-10-08T12:11:19Z</time>
      </trkpt>
      <trkpt lat="43.78923" lon="7.24911">
        <ele>610.02716064453</ele>
        <time>2011-10-08T12:11:21Z</time>
      </trkpt>
      <trkpt lat="43.78913" lon="7.24903">
        <ele>608.02453613281</ele>
        <time>2011-10-08T12:11:24Z</time>
      </trkpt>
      <trkpt lat="43.78912" lon="7.24892">
        <ele>608.43774414062</ele>
        <time>2011-10-08T12:11:26Z</time>
      </trkpt>
      <trkpt lat="43.78912" lon="7.24887">
        <ele>608.83563232422</ele>
        <time>2011-10-08T12:11:27Z</time>
      </trkpt>
      <trkpt lat="43.78913" lon="7.24881">
        <ele>609.30615234375</ele>
        <time>2011-10-08T12:11:28Z</time>
      </trkpt>
      <trkpt lat="43.78917" lon="7.24872">
        <ele>610.73126220703</ele>
        <time>2011-10-08T12:11:30Z</time>
      </trkpt>
      <trkpt lat="43.78933" lon="7.24836">
        <ele>616.66864013672</ele>
        <time>2011-10-08T12:11:38Z</time>
      </trkpt>
      <trkpt lat="43.78935" lon="7.2483">
        <ele>616.91613769531</ele>
        <time>2011-10-08T12:11:42Z</time>
      </trkpt>
      <trkpt lat="43.78935" lon="7.24831">
        <ele>617.00952148438</ele>
        <time>2011-10-08T12:11:54Z</time>
      </trkpt>
      <trkpt lat="43.78936" lon="7.24833">
        <ele>617.54193115234</ele>
        <time>2011-10-08T12:12:10Z</time>
      </trkpt>
      <trkpt lat="43.78939" lon="7.24826">
        <ele>616.91967773438</ele>
        <time>2011-10-08T12:12:25Z</time>
      </trkpt>
      <trkpt lat="43.78949" lon="7.24805">
        <ele>615.08764648438</ele>
        <time>2011-10-08T12:12:29Z</time>
      </trkpt>
      <trkpt lat="43.78962" lon="7.24796">
        <ele>616.13623046875</ele>
        <time>2011-10-08T12:12:32Z</time>
      </trkpt>
      <trkpt lat="43.78974" lon="7.24791">
        <ele>617.63421630859</ele>
        <time>2011-10-08T12:12:36Z</time>
      </trkpt>
      <trkpt lat="43.78986" lon="7.24786">
        <ele>618.86853027344</ele>
        <time>2011-10-08T12:12:43Z</time>
      </trkpt>
      <trkpt lat="43.78996" lon="7.2478">
        <ele>619.50250244141</ele>
        <time>2011-10-08T12:12:49Z</time>
      </trkpt>
      <trkpt lat="43.79005" lon="7.24775">
        <ele>619.67443847656</ele>
        <time>2011-10-08T12:12:54Z</time>
      </trkpt>
      <trkpt lat="43.79023" lon="7.24771">
        <ele>621.06268310547</ele>
        <time>2011-10-08T12:13:01Z</time>
      </trkpt>
      <trkpt lat="43.79037" lon="7.24762">
        <ele>620.69445800781</ele>
        <time>2011-10-08T12:13:05Z</time>
      </trkpt>
      <trkpt lat="43.79047" lon="7.24744">
        <ele>616.51544189453</ele>
        <time>2011-10-08T12:13:08Z</time>
      </trkpt>
      <trkpt lat="43.79071" lon="7.24717">
        <ele>609.87847900391</ele>
        <time>2011-10-08T12:13:12Z</time>
      </trkpt>
      <trkpt lat="43.79111" lon="7.24685">
        <ele>604.17663574219</ele>
        <time>2011-10-08T12:13:18Z</time>
      </trkpt>
      <trkpt lat="43.7912" lon="7.24677">
        <ele>602.61029052734</ele>
        <time>2011-10-08T12:13:20Z</time>
      </trkpt>
      <trkpt lat="43.7913" lon="7.24659">
        <ele>598.06646728516</ele>
        <time>2011-10-08T12:13:25Z</time>
      </trkpt>
      <trkpt lat="43.79134" lon="7.24653">
        <ele>597.04058837891</ele>
        <time>2011-10-08T12:13:28Z</time>
      </trkpt>
      <trkpt lat="43.7914" lon="7.2465">
        <ele>596.85388183594</ele>
        <time>2011-10-08T12:13:32Z</time>
      </trkpt>
      <trkpt lat="43.79151" lon="7.24645">
        <ele>597.32415771484</ele>
        <time>2011-10-08T12:13:37Z</time>
      </trkpt>
      <trkpt lat="43.79167" lon="7.24635">
        <ele>597.10412597656</ele>
        <time>2011-10-08T12:13:44Z</time>
      </trkpt>
      <trkpt lat="43.79179" lon="7.24625">
        <ele>597.39727783203</ele>
        <time>2011-10-08T12:13:50Z</time>
      </trkpt>
      <trkpt lat="43.7918" lon="7.24622">
        <ele>597.06994628906</ele>
        <time>2011-10-08T12:13:51Z</time>
      </trkpt>
      <trkpt lat="43.79189" lon="7.2462">
        <ele>598.41564941406</ele>
        <time>2011-10-08T12:13:56Z</time>
      </trkpt>
      <trkpt lat="43.79197" lon="7.2461">
        <ele>597.79571533203</ele>
        <time>2011-10-08T12:14:02Z</time>
      </trkpt>
      <trkpt lat="43.79203" lon="7.24608">
        <ele>598.71594238281</ele>
        <time>2011-10-08T12:14:05Z</time>
      </trkpt>
      <trkpt lat="43.79211" lon="7.24598">
        <ele>597.73614501953</ele>
        <time>2011-10-08T12:14:11Z</time>
      </trkpt>
      <trkpt lat="43.79222" lon="7.24582">
        <ele>595.67266845703</ele>
        <time>2011-10-08T12:14:18Z</time>
      </trkpt>
      <trkpt lat="43.79225" lon="7.24579">
        <ele>595.45910644531</ele>
        <time>2011-10-08T12:14:20Z</time>
      </trkpt>
      <trkpt lat="43.79227" lon="7.24572">
        <ele>594.37902832031</ele>
        <time>2011-10-08T12:14:23Z</time>
      </trkpt>
      <trkpt lat="43.79231" lon="7.24568">
        <ele>594.27807617188</ele>
        <time>2011-10-08T12:14:26Z</time>
      </trkpt>
      <trkpt lat="43.79235" lon="7.24559">
        <ele>593.33959960938</ele>
        <time>2011-10-08T12:14:30Z</time>
      </trkpt>
      <trkpt lat="43.79239" lon="7.24554">
        <ele>593.05963134766</ele>
        <time>2011-10-08T12:14:33Z</time>
      </trkpt>
      <trkpt lat="43.79243" lon="7.24548">
        <ele>592.70837402344</ele>
        <time>2011-10-08T12:14:37Z</time>
      </trkpt>
      <trkpt lat="43.79249" lon="7.24543">
        <ele>593.17230224609</ele>
        <time>2011-10-08T12:14:41Z</time>
      </trkpt>
      <trkpt lat="43.79257" lon="7.24535">
        <ele>594.5302734375</ele>
        <time>2011-10-08T12:14:47Z</time>
      </trkpt>
      <trkpt lat="43.7926" lon="7.24532">
        <ele>594.87609863281</ele>
        <time>2011-10-08T12:14:49Z</time>
      </trkpt>
      <trkpt lat="43.79271" lon="7.24521">
        <ele>597.06762695312</ele>
        <time>2011-10-08T12:14:57Z</time>
      </trkpt>
      <trkpt lat="43.7928" lon="7.24509">
        <ele>597.88232421875</ele>
        <time>2011-10-08T12:15:04Z</time>
      </trkpt>
      <trkpt lat="43.79282" lon="7.24507">
        <ele>598.02703857422</ele>
        <time>2011-10-08T12:15:05Z</time>
      </trkpt>
      <trkpt lat="43.79291" lon="7.24494">
        <ele>598.3232421875</ele>
        <time>2011-10-08T12:15:12Z</time>
      </trkpt>
      <trkpt lat="43.79293" lon="7.24495">
        <ele>599.08148193359</ele>
        <time>2011-10-08T12:15:15Z</time>
      </trkpt>
      <trkpt lat="43.7929" lon="7.24495">
        <ele>598.23767089844</ele>
        <time>2011-10-08T12:15:19Z</time>
      </trkpt>
      <trkpt lat="43.79295" lon="7.24495">
        <ele>600.19519042969</ele>
        <time>2011-10-08T12:15:20Z</time>
      </trkpt>
      <trkpt lat="43.79303" lon="7.2448">
        <ele>599.435546875</ele>
        <time>2011-10-08T12:15:27Z</time>
      </trkpt>
      <trkpt lat="43.7931" lon="7.24471">
        <ele>599.85656738281</ele>
        <time>2011-10-08T12:15:32Z</time>
      </trkpt>
      <trkpt lat="43.79325" lon="7.24461">
        <ele>602.47601318359</ele>
        <time>2011-10-08T12:15:40Z</time>
      </trkpt>
      <trkpt lat="43.79335" lon="7.24455">
        <ele>604.76800537109</ele>
        <time>2011-10-08T12:15:45Z</time>
      </trkpt>
      <trkpt lat="43.79354" lon="7.24444">
        <ele>609.3203125</ele>
        <time>2011-10-08T12:15:54Z</time>
      </trkpt>
      <trkpt lat="43.79359" lon="7.24443">
        <ele>610.75335693359</ele>
        <time>2011-10-08T12:15:56Z</time>
      </trkpt>
      <trkpt lat="43.79373" lon="7.24431">
        <ele>612.41497802734</ele>
        <time>2011-10-08T12:16:03Z</time>
      </trkpt>
      <trkpt lat="43.79387" lon="7.24421">
        <ele>613.54162597656</ele>
        <time>2011-10-08T12:16:10Z</time>
      </trkpt>
      <trkpt lat="43.79387" lon="7.2442">
        <ele>613.37829589844</ele>
        <time>2011-10-08T12:16:17Z</time>
      </trkpt>
      <trkpt lat="43.79387" lon="7.2442">
        <ele>613.23608398438</ele>
        <time>2011-10-08T12:16:21Z</time>
      </trkpt>
      <trkpt lat="43.79388" lon="7.24418">
        <ele>612.81439208984</ele>
        <time>2011-10-08T12:16:41Z</time>
      </trkpt>
      <trkpt lat="43.79388" lon="7.24418">
        <ele>612.87231445312</ele>
        <time>2011-10-08T12:16:47Z</time>
      </trkpt>
      <trkpt lat="43.79388" lon="7.24418">
        <ele>612.81878662109</ele>
        <time>2011-10-08T12:16:51Z</time>
      </trkpt>
      <trkpt lat="43.79388" lon="7.24418">
        <ele>612.71173095703</ele>
        <time>2011-10-08T12:16:58Z</time>
      </trkpt>
      <trkpt lat="43.79388" lon="7.24417">
        <ele>612.78692626953</ele>
        <time>2011-10-08T12:17:06Z</time>
      </trkpt>
      <trkpt lat="43.79388" lon="7.24417">
        <ele>612.60803222656</ele>
        <time>2011-10-08T12:17:24Z</time>
      </trkpt>
      <trkpt lat="43.79389" lon="7.24416">
        <ele>612.39855957031</ele>
        <time>2011-10-08T12:17:40Z</time>
      </trkpt>
      <trkpt lat="43.79402" lon="7.24407">
        <ele>613.49395751953</ele>
        <time>2011-10-08T12:17:45Z</time>
      </trkpt>
      <trkpt lat="43.79423" lon="7.24392">
        <ele>615.33428955078</ele>
        <time>2011-10-08T12:17:50Z</time>
      </trkpt>
      <trkpt lat="43.7943" lon="7.24385">
        <ele>615.9208984375</ele>
        <time>2011-10-08T12:17:52Z</time>
      </trkpt>
      <trkpt lat="43.79438" lon="7.24378">
        <ele>616.51354980469</ele>
        <time>2011-10-08T12:17:54Z</time>
      </trkpt>
      <trkpt lat="43.79446" lon="7.24372">
        <ele>617.02227783203</ele>
        <time>2011-10-08T12:17:56Z</time>
      </trkpt>
      <trkpt lat="43.7945" lon="7.24368">
        <ele>617.49298095703</ele>
        <time>2011-10-08T12:17:57Z</time>
      </trkpt>
      <trkpt lat="43.79454" lon="7.24365">
        <ele>617.81951904297</ele>
        <time>2011-10-08T12:17:58Z</time>
      </trkpt>
      <trkpt lat="43.79485" lon="7.24333">
        <ele>617.98425292969</ele>
        <time>2011-10-08T12:18:07Z</time>
      </trkpt>
      <trkpt lat="43.79507" lon="7.24305">
        <ele>620.74041748047</ele>
        <time>2011-10-08T12:18:14Z</time>
      </trkpt>
      <trkpt lat="43.79528" lon="7.24276">
        <ele>626.1650390625</ele>
        <time>2011-10-08T12:18:21Z</time>
      </trkpt>
      <trkpt lat="43.79545" lon="7.2425">
        <ele>630.31823730469</ele>
        <time>2011-10-08T12:18:27Z</time>
      </trkpt>
      <trkpt lat="43.79548" lon="7.24246">
        <ele>631.98406982422</ele>
        <time>2011-10-08T12:18:28Z</time>
      </trkpt>
      <trkpt lat="43.79552" lon="7.24235">
        <ele>635.02239990234</ele>
        <time>2011-10-08T12:18:30Z</time>
      </trkpt>
      <trkpt lat="43.79562" lon="7.24202">
        <ele>641.35772705078</ele>
        <time>2011-10-08T12:18:37Z</time>
      </trkpt>
      <trkpt lat="43.7957" lon="7.24185">
        <ele>645.56494140625</ele>
        <time>2011-10-08T12:18:43Z</time>
      </trkpt>
      <trkpt lat="43.79578" lon="7.24161">
        <ele>651.9130859375</ele>
        <time>2011-10-08T12:18:51Z</time>
      </trkpt>
      <trkpt lat="43.79584" lon="7.24152">
        <ele>658.51647949219</ele>
        <time>2011-10-08T12:18:56Z</time>
      </trkpt>
      <trkpt lat="43.79585" lon="7.24151">
        <ele>659.16314697266</ele>
        <time>2011-10-08T12:19:03Z</time>
      </trkpt>
      <trkpt lat="43.79586" lon="7.24154">
        <ele>658.52972412109</ele>
        <time>2011-10-08T12:19:15Z</time>
      </trkpt>
      <trkpt lat="43.79585" lon="7.24168">
        <ele>653.85150146484</ele>
        <time>2011-10-08T12:19:21Z</time>
      </trkpt>
      <trkpt lat="43.79583" lon="7.24174">
        <ele>652.68560791016</ele>
        <time>2011-10-08T12:19:24Z</time>
      </trkpt>
      <trkpt lat="43.79581" lon="7.24178">
        <ele>651.67828369141</ele>
        <time>2011-10-08T12:19:26Z</time>
      </trkpt>
      <trkpt lat="43.7958" lon="7.2418">
        <ele>651.48712158203</ele>
        <time>2011-10-08T12:19:27Z</time>
      </trkpt>
      <trkpt lat="43.79576" lon="7.24196">
        <ele>649.021484375</ele>
        <time>2011-10-08T12:19:34Z</time>
      </trkpt>
      <trkpt lat="43.79575" lon="7.24207">
        <ele>648.62542724609</ele>
        <time>2011-10-08T12:19:38Z</time>
      </trkpt>
      <trkpt lat="43.79575" lon="7.2421">
        <ele>648.41229248047</ele>
        <time>2011-10-08T12:19:39Z</time>
      </trkpt>
      <trkpt lat="43.79573" lon="7.24221">
        <ele>647.76708984375</ele>
        <time>2011-10-08T12:19:43Z</time>
      </trkpt>
      <trkpt lat="43.79573" lon="7.24223">
        <ele>647.54461669922</ele>
        <time>2011-10-08T12:19:44Z</time>
      </trkpt>
      <trkpt lat="43.79571" lon="7.24241">
        <ele>646.16632080078</ele>
        <time>2011-10-08T12:19:51Z</time>
      </trkpt>
      <trkpt lat="43.79567" lon="7.2426">
        <ele>646.13397216797</ele>
        <time>2011-10-08T12:19:59Z</time>
      </trkpt>
      <trkpt lat="43.79561" lon="7.24276">
        <ele>646.67333984375</ele>
        <time>2011-10-08T12:20:06Z</time>
      </trkpt>
      <trkpt lat="43.79553" lon="7.24294">
        <ele>646.59844970703</ele>
        <time>2011-10-08T12:20:14Z</time>
      </trkpt>
      <trkpt lat="43.79542" lon="7.24319">
        <ele>646.00170898438</ele>
        <time>2011-10-08T12:20:24Z</time>
      </trkpt>
      <trkpt lat="43.79532" lon="7.24339">
        <ele>645.1875</ele>
        <time>2011-10-08T12:20:32Z</time>
      </trkpt>
      <trkpt lat="43.79527" lon="7.24345">
        <ele>644.51287841797</ele>
        <time>2011-10-08T12:20:35Z</time>
      </trkpt>
      <trkpt lat="43.79525" lon="7.2435">
        <ele>644.44885253906</ele>
        <time>2011-10-08T12:20:37Z</time>
      </trkpt>
      <trkpt lat="43.79523" lon="7.24352">
        <ele>644.595703125</ele>
        <time>2011-10-08T12:20:38Z</time>
      </trkpt>
      <trkpt lat="43.79522" lon="7.24354">
        <ele>644.69219970703</ele>
        <time>2011-10-08T12:20:39Z</time>
      </trkpt>
      <trkpt lat="43.79512" lon="7.24371">
        <ele>644.85369873047</ele>
        <time>2011-10-08T12:20:46Z</time>
      </trkpt>
      <trkpt lat="43.79504" lon="7.24383">
        <ele>645.43090820312</ele>
        <time>2011-10-08T12:20:51Z</time>
      </trkpt>
      <trkpt lat="43.79492" lon="7.24399">
        <ele>646.67712402344</ele>
        <time>2011-10-08T12:20:58Z</time>
      </trkpt>
      <trkpt lat="43.79478" lon="7.24418">
        <ele>648.05108642578</ele>
        <time>2011-10-08T12:21:06Z</time>
      </trkpt>
      <trkpt lat="43.79465" lon="7.24435">
        <ele>649.41809082031</ele>
        <time>2011-10-08T12:21:14Z</time>
      </trkpt>
      <trkpt lat="43.7945" lon="7.24452">
        <ele>650.02453613281</ele>
        <time>2011-10-08T12:21:22Z</time>
      </trkpt>
      <trkpt lat="43.79432" lon="7.24469">
        <ele>650.22790527344</ele>
        <time>2011-10-08T12:21:30Z</time>
      </trkpt>
      <trkpt lat="43.79416" lon="7.24487">
        <ele>652.20733642578</ele>
        <time>2011-10-08T12:21:38Z</time>
      </trkpt>
      <trkpt lat="43.79405" lon="7.2451">
        <ele>654.53289794922</ele>
        <time>2011-10-08T12:21:46Z</time>
      </trkpt>
      <trkpt lat="43.79388" lon="7.24536">
        <ele>653.37683105469</ele>
        <time>2011-10-08T12:21:56Z</time>
      </trkpt>
      <trkpt lat="43.79377" lon="7.24553">
        <ele>651.95587158203</ele>
        <time>2011-10-08T12:22:03Z</time>
      </trkpt>
      <trkpt lat="43.7937" lon="7.24571">
        <ele>653.93383789062</ele>
        <time>2011-10-08T12:22:09Z</time>
      </trkpt>
      <trkpt lat="43.79362" lon="7.24596">
        <ele>656.1552734375</ele>
        <time>2011-10-08T12:22:17Z</time>
      </trkpt>
      <trkpt lat="43.79354" lon="7.2462">
        <ele>657.53460693359</ele>
        <time>2011-10-08T12:22:25Z</time>
      </trkpt>
      <trkpt lat="43.79353" lon="7.24627">
        <ele>658.01611328125</ele>
        <time>2011-10-08T12:22:27Z</time>
      </trkpt>
      <trkpt lat="43.79352" lon="7.2463">
        <ele>658.35125732422</ele>
        <time>2011-10-08T12:22:28Z</time>
      </trkpt>
      <trkpt lat="43.79345" lon="7.24651">
        <ele>660.00946044922</ele>
        <time>2011-10-08T12:22:35Z</time>
      </trkpt>
      <trkpt lat="43.79338" lon="7.24681">
        <ele>663.2333984375</ele>
        <time>2011-10-08T12:22:44Z</time>
      </trkpt>
      <trkpt lat="43.79332" lon="7.24704">
        <ele>665.29681396484</ele>
        <time>2011-10-08T12:22:51Z</time>
      </trkpt>
      <trkpt lat="43.79329" lon="7.24725">
        <ele>668.12042236328</ele>
        <time>2011-10-08T12:22:57Z</time>
      </trkpt>
      <trkpt lat="43.79327" lon="7.24746">
        <ele>671.86224365234</ele>
        <time>2011-10-08T12:23:03Z</time>
      </trkpt>
      <trkpt lat="43.79328" lon="7.24772">
        <ele>672.10522460938</ele>
        <time>2011-10-08T12:23:11Z</time>
      </trkpt>
      <trkpt lat="43.79333" lon="7.24778">
        <ele>673.05084228516</ele>
        <time>2011-10-08T12:23:16Z</time>
      </trkpt>
      <trkpt lat="43.79333" lon="7.24778">
        <ele>673.02679443359</ele>
        <time>2011-10-08T12:23:25Z</time>
      </trkpt>
      <trkpt lat="43.79332" lon="7.2478">
        <ele>672.67175292969</ele>
        <time>2011-10-08T12:23:37Z</time>
      </trkpt>
      <trkpt lat="43.79333" lon="7.24782">
        <ele>672.89788818359</ele>
        <time>2011-10-08T12:23:39Z</time>
      </trkpt>
      <trkpt lat="43.79333" lon="7.24788">
        <ele>672.54479980469</ele>
        <time>2011-10-08T12:23:46Z</time>
      </trkpt>
      <trkpt lat="43.79333" lon="7.24787">
        <ele>672.63842773438</ele>
        <time>2011-10-08T12:23:51Z</time>
      </trkpt>
      <trkpt lat="43.79332" lon="7.24786">
        <ele>672.45104980469</ele>
        <time>2011-10-08T12:23:58Z</time>
      </trkpt>
      <trkpt lat="43.79333" lon="7.24787">
        <ele>672.736328125</ele>
        <time>2011-10-08T12:24:06Z</time>
      </trkpt>
      <trkpt lat="43.79333" lon="7.24784">
        <ele>672.72180175781</ele>
        <time>2011-10-08T12:24:13Z</time>
      </trkpt>
      <trkpt lat="43.79333" lon="7.24785">
        <ele>672.70819091797</ele>
        <time>2011-10-08T12:24:22Z</time>
      </trkpt>
      <trkpt lat="43.79333" lon="7.24785">
        <ele>672.63024902344</ele>
        <time>2011-10-08T12:24:24Z</time>
      </trkpt>
      <trkpt lat="43.79333" lon="7.24785">
        <ele>672.63024902344</ele>
        <time>2011-10-08T12:24:25Z</time>
      </trkpt>
      <trkpt lat="43.79332" lon="7.24785">
        <ele>672.5576171875</ele>
        <time>2011-10-08T12:24:27Z</time>
      </trkpt>
      <trkpt lat="43.79332" lon="7.24785">
        <ele>672.55267333984</ele>
        <time>2011-10-08T12:24:29Z</time>
      </trkpt>
      <trkpt lat="43.79332" lon="7.24786">
        <ele>672.40802001953</ele>
        <time>2011-10-08T12:24:34Z</time>
      </trkpt>
      <trkpt lat="43.79332" lon="7.24786">
        <ele>672.40643310547</ele>
        <time>2011-10-08T12:24:35Z</time>
      </trkpt>
      <trkpt lat="43.79332" lon="7.24785">
        <ele>672.41436767578</ele>
        <time>2011-10-08T12:24:39Z</time>
      </trkpt>
      <trkpt lat="43.79337" lon="7.24784">
        <ele>673.78802490234</ele>
        <time>2011-10-08T12:24:44Z</time>
      </trkpt>
      <trkpt lat="43.79339" lon="7.24775">
        <ele>674.96862792969</ele>
        <time>2011-10-08T12:24:50Z</time>
      </trkpt>
      <trkpt lat="43.79338" lon="7.24769">
        <ele>674.80737304688</ele>
        <time>2011-10-08T12:24:53Z</time>
      </trkpt>
      <trkpt lat="43.79338" lon="7.24768">
        <ele>674.96990966797</ele>
        <time>2011-10-08T12:25:01Z</time>
      </trkpt>
      <trkpt lat="43.79337" lon="7.24757">
        <ele>675.01611328125</ele>
        <time>2011-10-08T12:25:07Z</time>
      </trkpt>
      <trkpt lat="43.79339" lon="7.24742">
        <ele>674.36346435547</ele>
        <time>2011-10-08T12:25:14Z</time>
      </trkpt>
      <trkpt lat="43.79343" lon="7.24727">
        <ele>673.14862060547</ele>
        <time>2011-10-08T12:25:22Z</time>
      </trkpt>
      <trkpt lat="43.79348" lon="7.24711">
        <ele>672.26538085938</ele>
        <time>2011-10-08T12:25:30Z</time>
      </trkpt>
      <trkpt lat="43.79355" lon="7.24687">
        <ele>670.57196044922</ele>
        <time>2011-10-08T12:25:40Z</time>
      </trkpt>
      <trkpt lat="43.79361" lon="7.24667">
        <ele>669.62854003906</ele>
        <time>2011-10-08T12:25:48Z</time>
      </trkpt>
      <trkpt lat="43.79368" lon="7.24649">
        <ele>668.94891357422</ele>
        <time>2011-10-08T12:25:56Z</time>
      </trkpt>
      <trkpt lat="43.79377" lon="7.24631">
        <ele>669.31976318359</ele>
        <time>2011-10-08T12:26:04Z</time>
      </trkpt>
      <trkpt lat="43.79387" lon="7.24614">
        <ele>670.23114013672</ele>
        <time>2011-10-08T12:26:12Z</time>
      </trkpt>
      <trkpt lat="43.79395" lon="7.24601">
        <ele>671.94311523438</ele>
        <time>2011-10-08T12:26:19Z</time>
      </trkpt>
      <trkpt lat="43.79403" lon="7.24592">
        <ele>673.77905273438</ele>
        <time>2011-10-08T12:26:24Z</time>
      </trkpt>
      <trkpt lat="43.79415" lon="7.24578">
        <ele>676.72985839844</ele>
        <time>2011-10-08T12:26:32Z</time>
      </trkpt>
      <trkpt lat="43.79429" lon="7.24561">
        <ele>678.08551025391</ele>
        <time>2011-10-08T12:26:41Z</time>
      </trkpt>
      <trkpt lat="43.79442" lon="7.24548">
        <ele>679.37371826172</ele>
        <time>2011-10-08T12:26:49Z</time>
      </trkpt>
      <trkpt lat="43.79453" lon="7.24536">
        <ele>679.86633300781</ele>
        <time>2011-10-08T12:26:56Z</time>
      </trkpt>
      <trkpt lat="43.79469" lon="7.24521">
        <ele>681.17449951172</ele>
        <time>2011-10-08T12:27:05Z</time>
      </trkpt>
      <trkpt lat="43.79482" lon="7.24509">
        <ele>681.72174072266</ele>
        <time>2011-10-08T12:27:12Z</time>
      </trkpt>
      <trkpt lat="43.79496" lon="7.24495">
        <ele>681.755859375</ele>
        <time>2011-10-08T12:27:20Z</time>
      </trkpt>
      <trkpt lat="43.79508" lon="7.24482">
        <ele>682.51403808594</ele>
        <time>2011-10-08T12:27:27Z</time>
      </trkpt>
      <trkpt lat="43.79524" lon="7.24467">
        <ele>684.67730712891</ele>
        <time>2011-10-08T12:27:37Z</time>
      </trkpt>
      <trkpt lat="43.79533" lon="7.24461">
        <ele>686.21459960938</ele>
        <time>2011-10-08T12:27:43Z</time>
      </trkpt>
      <trkpt lat="43.7954" lon="7.24455">
        <ele>687.07330322266</ele>
        <time>2011-10-08T12:27:49Z</time>
      </trkpt>
      <trkpt lat="43.79548" lon="7.24443">
        <ele>685.86730957031</ele>
        <time>2011-10-08T12:27:55Z</time>
      </trkpt>
      <trkpt lat="43.79558" lon="7.24428">
        <ele>684.43078613281</ele>
        <time>2011-10-08T12:28:03Z</time>
      </trkpt>
      <trkpt lat="43.79571" lon="7.24414">
        <ele>684.451171875</ele>
        <time>2011-10-08T12:28:11Z</time>
      </trkpt>
      <trkpt lat="43.7958" lon="7.24404">
        <ele>686.23187255859</ele>
        <time>2011-10-08T12:28:17Z</time>
      </trkpt>
      <trkpt lat="43.79584" lon="7.24399">
        <ele>687.28430175781</ele>
        <time>2011-10-08T12:28:20Z</time>
      </trkpt>
      <trkpt lat="43.79593" lon="7.24388">
        <ele>690.29473876953</ele>
        <time>2011-10-08T12:28:26Z</time>
      </trkpt>
      <trkpt lat="43.79594" lon="7.24387">
        <ele>690.90460205078</ele>
        <time>2011-10-08T12:28:27Z</time>
      </trkpt>
      <trkpt lat="43.79596" lon="7.24386">
        <ele>691.46441650391</ele>
        <time>2011-10-08T12:28:28Z</time>
      </trkpt>
      <trkpt lat="43.79607" lon="7.24373">
        <ele>694.82360839844</ele>
        <time>2011-10-08T12:28:36Z</time>
      </trkpt>
      <trkpt lat="43.79618" lon="7.24361">
        <ele>697.25958251953</ele>
        <time>2011-10-08T12:28:44Z</time>
      </trkpt>
      <trkpt lat="43.79624" lon="7.24355">
        <ele>698.17456054688</ele>
        <time>2011-10-08T12:28:48Z</time>
      </trkpt>
      <trkpt lat="43.79634" lon="7.24345">
        <ele>699.95971679688</ele>
        <time>2011-10-08T12:28:55Z</time>
      </trkpt>
      <trkpt lat="43.79645" lon="7.24335">
        <ele>701.69616699219</ele>
        <time>2011-10-08T12:29:03Z</time>
      </trkpt>
      <trkpt lat="43.79647" lon="7.24332">
        <ele>701.57098388672</ele>
        <time>2011-10-08T12:29:05Z</time>
      </trkpt>
      <trkpt lat="43.79654" lon="7.24324">
        <ele>702.53002929688</ele>
        <time>2011-10-08T12:29:10Z</time>
      </trkpt>
      <trkpt lat="43.79664" lon="7.24309">
        <ele>703.49151611328</ele>
        <time>2011-10-08T12:29:18Z</time>
      </trkpt>
      <trkpt lat="43.79672" lon="7.24298">
        <ele>704.16961669922</ele>
        <time>2011-10-08T12:29:24Z</time>
      </trkpt>
      <trkpt lat="43.79683" lon="7.24287">
        <ele>706.51843261719</ele>
        <time>2011-10-08T12:29:30Z</time>
      </trkpt>
      <trkpt lat="43.79687" lon="7.24284">
        <ele>707.36590576172</ele>
        <time>2011-10-08T12:29:31Z</time>
      </trkpt>
      <trkpt lat="43.79694" lon="7.24268">
        <ele>706.07598876953</ele>
        <time>2011-10-08T12:29:35Z</time>
      </trkpt>
      <trkpt lat="43.79699" lon="7.24258">
        <ele>705.57568359375</ele>
        <time>2011-10-08T12:29:40Z</time>
      </trkpt>
      <trkpt lat="43.79707" lon="7.24243">
        <ele>705.80584716797</ele>
        <time>2011-10-08T12:29:46Z</time>
      </trkpt>
      <trkpt lat="43.79709" lon="7.24237">
        <ele>706.37652587891</ele>
        <time>2011-10-08T12:29:48Z</time>
      </trkpt>
      <trkpt lat="43.79712" lon="7.24232">
        <ele>707.12554931641</ele>
        <time>2011-10-08T12:29:50Z</time>
      </trkpt>
      <trkpt lat="43.79722" lon="7.24209">
        <ele>708.60430908203</ele>
        <time>2011-10-08T12:29:59Z</time>
      </trkpt>
      <trkpt lat="43.79725" lon="7.24204">
        <ele>709.02429199219</ele>
        <time>2011-10-08T12:30:02Z</time>
      </trkpt>
      <trkpt lat="43.79729" lon="7.242">
        <ele>710.25134277344</ele>
        <time>2011-10-08T12:30:07Z</time>
      </trkpt>
      <trkpt lat="43.79729" lon="7.24199">
        <ele>710.23754882812</ele>
        <time>2011-10-08T12:30:14Z</time>
      </trkpt>
      <trkpt lat="43.79728" lon="7.24198">
        <ele>709.75152587891</ele>
        <time>2011-10-08T12:30:18Z</time>
      </trkpt>
      <trkpt lat="43.79728" lon="7.24198">
        <ele>709.74249267578</ele>
        <time>2011-10-08T12:30:20Z</time>
      </trkpt>
      <trkpt lat="43.79728" lon="7.24198">
        <ele>709.60980224609</ele>
        <time>2011-10-08T12:30:21Z</time>
      </trkpt>
      <trkpt lat="43.79728" lon="7.24198">
        <ele>709.60076904297</ele>
        <time>2011-10-08T12:30:22Z</time>
      </trkpt>
      <trkpt lat="43.7973" lon="7.24195">
        <ele>710.041015625</ele>
        <time>2011-10-08T12:30:26Z</time>
      </trkpt>
      <trkpt lat="43.79735" lon="7.24173">
        <ele>709.22546386719</ele>
        <time>2011-10-08T12:30:30Z</time>
      </trkpt>
      <trkpt lat="43.79736" lon="7.24156">
        <ele>709.82781982422</ele>
        <time>2011-10-08T12:30:32Z</time>
      </trkpt>
      <trkpt lat="43.79741" lon="7.24151">
        <ele>711.59069824219</ele>
        <time>2011-10-08T12:30:36Z</time>
      </trkpt>
      <trkpt lat="43.7974" lon="7.24151">
        <ele>711.28491210938</ele>
        <time>2011-10-08T12:30:45Z</time>
      </trkpt>
      <trkpt lat="43.79741" lon="7.24151">
        <ele>711.59399414062</ele>
        <time>2011-10-08T12:30:50Z</time>
      </trkpt>
      <trkpt lat="43.79742" lon="7.2415">
        <ele>711.81939697266</ele>
        <time>2011-10-08T12:30:57Z</time>
      </trkpt>
      <trkpt lat="43.79742" lon="7.24148">
        <ele>711.98663330078</ele>
        <time>2011-10-08T12:31:03Z</time>
      </trkpt>
      <trkpt lat="43.79742" lon="7.24147">
        <ele>711.97271728516</ele>
        <time>2011-10-08T12:31:11Z</time>
      </trkpt>
      <trkpt lat="43.79737" lon="7.24143">
        <ele>711.244140625</ele>
        <time>2011-10-08T12:31:48Z</time>
      </trkpt>
      <trkpt lat="43.79737" lon="7.24143">
        <ele>711.16009521484</ele>
        <time>2011-10-08T12:31:56Z</time>
      </trkpt>
      <trkpt lat="43.79737" lon="7.24143">
        <ele>711.07611083984</ele>
        <time>2011-10-08T12:31:57Z</time>
      </trkpt>
      <trkpt lat="43.79737" lon="7.24143">
        <ele>711.07611083984</ele>
        <time>2011-10-08T12:31:58Z</time>
      </trkpt>
      <trkpt lat="43.79735" lon="7.24142">
        <ele>710.73461914062</ele>
        <time>2011-10-08T12:32:50Z</time>
      </trkpt>
      <trkpt lat="43.79735" lon="7.24142">
        <ele>710.74279785156</ele>
        <time>2011-10-08T12:32:51Z</time>
      </trkpt>
      <trkpt lat="43.79735" lon="7.24141">
        <ele>710.78338623047</ele>
        <time>2011-10-08T12:32:55Z</time>
      </trkpt>
      <trkpt lat="43.79734" lon="7.24141">
        <ele>710.73004150391</ele>
        <time>2011-10-08T12:32:57Z</time>
      </trkpt>
      <trkpt lat="43.79734" lon="7.24141">
        <ele>710.74237060547</ele>
        <time>2011-10-08T12:32:58Z</time>
      </trkpt>
      <trkpt lat="43.79734" lon="7.2414">
        <ele>710.66754150391</ele>
        <time>2011-10-08T12:33:05Z</time>
      </trkpt>
      <trkpt lat="43.79736" lon="7.24142">
        <ele>710.86834716797</ele>
        <time>2011-10-08T12:33:10Z</time>
      </trkpt>
      <trkpt lat="43.79736" lon="7.24142">
        <ele>710.86834716797</ele>
        <time>2011-10-08T12:33:11Z</time>
      </trkpt>
      <trkpt lat="43.79738" lon="7.24145">
        <ele>711.26245117188</ele>
        <time>2011-10-08T12:33:27Z</time>
      </trkpt>
      <trkpt lat="43.79741" lon="7.24142">
        <ele>712.18243408203</ele>
        <time>2011-10-08T12:33:32Z</time>
      </trkpt>
      <trkpt lat="43.79753" lon="7.24124">
        <ele>715.09918212891</ele>
        <time>2011-10-08T12:33:38Z</time>
      </trkpt>
      <trkpt lat="43.79759" lon="7.24113">
        <ele>715.54528808594</ele>
        <time>2011-10-08T12:33:41Z</time>
      </trkpt>
      <trkpt lat="43.79766" lon="7.24101">
        <ele>715.64739990234</ele>
        <time>2011-10-08T12:33:46Z</time>
      </trkpt>
      <trkpt lat="43.79777" lon="7.24089">
        <ele>715.13488769531</ele>
        <time>2011-10-08T12:33:51Z</time>
      </trkpt>
      <trkpt lat="43.79778" lon="7.24088">
        <ele>715.04663085938</ele>
        <time>2011-10-08T12:33:52Z</time>
      </trkpt>
      <trkpt lat="43.79785" lon="7.24087">
        <ele>714.59448242188</ele>
        <time>2011-10-08T12:33:56Z</time>
      </trkpt>
      <trkpt lat="43.79789" lon="7.2408">
        <ele>713.96685791016</ele>
        <time>2011-10-08T12:34:00Z</time>
      </trkpt>
      <trkpt lat="43.79786" lon="7.24087">
        <ele>714.52465820312</ele>
        <time>2011-10-08T12:34:03Z</time>
      </trkpt>
      <trkpt lat="43.79777" lon="7.24097">
        <ele>715.24243164062</ele>
        <time>2011-10-08T12:34:06Z</time>
      </trkpt>
      <trkpt lat="43.79771" lon="7.24105">
        <ele>715.50372314453</ele>
        <time>2011-10-08T12:34:09Z</time>
      </trkpt>
      <trkpt lat="43.7977" lon="7.24109">
        <ele>715.5068359375</ele>
        <time>2011-10-08T12:34:11Z</time>
      </trkpt>
      <trkpt lat="43.79771" lon="7.24095">
        <ele>715.49078369141</ele>
        <time>2011-10-08T12:34:18Z</time>
      </trkpt>
      <trkpt lat="43.79772" lon="7.24096">
        <ele>715.44079589844</ele>
        <time>2011-10-08T12:34:23Z</time>
      </trkpt>
      <trkpt lat="43.79779" lon="7.24092">
        <ele>715.06616210938</ele>
        <time>2011-10-08T12:34:28Z</time>
      </trkpt>
      <trkpt lat="43.79789" lon="7.24085">
        <ele>714.29937744141</ele>
        <time>2011-10-08T12:34:34Z</time>
      </trkpt>
      <trkpt lat="43.79792" lon="7.24084">
        <ele>714.04730224609</ele>
        <time>2011-10-08T12:34:36Z</time>
      </trkpt>
      <trkpt lat="43.79792" lon="7.24084">
        <ele>713.9833984375</ele>
        <time>2011-10-08T12:34:44Z</time>
      </trkpt>
      <trkpt lat="43.79795" lon="7.24083">
        <ele>713.69952392578</ele>
        <time>2011-10-08T12:34:48Z</time>
      </trkpt>
      <trkpt lat="43.79809" lon="7.24083">
        <ele>712.7001953125</ele>
        <time>2011-10-08T12:34:55Z</time>
      </trkpt>
      <trkpt lat="43.79821" lon="7.24083">
        <ele>711.83746337891</ele>
        <time>2011-10-08T12:35:01Z</time>
      </trkpt>
      <trkpt lat="43.7983" lon="7.24082">
        <ele>711.08032226562</ele>
        <time>2011-10-08T12:35:04Z</time>
      </trkpt>
      <trkpt lat="43.7984" lon="7.2408">
        <ele>710.40893554688</ele>
        <time>2011-10-08T12:35:10Z</time>
      </trkpt>
      <trkpt lat="43.7985" lon="7.24077">
        <ele>709.80157470703</ele>
        <time>2011-10-08T12:35:15Z</time>
      </trkpt>
      <trkpt lat="43.79855" lon="7.24077">
        <ele>709.75030517578</ele>
        <time>2011-10-08T12:35:20Z</time>
      </trkpt>
      <trkpt lat="43.79857" lon="7.24076">
        <ele>709.43701171875</ele>
        <time>2011-10-08T12:35:36Z</time>
      </trkpt>
      <trkpt lat="43.7987" lon="7.24072">
        <ele>708.58654785156</ele>
        <time>2011-10-08T12:35:44Z</time>
      </trkpt>
      <trkpt lat="43.79872" lon="7.24072">
        <ele>708.44671630859</ele>
        <time>2011-10-08T12:35:45Z</time>
      </trkpt>
      <trkpt lat="43.79878" lon="7.24077">
        <ele>709.20581054688</ele>
        <time>2011-10-08T12:35:49Z</time>
      </trkpt>
      <trkpt lat="43.79885" lon="7.24083">
        <ele>710.28887939453</ele>
        <time>2011-10-08T12:35:54Z</time>
      </trkpt>
      <trkpt lat="43.79889" lon="7.24086">
        <ele>710.74932861328</ele>
        <time>2011-10-08T12:35:58Z</time>
      </trkpt>
      <trkpt lat="43.79892" lon="7.24088">
        <ele>711.08227539062</ele>
        <time>2011-10-08T12:36:04Z</time>
      </trkpt>
      <trkpt lat="43.79894" lon="7.24089">
        <ele>711.27130126953</ele>
        <time>2011-10-08T12:36:09Z</time>
      </trkpt>
      <trkpt lat="43.79898" lon="7.24091">
        <ele>711.70367431641</ele>
        <time>2011-10-08T12:36:15Z</time>
      </trkpt>
      <trkpt lat="43.79903" lon="7.24088">
        <ele>711.16265869141</ele>
        <time>2011-10-08T12:36:20Z</time>
      </trkpt>
      <trkpt lat="43.79905" lon="7.24088">
        <ele>711.14367675781</ele>
        <time>2011-10-08T12:36:22Z</time>
      </trkpt>
      <trkpt lat="43.79907" lon="7.2409">
        <ele>711.34411621094</ele>
        <time>2011-10-08T12:36:27Z</time>
      </trkpt>
      <trkpt lat="43.79911" lon="7.24093">
        <ele>711.90869140625</ele>
        <time>2011-10-08T12:36:31Z</time>
      </trkpt>
      <trkpt lat="43.79915" lon="7.24095">
        <ele>712.35827636719</ele>
        <time>2011-10-08T12:36:36Z</time>
      </trkpt>
      <trkpt lat="43.79918" lon="7.24104">
        <ele>714.04138183594</ele>
        <time>2011-10-08T12:36:41Z</time>
      </trkpt>
      <trkpt lat="43.7992" lon="7.24105">
        <ele>714.16589355469</ele>
        <time>2011-10-08T12:36:46Z</time>
      </trkpt>
      <trkpt lat="43.79929" lon="7.24114">
        <ele>715.49273681641</ele>
        <time>2011-10-08T12:36:53Z</time>
      </trkpt>
      <trkpt lat="43.79933" lon="7.24118">
        <ele>716.08831787109</ele>
        <time>2011-10-08T12:36:57Z</time>
      </trkpt>
      <trkpt lat="43.79937" lon="7.24123">
        <ele>716.89575195312</ele>
        <time>2011-10-08T12:37:03Z</time>
      </trkpt>
      <trkpt lat="43.79943" lon="7.24134">
        <ele>718.38116455078</ele>
        <time>2011-10-08T12:37:08Z</time>
      </trkpt>
      <trkpt lat="43.79947" lon="7.24145">
        <ele>720.21575927734</ele>
        <time>2011-10-08T12:37:14Z</time>
      </trkpt>
      <trkpt lat="43.79949" lon="7.24155">
        <ele>721.78674316406</ele>
        <time>2011-10-08T12:37:19Z</time>
      </trkpt>
      <trkpt lat="43.79953" lon="7.24166">
        <ele>723.47418212891</ele>
        <time>2011-10-08T12:37:25Z</time>
      </trkpt>
      <trkpt lat="43.79953" lon="7.24174">
        <ele>724.59069824219</ele>
        <time>2011-10-08T12:37:30Z</time>
      </trkpt>
      <trkpt lat="43.79954" lon="7.24175">
        <ele>724.59332275391</ele>
        <time>2011-10-08T12:37:36Z</time>
      </trkpt>
      <trkpt lat="43.79954" lon="7.24175">
        <ele>724.59332275391</ele>
        <time>2011-10-08T12:37:43Z</time>
      </trkpt>
      <trkpt lat="43.79956" lon="7.24179">
        <ele>725.05114746094</ele>
        <time>2011-10-08T12:37:48Z</time>
      </trkpt>
      <trkpt lat="43.79955" lon="7.24179">
        <ele>725.13842773438</ele>
        <time>2011-10-08T12:37:55Z</time>
      </trkpt>
      <trkpt lat="43.79956" lon="7.24181">
        <ele>725.27429199219</ele>
        <time>2011-10-08T12:38:04Z</time>
      </trkpt>
      <trkpt lat="43.79958" lon="7.24185">
        <ele>725.72827148438</ele>
        <time>2011-10-08T12:38:12Z</time>
      </trkpt>
      <trkpt lat="43.79959" lon="7.24188">
        <ele>726.07427978516</ele>
        <time>2011-10-08T12:38:17Z</time>
      </trkpt>
      <trkpt lat="43.79964" lon="7.24194">
        <ele>726.24975585938</ele>
        <time>2011-10-08T12:38:24Z</time>
      </trkpt>
      <trkpt lat="43.79965" lon="7.24197">
        <ele>726.52850341797</ele>
        <time>2011-10-08T12:38:27Z</time>
      </trkpt>
      <trkpt lat="43.79969" lon="7.242">
        <ele>726.51849365234</ele>
        <time>2011-10-08T12:38:33Z</time>
      </trkpt>
      <trkpt lat="43.7997" lon="7.24201">
        <ele>726.50616455078</ele>
        <time>2011-10-08T12:38:34Z</time>
      </trkpt>
      <trkpt lat="43.79972" lon="7.24202">
        <ele>726.34228515625</ele>
        <time>2011-10-08T12:38:40Z</time>
      </trkpt>
      <trkpt lat="43.79972" lon="7.24203">
        <ele>726.45336914062</ele>
        <time>2011-10-08T12:38:53Z</time>
      </trkpt>
      <trkpt lat="43.79976" lon="7.24204">
        <ele>726.15045166016</ele>
        <time>2011-10-08T12:38:58Z</time>
      </trkpt>
      <trkpt lat="43.79978" lon="7.24205">
        <ele>725.96636962891</ele>
        <time>2011-10-08T12:39:04Z</time>
      </trkpt>
      <trkpt lat="43.7998" lon="7.24205">
        <ele>725.77294921875</ele>
        <time>2011-10-08T12:39:14Z</time>
      </trkpt>
      <trkpt lat="43.79985" lon="7.24208">
        <ele>725.4130859375</ele>
        <time>2011-10-08T12:39:20Z</time>
      </trkpt>
      <trkpt lat="43.79987" lon="7.24211">
        <ele>725.46356201172</ele>
        <time>2011-10-08T12:39:25Z</time>
      </trkpt>
      <trkpt lat="43.7999" lon="7.24212">
        <ele>725.33508300781</ele>
        <time>2011-10-08T12:39:34Z</time>
      </trkpt>
      <trkpt lat="43.79993" lon="7.24217">
        <ele>725.44512939453</ele>
        <time>2011-10-08T12:39:38Z</time>
      </trkpt>
      <trkpt lat="43.79995" lon="7.24218">
        <ele>725.27606201172</ele>
        <time>2011-10-08T12:39:44Z</time>
      </trkpt>
      <trkpt lat="43.79995" lon="7.24219">
        <ele>725.32928466797</ele>
        <time>2011-10-08T12:40:02Z</time>
      </trkpt>
      <trkpt lat="43.79995" lon="7.24221">
        <ele>725.61981201172</ele>
        <time>2011-10-08T12:40:15Z</time>
      </trkpt>
      <trkpt lat="43.79995" lon="7.24221">
        <ele>725.67889404297</ele>
        <time>2011-10-08T12:40:22Z</time>
      </trkpt>
      <trkpt lat="43.79994" lon="7.2422">
        <ele>725.62066650391</ele>
        <time>2011-10-08T12:40:36Z</time>
      </trkpt>
      <trkpt lat="43.79993" lon="7.24222">
        <ele>725.91326904297</ele>
        <time>2011-10-08T12:40:44Z</time>
      </trkpt>
      <trkpt lat="43.79993" lon="7.24223">
        <ele>726.04876708984</ele>
        <time>2011-10-08T12:40:45Z</time>
      </trkpt>
      <trkpt lat="43.79994" lon="7.24232">
        <ele>726.88671875</ele>
        <time>2011-10-08T12:40:50Z</time>
      </trkpt>
      <trkpt lat="43.79995" lon="7.24235">
        <ele>727.14007568359</ele>
        <time>2011-10-08T12:40:52Z</time>
      </trkpt>
      <trkpt lat="43.79996" lon="7.24248">
        <ele>728.37591552734</ele>
        <time>2011-10-08T12:40:57Z</time>
      </trkpt>
      <trkpt lat="43.79997" lon="7.24254">
        <ele>728.70861816406</ele>
        <time>2011-10-08T12:40:59Z</time>
      </trkpt>
      <trkpt lat="43.79998" lon="7.24259">
        <ele>728.89752197266</ele>
        <time>2011-10-08T12:41:01Z</time>
      </trkpt>
      <trkpt lat="43.79999" lon="7.24271">
        <ele>729.50164794922</ele>
        <time>2011-10-08T12:41:05Z</time>
      </trkpt>
      <trkpt lat="43.80004" lon="7.24285">
        <ele>728.70361328125</ele>
        <time>2011-10-08T12:41:09Z</time>
      </trkpt>
      <trkpt lat="43.80005" lon="7.24291">
        <ele>728.61706542969</ele>
        <time>2011-10-08T12:41:11Z</time>
      </trkpt>
      <trkpt lat="43.80009" lon="7.24307">
        <ele>728.13348388672</ele>
        <time>2011-10-08T12:41:18Z</time>
      </trkpt>
      <trkpt lat="43.80009" lon="7.24314">
        <ele>728.24877929688</ele>
        <time>2011-10-08T12:41:28Z</time>
      </trkpt>
      <trkpt lat="43.80013" lon="7.24333">
        <ele>727.89129638672</ele>
        <time>2011-10-08T12:41:33Z</time>
      </trkpt>
      <trkpt lat="43.80015" lon="7.24351">
        <ele>728.31799316406</ele>
        <time>2011-10-08T12:41:39Z</time>
      </trkpt>
      <trkpt lat="43.80017" lon="7.24362">
        <ele>728.28570556641</ele>
        <time>2011-10-08T12:41:42Z</time>
      </trkpt>
      <trkpt lat="43.80022" lon="7.24381">
        <ele>727.85412597656</ele>
        <time>2011-10-08T12:41:47Z</time>
      </trkpt>
      <trkpt lat="43.80025" lon="7.24394">
        <ele>727.283203125</ele>
        <time>2011-10-08T12:41:52Z</time>
      </trkpt>
      <trkpt lat="43.80025" lon="7.24395">
        <ele>727.36663818359</ele>
        <time>2011-10-08T12:41:56Z</time>
      </trkpt>
      <trkpt lat="43.80029" lon="7.24398">
        <ele>726.45391845703</ele>
        <time>2011-10-08T12:42:07Z</time>
      </trkpt>
      <trkpt lat="43.80029" lon="7.24403">
        <ele>726.49822998047</ele>
        <time>2011-10-08T12:43:13Z</time>
      </trkpt>
      <trkpt lat="43.80029" lon="7.24403">
        <ele>726.48846435547</ele>
        <time>2011-10-08T12:43:14Z</time>
      </trkpt>
      <trkpt lat="43.80038" lon="7.244">
        <ele>723.07769775391</ele>
        <time>2011-10-08T12:43:19Z</time>
      </trkpt>
      <trkpt lat="43.80041" lon="7.244">
        <ele>722.15447998047</ele>
        <time>2011-10-08T12:43:22Z</time>
      </trkpt>
      <trkpt lat="43.80042" lon="7.244">
        <ele>721.87963867188</ele>
        <time>2011-10-08T12:43:23Z</time>
      </trkpt>
      <trkpt lat="43.80043" lon="7.24402">
        <ele>721.29461669922</ele>
        <time>2011-10-08T12:43:27Z</time>
      </trkpt>
      <trkpt lat="43.80046" lon="7.24407">
        <ele>720.83068847656</ele>
        <time>2011-10-08T12:43:32Z</time>
      </trkpt>
      <trkpt lat="43.80048" lon="7.24411">
        <ele>720.15795898438</ele>
        <time>2011-10-08T12:43:34Z</time>
      </trkpt>
      <trkpt lat="43.80054" lon="7.24399">
        <ele>717.1875</ele>
        <time>2011-10-08T12:43:38Z</time>
      </trkpt>
      <trkpt lat="43.80065" lon="7.24396">
        <ele>712.93438720703</ele>
        <time>2011-10-08T12:43:42Z</time>
      </trkpt>
      <trkpt lat="43.80088" lon="7.24409">
        <ele>707.58258056641</ele>
        <time>2011-10-08T12:43:47Z</time>
      </trkpt>
      <trkpt lat="43.80105" lon="7.24424">
        <ele>711.09478759766</ele>
        <time>2011-10-08T12:43:51Z</time>
      </trkpt>
      <trkpt lat="43.80109" lon="7.2443">
        <ele>712.75439453125</ele>
        <time>2011-10-08T12:43:53Z</time>
      </trkpt>
      <trkpt lat="43.80116" lon="7.24441">
        <ele>715.54949951172</ele>
        <time>2011-10-08T12:43:57Z</time>
      </trkpt>
      <trkpt lat="43.8012" lon="7.24445">
        <ele>716.82110595703</ele>
        <time>2011-10-08T12:43:59Z</time>
      </trkpt>
      <trkpt lat="43.80125" lon="7.24442">
        <ele>716.70336914062</ele>
        <time>2011-10-08T12:44:04Z</time>
      </trkpt>
      <trkpt lat="43.80124" lon="7.24437">
        <ele>715.49377441406</ele>
        <time>2011-10-08T12:44:07Z</time>
      </trkpt>
      <trkpt lat="43.80124" lon="7.2442">
        <ele>711.63891601562</ele>
        <time>2011-10-08T12:44:11Z</time>
      </trkpt>
      <trkpt lat="43.80122" lon="7.24406">
        <ele>708.69769287109</ele>
        <time>2011-10-08T12:44:14Z</time>
      </trkpt>
      <trkpt lat="43.80119" lon="7.24384">
        <ele>704.40264892578</ele>
        <time>2011-10-08T12:44:19Z</time>
      </trkpt>
      <trkpt lat="43.80112" lon="7.24364">
        <ele>701.37060546875</ele>
        <time>2011-10-08T12:44:23Z</time>
      </trkpt>
      <trkpt lat="43.80112" lon="7.24346">
        <ele>698.27087402344</ele>
        <time>2011-10-08T12:44:28Z</time>
      </trkpt>
      <trkpt lat="43.80114" lon="7.24317">
        <ele>694.03747558594</ele>
        <time>2011-10-08T12:44:33Z</time>
      </trkpt>
      <trkpt lat="43.80113" lon="7.24301">
        <ele>692.31335449219</ele>
        <time>2011-10-08T12:44:38Z</time>
      </trkpt>
      <trkpt lat="43.80112" lon="7.243">
        <ele>692.46014404297</ele>
        <time>2011-10-08T12:44:43Z</time>
      </trkpt>
      <trkpt lat="43.80106" lon="7.24297">
        <ele>693.60046386719</ele>
        <time>2011-10-08T12:44:54Z</time>
      </trkpt>
      <trkpt lat="43.80108" lon="7.24295">
        <ele>692.99377441406</ele>
        <time>2011-10-08T12:45:04Z</time>
      </trkpt>
      <trkpt lat="43.80107" lon="7.24297">
        <ele>693.42694091797</ele>
        <time>2011-10-08T12:45:14Z</time>
      </trkpt>
      <trkpt lat="43.80111" lon="7.243">
        <ele>692.82250976562</ele>
        <time>2011-10-08T12:45:26Z</time>
      </trkpt>
      <trkpt lat="43.80115" lon="7.24302">
        <ele>692.05462646484</ele>
        <time>2011-10-08T12:45:32Z</time>
      </trkpt>
      <trkpt lat="43.80117" lon="7.24302">
        <ele>691.59423828125</ele>
        <time>2011-10-08T12:46:18Z</time>
      </trkpt>
      <trkpt lat="43.80108" lon="7.24297">
        <ele>693.24908447266</ele>
        <time>2011-10-08T12:46:33Z</time>
      </trkpt>
      <trkpt lat="43.80126" lon="7.24302">
        <ele>689.32928466797</ele>
        <time>2011-10-08T12:48:36Z</time>
      </trkpt>
      <trkpt lat="43.8013" lon="7.24302">
        <ele>688.44055175781</ele>
        <time>2011-10-08T12:48:43Z</time>
      </trkpt>
      <trkpt lat="43.80133" lon="7.24301">
        <ele>687.77215576172</ele>
        <time>2011-10-08T12:48:49Z</time>
      </trkpt>
      <trkpt lat="43.80132" lon="7.24301">
        <ele>687.86260986328</ele>
        <time>2011-10-08T12:48:51Z</time>
      </trkpt>
      <trkpt lat="43.80133" lon="7.24301">
        <ele>687.67437744141</ele>
        <time>2011-10-08T12:49:00Z</time>
      </trkpt>
      <trkpt lat="43.80128" lon="7.24301">
        <ele>688.93377685547</ele>
        <time>2011-10-08T12:49:05Z</time>
      </trkpt>
      <trkpt lat="43.80127" lon="7.24303">
        <ele>689.3046875</ele>
        <time>2011-10-08T12:49:08Z</time>
      </trkpt>
      <trkpt lat="43.80127" lon="7.24303">
        <ele>689.25622558594</ele>
        <time>2011-10-08T12:49:09Z</time>
      </trkpt>
      <trkpt lat="43.80128" lon="7.24309">
        <ele>689.99554443359</ele>
        <time>2011-10-08T12:49:21Z</time>
      </trkpt>
      <trkpt lat="43.80132" lon="7.24317">
        <ele>690.28936767578</ele>
        <time>2011-10-08T12:49:24Z</time>
      </trkpt>
      <trkpt lat="43.80132" lon="7.24319">
        <ele>690.55328369141</ele>
        <time>2011-10-08T12:49:25Z</time>
      </trkpt>
      <trkpt lat="43.80132" lon="7.24324">
        <ele>691.36706542969</ele>
        <time>2011-10-08T12:49:30Z</time>
      </trkpt>
      <trkpt lat="43.80135" lon="7.24325">
        <ele>690.9775390625</ele>
        <time>2011-10-08T12:49:32Z</time>
      </trkpt>
      <trkpt lat="43.80141" lon="7.2433">
        <ele>690.65020751953</ele>
        <time>2011-10-08T12:49:34Z</time>
      </trkpt>
      <trkpt lat="43.80142" lon="7.24331">
        <ele>690.76605224609</ele>
        <time>2011-10-08T12:49:37Z</time>
      </trkpt>
      <trkpt lat="43.80142" lon="7.2433">
        <ele>690.66546630859</ele>
        <time>2011-10-08T12:49:41Z</time>
      </trkpt>
      <trkpt lat="43.80143" lon="7.24331">
        <ele>690.49127197266</ele>
        <time>2011-10-08T12:49:51Z</time>
      </trkpt>
      <trkpt lat="43.80147" lon="7.24322">
        <ele>688.23040771484</ele>
        <time>2011-10-08T12:49:54Z</time>
      </trkpt>
      <trkpt lat="43.8015" lon="7.24285">
        <ele>680.55078125</ele>
        <time>2011-10-08T12:49:59Z</time>
      </trkpt>
      <trkpt lat="43.80154" lon="7.24272">
        <ele>677.01379394531</ele>
        <time>2011-10-08T12:50:04Z</time>
      </trkpt>
      <trkpt lat="43.80156" lon="7.24264">
        <ele>674.71081542969</ele>
        <time>2011-10-08T12:50:07Z</time>
      </trkpt>
      <trkpt lat="43.80157" lon="7.24262">
        <ele>673.86993408203</ele>
        <time>2011-10-08T12:50:08Z</time>
      </trkpt>
      <trkpt lat="43.80159" lon="7.24263">
        <ele>673.31610107422</ele>
        <time>2011-10-08T12:50:10Z</time>
      </trkpt>
      <trkpt lat="43.80162" lon="7.24261">
        <ele>671.86041259766</ele>
        <time>2011-10-08T12:50:14Z</time>
      </trkpt>
      <trkpt lat="43.80164" lon="7.2426">
        <ele>671.19360351562</ele>
        <time>2011-10-08T12:50:15Z</time>
      </trkpt>
      <trkpt lat="43.80169" lon="7.24246">
        <ele>667.58666992188</ele>
        <time>2011-10-08T12:50:19Z</time>
      </trkpt>
      <trkpt lat="43.80175" lon="7.24228">
        <ele>665.5703125</ele>
        <time>2011-10-08T12:50:24Z</time>
      </trkpt>
      <trkpt lat="43.80186" lon="7.24217">
        <ele>665.13714599609</ele>
        <time>2011-10-08T12:50:29Z</time>
      </trkpt>
      <trkpt lat="43.80188" lon="7.24213">
        <ele>664.81689453125</ele>
        <time>2011-10-08T12:50:30Z</time>
      </trkpt>
      <trkpt lat="43.80205" lon="7.242">
        <ele>664.33331298828</ele>
        <time>2011-10-08T12:50:36Z</time>
      </trkpt>
      <trkpt lat="43.80206" lon="7.242">
        <ele>664.42681884766</ele>
        <time>2011-10-08T12:50:45Z</time>
      </trkpt>
      <trkpt lat="43.80205" lon="7.24199">
        <ele>664.09033203125</ele>
        <time>2011-10-08T12:50:55Z</time>
      </trkpt>
      <trkpt lat="43.80192" lon="7.24188">
        <ele>660.27813720703</ele>
        <time>2011-10-08T12:51:22Z</time>
      </trkpt>
      <trkpt lat="43.8019" lon="7.24181">
        <ele>658.76629638672</ele>
        <time>2011-10-08T12:51:38Z</time>
      </trkpt>
      <trkpt lat="43.80199" lon="7.24181">
        <ele>659.63928222656</ele>
        <time>2011-10-08T12:51:48Z</time>
      </trkpt>
      <trkpt lat="43.80209" lon="7.2417">
        <ele>658.20721435547</ele>
        <time>2011-10-08T12:51:52Z</time>
      </trkpt>
      <trkpt lat="43.80216" lon="7.24154">
        <ele>655.60150146484</ele>
        <time>2011-10-08T12:51:56Z</time>
      </trkpt>
      <trkpt lat="43.80226" lon="7.2414">
        <ele>653.00360107422</ele>
        <time>2011-10-08T12:52:01Z</time>
      </trkpt>
      <trkpt lat="43.80238" lon="7.24122">
        <ele>649.13482666016</ele>
        <time>2011-10-08T12:52:06Z</time>
      </trkpt>
      <trkpt lat="43.80241" lon="7.24103">
        <ele>644.55926513672</ele>
        <time>2011-10-08T12:52:10Z</time>
      </trkpt>
      <trkpt lat="43.80243" lon="7.24096">
        <ele>642.60485839844</ele>
        <time>2011-10-08T12:52:12Z</time>
      </trkpt>
      <trkpt lat="43.80249" lon="7.24095">
        <ele>642.06207275391</ele>
        <time>2011-10-08T12:52:17Z</time>
      </trkpt>
      <trkpt lat="43.80257" lon="7.24098">
        <ele>646.33270263672</ele>
        <time>2011-10-08T12:52:22Z</time>
      </trkpt>
      <trkpt lat="43.80251" lon="7.24091">
        <ele>641.61267089844</ele>
        <time>2011-10-08T12:52:29Z</time>
      </trkpt>
      <trkpt lat="43.80254" lon="7.2409">
        <ele>642.81768798828</ele>
        <time>2011-10-08T12:52:36Z</time>
      </trkpt>
      <trkpt lat="43.80249" lon="7.24083">
        <ele>638.98901367188</ele>
        <time>2011-10-08T12:52:47Z</time>
      </trkpt>
      <trkpt lat="43.80241" lon="7.24077">
        <ele>638.11749267578</ele>
        <time>2011-10-08T12:52:51Z</time>
      </trkpt>
      <trkpt lat="43.80248" lon="7.24064">
        <ele>634.58917236328</ele>
        <time>2011-10-08T12:52:56Z</time>
      </trkpt>
      <trkpt lat="43.80252" lon="7.24043">
        <ele>630.13647460938</ele>
        <time>2011-10-08T12:53:01Z</time>
      </trkpt>
      <trkpt lat="43.80249" lon="7.2402">
        <ele>623.86499023438</ele>
        <time>2011-10-08T12:53:05Z</time>
      </trkpt>
      <trkpt lat="43.80241" lon="7.23998">
        <ele>619.62005615234</ele>
        <time>2011-10-08T12:53:10Z</time>
      </trkpt>
      <trkpt lat="43.80239" lon="7.23987">
        <ele>616.75695800781</ele>
        <time>2011-10-08T12:53:12Z</time>
      </trkpt>
      <trkpt lat="43.80229" lon="7.23961">
        <ele>611.009765625</ele>
        <time>2011-10-08T12:53:16Z</time>
      </trkpt>
      <trkpt lat="43.8023" lon="7.23958">
        <ele>609.95733642578</ele>
        <time>2011-10-08T12:53:17Z</time>
      </trkpt>
      <trkpt lat="43.80231" lon="7.23943">
        <ele>605.67657470703</ele>
        <time>2011-10-08T12:53:20Z</time>
      </trkpt>
      <trkpt lat="43.8024" lon="7.2392">
        <ele>597.64208984375</ele>
        <time>2011-10-08T12:53:25Z</time>
      </trkpt>
      <trkpt lat="43.80239" lon="7.23915">
        <ele>596.41271972656</ele>
        <time>2011-10-08T12:53:26Z</time>
      </trkpt>
      <trkpt lat="43.8023" lon="7.23908">
        <ele>596.13244628906</ele>
        <time>2011-10-08T12:53:32Z</time>
      </trkpt>
      <trkpt lat="43.80233" lon="7.23914">
        <ele>597.20959472656</ele>
        <time>2011-10-08T12:53:38Z</time>
      </trkpt>
      <trkpt lat="43.80234" lon="7.23916">
        <ele>597.45263671875</ele>
        <time>2011-10-08T12:53:39Z</time>
      </trkpt>
      <trkpt lat="43.80237" lon="7.23917">
        <ele>597.26123046875</ele>
        <time>2011-10-08T12:53:45Z</time>
      </trkpt>
      <trkpt lat="43.80244" lon="7.23915">
        <ele>595.55999755859</ele>
        <time>2011-10-08T12:53:57Z</time>
      </trkpt>
      <trkpt lat="43.80262" lon="7.23913">
        <ele>596.75543212891</ele>
        <time>2011-10-08T12:54:30Z</time>
      </trkpt>
      <trkpt lat="43.80257" lon="7.23912">
        <ele>595.39752197266</ele>
        <time>2011-10-08T12:54:43Z</time>
      </trkpt>
      <trkpt lat="43.80256" lon="7.23909">
        <ele>594.46240234375</ele>
        <time>2011-10-08T12:54:48Z</time>
      </trkpt>
      <trkpt lat="43.80258" lon="7.23912">
        <ele>595.73785400391</ele>
        <time>2011-10-08T12:54:50Z</time>
      </trkpt>
      <trkpt lat="43.80264" lon="7.23913">
        <ele>597.36743164062</ele>
        <time>2011-10-08T12:54:57Z</time>
      </trkpt>
      <trkpt lat="43.80254" lon="7.23904">
        <ele>592.43621826172</ele>
        <time>2011-10-08T12:55:02Z</time>
      </trkpt>
      <trkpt lat="43.80238" lon="7.23899">
        <ele>592.28192138672</ele>
        <time>2011-10-08T12:55:12Z</time>
      </trkpt>
      <trkpt lat="43.80244" lon="7.2389">
        <ele>588.92919921875</ele>
        <time>2011-10-08T12:55:17Z</time>
      </trkpt>
      <trkpt lat="43.80254" lon="7.23875">
        <ele>584.57415771484</ele>
        <time>2011-10-08T12:55:21Z</time>
      </trkpt>
      <trkpt lat="43.80255" lon="7.2387">
        <ele>583.20526123047</ele>
        <time>2011-10-08T12:55:22Z</time>
      </trkpt>
      <trkpt lat="43.8026" lon="7.23847">
        <ele>577.83050537109</ele>
        <time>2011-10-08T12:55:26Z</time>
      </trkpt>
      <trkpt lat="43.80257" lon="7.23825">
        <ele>567.87884521484</ele>
        <time>2011-10-08T12:55:30Z</time>
      </trkpt>
      <trkpt lat="43.80259" lon="7.23823">
        <ele>567.05450439453</ele>
        <time>2011-10-08T12:55:35Z</time>
      </trkpt>
      <trkpt lat="43.8025" lon="7.23815">
        <ele>560.59020996094</ele>
        <time>2011-10-08T12:55:43Z</time>
      </trkpt>
      <trkpt lat="43.80246" lon="7.23816">
        <ele>562.41430664062</ele>
        <time>2011-10-08T12:55:52Z</time>
      </trkpt>
      <trkpt lat="43.80246" lon="7.23819">
        <ele>564.06225585938</ele>
        <time>2011-10-08T12:56:13Z</time>
      </trkpt>
      <trkpt lat="43.80248" lon="7.23825">
        <ele>567.24169921875</ele>
        <time>2011-10-08T12:56:25Z</time>
      </trkpt>
      <trkpt lat="43.80247" lon="7.23826">
        <ele>568.19384765625</ele>
        <time>2011-10-08T12:56:41Z</time>
      </trkpt>
      <trkpt lat="43.80246" lon="7.23821">
        <ele>565.27020263672</ele>
        <time>2011-10-08T12:56:52Z</time>
      </trkpt>
      <trkpt lat="43.80235" lon="7.23807">
        <ele>559.841796875</ele>
        <time>2011-10-08T12:56:57Z</time>
      </trkpt>
      <trkpt lat="43.80233" lon="7.23803">
        <ele>558.57574462891</ele>
        <time>2011-10-08T12:56:58Z</time>
      </trkpt>
      <trkpt lat="43.80227" lon="7.23793">
        <ele>555.23522949219</ele>
        <time>2011-10-08T12:57:03Z</time>
      </trkpt>
      <trkpt lat="43.80224" lon="7.23791">
        <ele>554.90368652344</ele>
        <time>2011-10-08T12:57:11Z</time>
      </trkpt>
      <trkpt lat="43.80223" lon="7.2379">
        <ele>554.94934082031</ele>
        <time>2011-10-08T12:57:19Z</time>
      </trkpt>
      <trkpt lat="43.8022" lon="7.23786">
        <ele>553.59466552734</ele>
        <time>2011-10-08T12:57:25Z</time>
      </trkpt>
      <trkpt lat="43.80218" lon="7.2377">
        <ele>546.25238037109</ele>
        <time>2011-10-08T12:57:29Z</time>
      </trkpt>
      <trkpt lat="43.80217" lon="7.23766">
        <ele>544.08288574219</ele>
        <time>2011-10-08T12:57:32Z</time>
      </trkpt>
      <trkpt lat="43.8022" lon="7.23769">
        <ele>544.69268798828</ele>
        <time>2011-10-08T12:57:39Z</time>
      </trkpt>
      <trkpt lat="43.80221" lon="7.23769">
        <ele>544.24487304688</ele>
        <time>2011-10-08T12:57:48Z</time>
      </trkpt>
      <trkpt lat="43.80222" lon="7.23763">
        <ele>540.68865966797</ele>
        <time>2011-10-08T12:58:18Z</time>
      </trkpt>
      <trkpt lat="43.80223" lon="7.23766">
        <ele>541.76519775391</ele>
        <time>2011-10-08T12:58:25Z</time>
      </trkpt>
      <trkpt lat="43.80226" lon="7.23771">
        <ele>543.07464599609</ele>
        <time>2011-10-08T12:58:34Z</time>
      </trkpt>
      <trkpt lat="43.80226" lon="7.23773">
        <ele>543.86016845703</ele>
        <time>2011-10-08T12:58:48Z</time>
      </trkpt>
      <trkpt lat="43.80224" lon="7.23769">
        <ele>542.99536132812</ele>
        <time>2011-10-08T12:58:51Z</time>
      </trkpt>
      <trkpt lat="43.80219" lon="7.23767">
        <ele>544.19079589844</ele>
        <time>2011-10-08T12:59:05Z</time>
      </trkpt>
      <trkpt lat="43.80219" lon="7.23768">
        <ele>544.64929199219</ele>
        <time>2011-10-08T12:59:17Z</time>
      </trkpt>
      <trkpt lat="43.8022" lon="7.23765">
        <ele>542.63720703125</ele>
        <time>2011-10-08T12:59:29Z</time>
      </trkpt>
      <trkpt lat="43.80228" lon="7.23782">
        <ele>548.072265625</ele>
        <time>2011-10-08T12:59:38Z</time>
      </trkpt>
      <trkpt lat="43.80231" lon="7.23788">
        <ele>550.55712890625</ele>
        <time>2011-10-08T12:59:41Z</time>
      </trkpt>
      <trkpt lat="43.80233" lon="7.23794">
        <ele>552.99200439453</ele>
        <time>2011-10-08T12:59:44Z</time>
      </trkpt>
      <trkpt lat="43.80233" lon="7.23795">
        <ele>553.84741210938</ele>
        <time>2011-10-08T12:59:45Z</time>
      </trkpt>
      <trkpt lat="43.80235" lon="7.23799">
        <ele>555.64123535156</ele>
        <time>2011-10-08T12:59:47Z</time>
      </trkpt>
      <trkpt lat="43.80236" lon="7.23801">
        <ele>556.04754638672</ele>
        <time>2011-10-08T12:59:48Z</time>
      </trkpt>
      <trkpt lat="43.80238" lon="7.23815">
        <ele>563.966796875</ele>
        <time>2011-10-08T12:59:55Z</time>
      </trkpt>
      <trkpt lat="43.8024" lon="7.2383">
        <ele>572.44299316406</ele>
        <time>2011-10-08T13:00:02Z</time>
      </trkpt>
      <trkpt lat="43.80241" lon="7.23837">
        <ele>575.08776855469</ele>
        <time>2011-10-08T13:00:05Z</time>
      </trkpt>
      <trkpt lat="43.80242" lon="7.23839">
        <ele>575.57373046875</ele>
        <time>2011-10-08T13:00:06Z</time>
      </trkpt>
      <trkpt lat="43.80246" lon="7.2385">
        <ele>577.61596679688</ele>
        <time>2011-10-08T13:00:11Z</time>
      </trkpt>
      <trkpt lat="43.80251" lon="7.23861">
        <ele>579.75579833984</ele>
        <time>2011-10-08T13:00:15Z</time>
      </trkpt>
      <trkpt lat="43.80255" lon="7.23873">
        <ele>584.06982421875</ele>
        <time>2011-10-08T13:00:21Z</time>
      </trkpt>
      <trkpt lat="43.80262" lon="7.23881">
        <ele>587.77801513672</ele>
        <time>2011-10-08T13:00:30Z</time>
      </trkpt>
      <trkpt lat="43.80273" lon="7.23891">
        <ele>593.36340332031</ele>
        <time>2011-10-08T13:00:35Z</time>
      </trkpt>
      <trkpt lat="43.80273" lon="7.23897">
        <ele>594.89935302734</ele>
        <time>2011-10-08T13:00:40Z</time>
      </trkpt>
      <trkpt lat="43.80279" lon="7.23902">
        <ele>597.98028564453</ele>
        <time>2011-10-08T13:00:46Z</time>
      </trkpt>
      <trkpt lat="43.80299" lon="7.23902">
        <ele>603.017578125</ele>
        <time>2011-10-08T13:00:55Z</time>
      </trkpt>
      <trkpt lat="43.8031" lon="7.23898">
        <ele>604.26885986328</ele>
        <time>2011-10-08T13:01:02Z</time>
      </trkpt>
      <trkpt lat="43.80323" lon="7.23885">
        <ele>603.48474121094</ele>
        <time>2011-10-08T13:01:13Z</time>
      </trkpt>
      <trkpt lat="43.80336" lon="7.23878">
        <ele>604.37347412109</ele>
        <time>2011-10-08T13:01:20Z</time>
      </trkpt>
      <trkpt lat="43.80338" lon="7.23877">
        <ele>604.42443847656</ele>
        <time>2011-10-08T13:01:21Z</time>
      </trkpt>
      <trkpt lat="43.80342" lon="7.23874">
        <ele>604.43237304688</ele>
        <time>2011-10-08T13:01:24Z</time>
      </trkpt>
      <trkpt lat="43.80344" lon="7.23873">
        <ele>604.58795166016</ele>
        <time>2011-10-08T13:01:25Z</time>
      </trkpt>
      <trkpt lat="43.80356" lon="7.23864">
        <ele>604.77197265625</ele>
        <time>2011-10-08T13:01:31Z</time>
      </trkpt>
      <trkpt lat="43.80363" lon="7.23851">
        <ele>602.13415527344</ele>
        <time>2011-10-08T13:01:37Z</time>
      </trkpt>
      <trkpt lat="43.80371" lon="7.23842">
        <ele>600.95245361328</ele>
        <time>2011-10-08T13:01:43Z</time>
      </trkpt>
      <trkpt lat="43.80372" lon="7.23841">
        <ele>600.66009521484</ele>
        <time>2011-10-08T13:01:47Z</time>
      </trkpt>
      <trkpt lat="43.80376" lon="7.23837">
        <ele>599.91107177734</ele>
        <time>2011-10-08T13:01:55Z</time>
      </trkpt>
      <trkpt lat="43.80379" lon="7.23833">
        <ele>599.02758789062</ele>
        <time>2011-10-08T13:02:02Z</time>
      </trkpt>
      <trkpt lat="43.80381" lon="7.23831">
        <ele>598.30407714844</ele>
        <time>2011-10-08T13:02:05Z</time>
      </trkpt>
      <trkpt lat="43.80383" lon="7.23827">
        <ele>596.67877197266</ele>
        <time>2011-10-08T13:02:12Z</time>
      </trkpt>
      <trkpt lat="43.80381" lon="7.23826">
        <ele>595.46484375</ele>
        <time>2011-10-08T13:02:18Z</time>
      </trkpt>
      <trkpt lat="43.80381" lon="7.23823">
        <ele>593.70056152344</ele>
        <time>2011-10-08T13:02:24Z</time>
      </trkpt>
      <trkpt lat="43.80385" lon="7.23819">
        <ele>592.4248046875</ele>
        <time>2011-10-08T13:02:30Z</time>
      </trkpt>
      <trkpt lat="43.80386" lon="7.23811">
        <ele>587.99945068359</ele>
        <time>2011-10-08T13:02:35Z</time>
      </trkpt>
      <trkpt lat="43.80387" lon="7.23807">
        <ele>586.52215576172</ele>
        <time>2011-10-08T13:02:39Z</time>
      </trkpt>
      <trkpt lat="43.80394" lon="7.23802">
        <ele>585.61193847656</ele>
        <time>2011-10-08T13:02:48Z</time>
      </trkpt>
      <trkpt lat="43.80397" lon="7.23797">
        <ele>583.86877441406</ele>
        <time>2011-10-08T13:02:55Z</time>
      </trkpt>
      <trkpt lat="43.80398" lon="7.23792">
        <ele>581.45355224609</ele>
        <time>2011-10-08T13:03:01Z</time>
      </trkpt>
      <trkpt lat="43.80401" lon="7.23792">
        <ele>582.47192382812</ele>
        <time>2011-10-08T13:03:07Z</time>
      </trkpt>
      <trkpt lat="43.80404" lon="7.23794">
        <ele>584.65942382812</ele>
        <time>2011-10-08T13:03:14Z</time>
      </trkpt>
      <trkpt lat="43.80406" lon="7.2379">
        <ele>583.27111816406</ele>
        <time>2011-10-08T13:03:20Z</time>
      </trkpt>
      <trkpt lat="43.8041" lon="7.23787">
        <ele>583.48870849609</ele>
        <time>2011-10-08T13:03:27Z</time>
      </trkpt>
      <trkpt lat="43.80412" lon="7.23788">
        <ele>584.83776855469</ele>
        <time>2011-10-08T13:03:32Z</time>
      </trkpt>
      <trkpt lat="43.80414" lon="7.2379">
        <ele>586.38201904297</ele>
        <time>2011-10-08T13:03:45Z</time>
      </trkpt>
      <trkpt lat="43.80419" lon="7.23792">
        <ele>588.30786132812</ele>
        <time>2011-10-08T13:04:30Z</time>
      </trkpt>
      <trkpt lat="43.80421" lon="7.23788">
        <ele>586.51348876953</ele>
        <time>2011-10-08T13:04:35Z</time>
      </trkpt>
      <trkpt lat="43.80424" lon="7.23784">
        <ele>584.61981201172</ele>
        <time>2011-10-08T13:04:41Z</time>
      </trkpt>
      <trkpt lat="43.80422" lon="7.23779">
        <ele>582.20349121094</ele>
        <time>2011-10-08T13:04:51Z</time>
      </trkpt>
      <trkpt lat="43.80422" lon="7.23774">
        <ele>579.87176513672</ele>
        <time>2011-10-08T13:04:57Z</time>
      </trkpt>
      <trkpt lat="43.80428" lon="7.2377">
        <ele>578.30120849609</ele>
        <time>2011-10-08T13:05:04Z</time>
      </trkpt>
      <trkpt lat="43.80427" lon="7.23768">
        <ele>576.97845458984</ele>
        <time>2011-10-08T13:05:09Z</time>
      </trkpt>
      <trkpt lat="43.80425" lon="7.23763">
        <ele>574.75573730469</ele>
        <time>2011-10-08T13:05:26Z</time>
      </trkpt>
      <trkpt lat="43.8043" lon="7.23767">
        <ele>576.97479248047</ele>
        <time>2011-10-08T13:06:22Z</time>
      </trkpt>
      <trkpt lat="43.80435" lon="7.23767">
        <ele>577.27844238281</ele>
        <time>2011-10-08T13:06:36Z</time>
      </trkpt>
      <trkpt lat="43.80441" lon="7.23769">
        <ele>578.42572021484</ele>
        <time>2011-10-08T13:06:42Z</time>
      </trkpt>
      <trkpt lat="43.80448" lon="7.23768">
        <ele>578.22027587891</ele>
        <time>2011-10-08T13:06:50Z</time>
      </trkpt>
      <trkpt lat="43.8045" lon="7.23767">
        <ele>578.06195068359</ele>
        <time>2011-10-08T13:06:51Z</time>
      </trkpt>
      <trkpt lat="43.80455" lon="7.23765">
        <ele>577.52978515625</ele>
        <time>2011-10-08T13:06:58Z</time>
      </trkpt>
      <trkpt lat="43.80458" lon="7.23765">
        <ele>577.81231689453</ele>
        <time>2011-10-08T13:07:07Z</time>
      </trkpt>
      <trkpt lat="43.80464" lon="7.23763">
        <ele>577.42150878906</ele>
        <time>2011-10-08T13:07:14Z</time>
      </trkpt>
      <trkpt lat="43.80469" lon="7.23764">
        <ele>578.08782958984</ele>
        <time>2011-10-08T13:07:22Z</time>
      </trkpt>
      <trkpt lat="43.80469" lon="7.23765">
        <ele>578.18688964844</ele>
        <time>2011-10-08T13:07:24Z</time>
      </trkpt>
      <trkpt lat="43.80469" lon="7.23764">
        <ele>577.90301513672</ele>
        <time>2011-10-08T13:07:30Z</time>
      </trkpt>
      <trkpt lat="43.80471" lon="7.23763">
        <ele>577.70751953125</ele>
        <time>2011-10-08T13:07:38Z</time>
      </trkpt>
      <trkpt lat="43.80472" lon="7.23762">
        <ele>577.15124511719</ele>
        <time>2011-10-08T13:07:46Z</time>
      </trkpt>
      <trkpt lat="43.80474" lon="7.23762">
        <ele>577.65423583984</ele>
        <time>2011-10-08T13:07:49Z</time>
      </trkpt>
      <trkpt lat="43.80478" lon="7.23763">
        <ele>578.1005859375</ele>
        <time>2011-10-08T13:07:53Z</time>
      </trkpt>
      <trkpt lat="43.80479" lon="7.23763">
        <ele>578.32446289062</ele>
        <time>2011-10-08T13:07:58Z</time>
      </trkpt>
      <trkpt lat="43.80481" lon="7.23764">
        <ele>578.84808349609</ele>
        <time>2011-10-08T13:08:01Z</time>
      </trkpt>
      <trkpt lat="43.80481" lon="7.23765">
        <ele>578.99761962891</ele>
        <time>2011-10-08T13:08:07Z</time>
      </trkpt>
      <trkpt lat="43.80482" lon="7.23766">
        <ele>579.59167480469</ele>
        <time>2011-10-08T13:08:11Z</time>
      </trkpt>
      <trkpt lat="43.80483" lon="7.23767">
        <ele>579.79284667969</ele>
        <time>2011-10-08T13:08:12Z</time>
      </trkpt>
      <trkpt lat="43.80488" lon="7.23769">
        <ele>581.11224365234</ele>
        <time>2011-10-08T13:08:20Z</time>
      </trkpt>
      <trkpt lat="43.80484" lon="7.23764">
        <ele>578.98101806641</ele>
        <time>2011-10-08T13:08:26Z</time>
      </trkpt>
      <trkpt lat="43.80482" lon="7.23766">
        <ele>579.34936523438</ele>
        <time>2011-10-08T13:08:32Z</time>
      </trkpt>
      <trkpt lat="43.80486" lon="7.23769">
        <ele>580.74896240234</ele>
        <time>2011-10-08T13:08:40Z</time>
      </trkpt>
      <trkpt lat="43.80489" lon="7.23772">
        <ele>581.97479248047</ele>
        <time>2011-10-08T13:08:43Z</time>
      </trkpt>
      <trkpt lat="43.8049" lon="7.23772">
        <ele>582.06488037109</ele>
        <time>2011-10-08T13:08:49Z</time>
      </trkpt>
      <trkpt lat="43.8049" lon="7.23772">
        <ele>582.20379638672</ele>
        <time>2011-10-08T13:08:50Z</time>
      </trkpt>
      <trkpt lat="43.80497" lon="7.2378">
        <ele>585.35089111328</ele>
        <time>2011-10-08T13:08:57Z</time>
      </trkpt>
      <trkpt lat="43.80503" lon="7.23784">
        <ele>585.73999023438</ele>
        <time>2011-10-08T13:09:04Z</time>
      </trkpt>
      <trkpt lat="43.80508" lon="7.23786">
        <ele>584.16741943359</ele>
        <time>2011-10-08T13:09:10Z</time>
      </trkpt>
      <trkpt lat="43.80505" lon="7.23788">
        <ele>585.92761230469</ele>
        <time>2011-10-08T13:09:16Z</time>
      </trkpt>
      <trkpt lat="43.80504" lon="7.23791">
        <ele>587.39709472656</ele>
        <time>2011-10-08T13:09:22Z</time>
      </trkpt>
      <trkpt lat="43.805" lon="7.23793">
        <ele>589.72399902344</ele>
        <time>2011-10-08T13:09:28Z</time>
      </trkpt>
      <trkpt lat="43.80497" lon="7.23796">
        <ele>590.96948242188</ele>
        <time>2011-10-08T13:09:34Z</time>
      </trkpt>
      <trkpt lat="43.80493" lon="7.23802">
        <ele>593.2021484375</ele>
        <time>2011-10-08T13:09:42Z</time>
      </trkpt>
      <trkpt lat="43.80493" lon="7.23801">
        <ele>592.87652587891</ele>
        <time>2011-10-08T13:09:51Z</time>
      </trkpt>
      <trkpt lat="43.80494" lon="7.23805">
        <ele>594.17663574219</ele>
        <time>2011-10-08T13:09:55Z</time>
      </trkpt>
      <trkpt lat="43.80494" lon="7.2382">
        <ele>599.62182617188</ele>
        <time>2011-10-08T13:10:02Z</time>
      </trkpt>
      <trkpt lat="43.80495" lon="7.23828">
        <ele>602.28161621094</ele>
        <time>2011-10-08T13:10:06Z</time>
      </trkpt>
      <trkpt lat="43.80496" lon="7.23837">
        <ele>605.04772949219</ele>
        <time>2011-10-08T13:10:10Z</time>
      </trkpt>
      <trkpt lat="43.80501" lon="7.23853">
        <ele>607.77734375</ele>
        <time>2011-10-08T13:10:15Z</time>
      </trkpt>
      <trkpt lat="43.80504" lon="7.23865">
        <ele>609.00396728516</ele>
        <time>2011-10-08T13:10:19Z</time>
      </trkpt>
      <trkpt lat="43.80506" lon="7.23872">
        <ele>609.93823242188</ele>
        <time>2011-10-08T13:10:25Z</time>
      </trkpt>
      <trkpt lat="43.80507" lon="7.23878">
        <ele>610.85998535156</ele>
        <time>2011-10-08T13:10:31Z</time>
      </trkpt>
      <trkpt lat="43.80511" lon="7.23886">
        <ele>611.27386474609</ele>
        <time>2011-10-08T13:10:38Z</time>
      </trkpt>
      <trkpt lat="43.80511" lon="7.23892">
        <ele>612.48687744141</ele>
        <time>2011-10-08T13:10:44Z</time>
      </trkpt>
      <trkpt lat="43.80511" lon="7.23895">
        <ele>613.08880615234</ele>
        <time>2011-10-08T13:10:48Z</time>
      </trkpt>
      <trkpt lat="43.80511" lon="7.23898">
        <ele>613.58221435547</ele>
        <time>2011-10-08T13:10:51Z</time>
      </trkpt>
      <trkpt lat="43.80512" lon="7.239">
        <ele>613.85827636719</ele>
        <time>2011-10-08T13:10:53Z</time>
      </trkpt>
      <trkpt lat="43.80514" lon="7.23904">
        <ele>614.0166015625</ele>
        <time>2011-10-08T13:10:56Z</time>
      </trkpt>
      <trkpt lat="43.80515" lon="7.23905">
        <ele>613.86767578125</ele>
        <time>2011-10-08T13:10:57Z</time>
      </trkpt>
      <trkpt lat="43.80511" lon="7.23909">
        <ele>616.068359375</ele>
        <time>2011-10-08T13:11:05Z</time>
      </trkpt>
      <trkpt lat="43.80508" lon="7.23909">
        <ele>617.17303466797</ele>
        <time>2011-10-08T13:11:17Z</time>
      </trkpt>
      <trkpt lat="43.80506" lon="7.23909">
        <ele>617.46905517578</ele>
        <time>2011-10-08T13:11:24Z</time>
      </trkpt>
      <trkpt lat="43.80502" lon="7.23909">
        <ele>618.71948242188</ele>
        <time>2011-10-08T13:11:41Z</time>
      </trkpt>
      <trkpt lat="43.80515" lon="7.23917">
        <ele>616.54864501953</ele>
        <time>2011-10-08T13:12:09Z</time>
      </trkpt>
      <trkpt lat="43.80512" lon="7.23915">
        <ele>616.90753173828</ele>
        <time>2011-10-08T13:12:16Z</time>
      </trkpt>
      <trkpt lat="43.8051" lon="7.23913">
        <ele>617.1767578125</ele>
        <time>2011-10-08T13:12:43Z</time>
      </trkpt>
      <trkpt lat="43.8051" lon="7.23914">
        <ele>617.56182861328</ele>
        <time>2011-10-08T13:12:44Z</time>
      </trkpt>
      <trkpt lat="43.80509" lon="7.23915">
        <ele>617.95629882812</ele>
        <time>2011-10-08T13:12:45Z</time>
      </trkpt>
      <trkpt lat="43.80513" lon="7.23929">
        <ele>619.50085449219</ele>
        <time>2011-10-08T13:12:50Z</time>
      </trkpt>
      <trkpt lat="43.80519" lon="7.23945">
        <ele>621.041015625</ele>
        <time>2011-10-08T13:12:56Z</time>
      </trkpt>
      <trkpt lat="43.80522" lon="7.23949">
        <ele>621.27459716797</ele>
        <time>2011-10-08T13:13:00Z</time>
      </trkpt>
      <trkpt lat="43.80524" lon="7.23949">
        <ele>620.72283935547</ele>
        <time>2011-10-08T13:13:13Z</time>
      </trkpt>
      <trkpt lat="43.80526" lon="7.23951">
        <ele>620.57183837891</ele>
        <time>2011-10-08T13:13:23Z</time>
      </trkpt>
      <trkpt lat="43.80523" lon="7.23956">
        <ele>622.35650634766</ele>
        <time>2011-10-08T13:13:32Z</time>
      </trkpt>
      <trkpt lat="43.8052" lon="7.23953">
        <ele>622.48895263672</ele>
        <time>2011-10-08T13:13:40Z</time>
      </trkpt>
      <trkpt lat="43.80521" lon="7.23954">
        <ele>622.40216064453</ele>
        <time>2011-10-08T13:13:48Z</time>
      </trkpt>
      <trkpt lat="43.80522" lon="7.23957">
        <ele>622.90307617188</ele>
        <time>2011-10-08T13:13:57Z</time>
      </trkpt>
      <trkpt lat="43.80523" lon="7.23961">
        <ele>623.62829589844</ele>
        <time>2011-10-08T13:14:00Z</time>
      </trkpt>
      <trkpt lat="43.80525" lon="7.23974">
        <ele>625.77752685547</ele>
        <time>2011-10-08T13:14:05Z</time>
      </trkpt>
      <trkpt lat="43.80526" lon="7.23974">
        <ele>625.68853759766</ele>
        <time>2011-10-08T13:14:06Z</time>
      </trkpt>
      <trkpt lat="43.80531" lon="7.23975">
        <ele>624.49884033203</ele>
        <time>2011-10-08T13:14:14Z</time>
      </trkpt>
      <trkpt lat="43.80532" lon="7.23991">
        <ele>627.70825195312</ele>
        <time>2011-10-08T13:14:19Z</time>
      </trkpt>
      <trkpt lat="43.80537" lon="7.24019">
        <ele>632.55798339844</ele>
        <time>2011-10-08T13:14:24Z</time>
      </trkpt>
      <trkpt lat="43.8054" lon="7.24031">
        <ele>634.67474365234</ele>
        <time>2011-10-08T13:14:27Z</time>
      </trkpt>
      <trkpt lat="43.80557" lon="7.24036">
        <ele>632.59130859375</ele>
        <time>2011-10-08T13:14:31Z</time>
      </trkpt>
      <trkpt lat="43.80567" lon="7.2403">
        <ele>629.39013671875</ele>
        <time>2011-10-08T13:14:34Z</time>
      </trkpt>
      <trkpt lat="43.80573" lon="7.24029">
        <ele>628.15673828125</ele>
        <time>2011-10-08T13:14:35Z</time>
      </trkpt>
      <trkpt lat="43.80576" lon="7.24027">
        <ele>626.89477539062</ele>
        <time>2011-10-08T13:14:36Z</time>
      </trkpt>
      <trkpt lat="43.8058" lon="7.24026">
        <ele>625.87780761719</ele>
        <time>2011-10-08T13:14:38Z</time>
      </trkpt>
      <trkpt lat="43.8058" lon="7.2403">
        <ele>626.75927734375</ele>
        <time>2011-10-08T13:14:42Z</time>
      </trkpt>
      <trkpt lat="43.80582" lon="7.24026">
        <ele>625.54718017578</ele>
        <time>2011-10-08T13:15:11Z</time>
      </trkpt>
      <trkpt lat="43.80595" lon="7.24008">
        <ele>623.591796875</ele>
        <time>2011-10-08T13:15:16Z</time>
      </trkpt>
      <trkpt lat="43.80607" lon="7.24001">
        <ele>624.68597412109</ele>
        <time>2011-10-08T13:15:20Z</time>
      </trkpt>
      <trkpt lat="43.80624" lon="7.23979">
        <ele>622.59979248047</ele>
        <time>2011-10-08T13:15:24Z</time>
      </trkpt>
      <trkpt lat="43.8064" lon="7.23962">
        <ele>620.76672363281</ele>
        <time>2011-10-08T13:15:28Z</time>
      </trkpt>
      <trkpt lat="43.80656" lon="7.23953">
        <ele>621.11633300781</ele>
        <time>2011-10-08T13:15:32Z</time>
      </trkpt>
      <trkpt lat="43.80656" lon="7.23949">
        <ele>620.03503417969</ele>
        <time>2011-10-08T13:15:41Z</time>
      </trkpt>
      <trkpt lat="43.8066" lon="7.23947">
        <ele>619.80511474609</ele>
        <time>2011-10-08T13:15:50Z</time>
      </trkpt>
      <trkpt lat="43.80658" lon="7.23947">
        <ele>619.26245117188</ele>
        <time>2011-10-08T13:15:55Z</time>
      </trkpt>
      <trkpt lat="43.80655" lon="7.23941">
        <ele>616.65179443359</ele>
        <time>2011-10-08T13:16:08Z</time>
      </trkpt>
      <trkpt lat="43.80653" lon="7.23939">
        <ele>615.689453125</ele>
        <time>2011-10-08T13:16:15Z</time>
      </trkpt>
      <trkpt lat="43.80652" lon="7.23938">
        <ele>614.86584472656</ele>
        <time>2011-10-08T13:16:29Z</time>
      </trkpt>
      <trkpt lat="43.80652" lon="7.23938">
        <ele>614.94995117188</ele>
        <time>2011-10-08T13:16:41Z</time>
      </trkpt>
      <trkpt lat="43.80653" lon="7.23943">
        <ele>617.12585449219</ele>
        <time>2011-10-08T13:16:46Z</time>
      </trkpt>
      <trkpt lat="43.80652" lon="7.23945">
        <ele>617.43353271484</ele>
        <time>2011-10-08T13:16:57Z</time>
      </trkpt>
      <trkpt lat="43.80651" lon="7.23944">
        <ele>617.05499267578</ele>
        <time>2011-10-08T13:17:13Z</time>
      </trkpt>
      <trkpt lat="43.80644" lon="7.23941">
        <ele>614.66979980469</ele>
        <time>2011-10-08T13:19:25Z</time>
      </trkpt>
      <trkpt lat="43.80644" lon="7.23939">
        <ele>613.92407226562</ele>
        <time>2011-10-08T13:19:29Z</time>
      </trkpt>
      <trkpt lat="43.8065" lon="7.23945">
        <ele>616.94952392578</ele>
        <time>2011-10-08T13:19:36Z</time>
      </trkpt>
      <trkpt lat="43.80653" lon="7.23945">
        <ele>617.59576416016</ele>
        <time>2011-10-08T13:19:43Z</time>
      </trkpt>
      <trkpt lat="43.80655" lon="7.23947">
        <ele>618.80120849609</ele>
        <time>2011-10-08T13:19:56Z</time>
      </trkpt>
      <trkpt lat="43.80656" lon="7.23943">
        <ele>617.72503662109</ele>
        <time>2011-10-08T13:20:14Z</time>
      </trkpt>
      <trkpt lat="43.80666" lon="7.2393">
        <ele>614.82250976562</ele>
        <time>2011-10-08T13:20:20Z</time>
      </trkpt>
      <trkpt lat="43.8067" lon="7.23928">
        <ele>614.79162597656</ele>
        <time>2011-10-08T13:20:23Z</time>
      </trkpt>
      <trkpt lat="43.80669" lon="7.23927">
        <ele>614.31951904297</ele>
        <time>2011-10-08T13:20:27Z</time>
      </trkpt>
      <trkpt lat="43.80669" lon="7.23926">
        <ele>614.14135742188</ele>
        <time>2011-10-08T13:20:28Z</time>
      </trkpt>
      <trkpt lat="43.80669" lon="7.23925">
        <ele>613.74096679688</ele>
        <time>2011-10-08T13:20:31Z</time>
      </trkpt>
      <trkpt lat="43.80665" lon="7.23917">
        <ele>609.89855957031</ele>
        <time>2011-10-08T13:20:34Z</time>
      </trkpt>
      <trkpt lat="43.80667" lon="7.23898">
        <ele>603.99798583984</ele>
        <time>2011-10-08T13:20:38Z</time>
      </trkpt>
      <trkpt lat="43.8067" lon="7.23892">
        <ele>602.57934570312</ele>
        <time>2011-10-08T13:20:41Z</time>
      </trkpt>
      <trkpt lat="43.80677" lon="7.23887">
        <ele>602.16290283203</ele>
        <time>2011-10-08T13:20:43Z</time>
      </trkpt>
      <trkpt lat="43.80682" lon="7.23882">
        <ele>601.37768554688</ele>
        <time>2011-10-08T13:20:45Z</time>
      </trkpt>
      <trkpt lat="43.8069" lon="7.23885">
        <ele>603.84301757812</ele>
        <time>2011-10-08T13:20:49Z</time>
      </trkpt>
      <trkpt lat="43.8069" lon="7.23885">
        <ele>603.77679443359</ele>
        <time>2011-10-08T13:20:52Z</time>
      </trkpt>
      <trkpt lat="43.80688" lon="7.23885">
        <ele>603.53033447266</ele>
        <time>2011-10-08T13:20:56Z</time>
      </trkpt>
      <trkpt lat="43.80692" lon="7.23885">
        <ele>604.18872070312</ele>
        <time>2011-10-08T13:21:00Z</time>
      </trkpt>
      <trkpt lat="43.80693" lon="7.23886">
        <ele>604.60247802734</ele>
        <time>2011-10-08T13:21:04Z</time>
      </trkpt>
      <trkpt lat="43.80704" lon="7.23886">
        <ele>606.75506591797</ele>
        <time>2011-10-08T13:21:09Z</time>
      </trkpt>
      <trkpt lat="43.80719" lon="7.23885">
        <ele>608.82073974609</ele>
        <time>2011-10-08T13:21:12Z</time>
      </trkpt>
      <trkpt lat="43.80737" lon="7.23883">
        <ele>611.12738037109</ele>
        <time>2011-10-08T13:21:16Z</time>
      </trkpt>
      <trkpt lat="43.80738" lon="7.23882">
        <ele>610.73956298828</ele>
        <time>2011-10-08T13:21:21Z</time>
      </trkpt>
      <trkpt lat="43.80738" lon="7.23879">
        <ele>609.77227783203</ele>
        <time>2011-10-08T13:21:33Z</time>
      </trkpt>
      <trkpt lat="43.80759" lon="7.23879">
        <ele>612.28851318359</ele>
        <time>2011-10-08T13:21:39Z</time>
      </trkpt>
      <trkpt lat="43.80768" lon="7.23877">
        <ele>612.56774902344</ele>
        <time>2011-10-08T13:21:41Z</time>
      </trkpt>
      <trkpt lat="43.80776" lon="7.23862">
        <ele>606.82647705078</ele>
        <time>2011-10-08T13:21:46Z</time>
      </trkpt>
      <trkpt lat="43.80776" lon="7.2385">
        <ele>601.77185058594</ele>
        <time>2011-10-08T13:21:49Z</time>
      </trkpt>
      <trkpt lat="43.80779" lon="7.23847">
        <ele>600.67376708984</ele>
        <time>2011-10-08T13:21:50Z</time>
      </trkpt>
      <trkpt lat="43.80778" lon="7.23831">
        <ele>594.07342529297</ele>
        <time>2011-10-08T13:21:53Z</time>
      </trkpt>
      <trkpt lat="43.80775" lon="7.23827">
        <ele>592.60241699219</ele>
        <time>2011-10-08T13:21:54Z</time>
      </trkpt>
      <trkpt lat="43.80769" lon="7.2382">
        <ele>589.31103515625</ele>
        <time>2011-10-08T13:21:56Z</time>
      </trkpt>
      <trkpt lat="43.80766" lon="7.23811">
        <ele>585.70208740234</ele>
        <time>2011-10-08T13:21:58Z</time>
      </trkpt>
      <trkpt lat="43.80769" lon="7.23809">
        <ele>585.35650634766</ele>
        <time>2011-10-08T13:21:59Z</time>
      </trkpt>
      <trkpt lat="43.80768" lon="7.23794">
        <ele>579.59228515625</ele>
        <time>2011-10-08T13:22:04Z</time>
      </trkpt>
      <trkpt lat="43.80768" lon="7.23788">
        <ele>577.34155273438</ele>
        <time>2011-10-08T13:22:07Z</time>
      </trkpt>
      <trkpt lat="43.80768" lon="7.23788">
        <ele>577.50537109375</ele>
        <time>2011-10-08T13:22:08Z</time>
      </trkpt>
      <trkpt lat="43.80768" lon="7.23788">
        <ele>577.52307128906</ele>
        <time>2011-10-08T13:22:09Z</time>
      </trkpt>
      <trkpt lat="43.80767" lon="7.23787">
        <ele>577.05358886719</ele>
        <time>2011-10-08T13:22:17Z</time>
      </trkpt>
      <trkpt lat="43.80767" lon="7.23787">
        <ele>576.94732666016</ele>
        <time>2011-10-08T13:22:18Z</time>
      </trkpt>
      <trkpt lat="43.80762" lon="7.23783">
        <ele>575.04150390625</ele>
        <time>2011-10-08T13:22:36Z</time>
      </trkpt>
      <trkpt lat="43.80762" lon="7.23778">
        <ele>572.92987060547</ele>
        <time>2011-10-08T13:22:40Z</time>
      </trkpt>
      <trkpt lat="43.80767" lon="7.23769">
        <ele>570.37469482422</ele>
        <time>2011-10-08T13:22:43Z</time>
      </trkpt>
      <trkpt lat="43.8077" lon="7.23762">
        <ele>567.99053955078</ele>
        <time>2011-10-08T13:22:45Z</time>
      </trkpt>
      <trkpt lat="43.80775" lon="7.23751">
        <ele>564.56274414062</ele>
        <time>2011-10-08T13:22:47Z</time>
      </trkpt>
      <trkpt lat="43.80783" lon="7.23736">
        <ele>560.74578857422</ele>
        <time>2011-10-08T13:22:50Z</time>
      </trkpt>
      <trkpt lat="43.80793" lon="7.23728">
        <ele>559.47326660156</ele>
        <time>2011-10-08T13:22:52Z</time>
      </trkpt>
      <trkpt lat="43.80823" lon="7.23718">
        <ele>561.10162353516</ele>
        <time>2011-10-08T13:22:57Z</time>
      </trkpt>
      <trkpt lat="43.8084" lon="7.23704">
        <ele>559.22930908203</ele>
        <time>2011-10-08T13:23:00Z</time>
      </trkpt>
      <trkpt lat="43.80852" lon="7.23682">
        <ele>553.81945800781</ele>
        <time>2011-10-08T13:23:03Z</time>
      </trkpt>
      <trkpt lat="43.80858" lon="7.23663">
        <ele>549.20251464844</ele>
        <time>2011-10-08T13:23:06Z</time>
      </trkpt>
      <trkpt lat="43.80861" lon="7.23651">
        <ele>546.24645996094</ele>
        <time>2011-10-08T13:23:08Z</time>
      </trkpt>
      <trkpt lat="43.80865" lon="7.23631">
        <ele>541.78442382812</ele>
        <time>2011-10-08T13:23:11Z</time>
      </trkpt>
      <trkpt lat="43.80867" lon="7.23626">
        <ele>540.43859863281</ele>
        <time>2011-10-08T13:23:12Z</time>
      </trkpt>
      <trkpt lat="43.80868" lon="7.23621">
        <ele>539.40118408203</ele>
        <time>2011-10-08T13:23:13Z</time>
      </trkpt>
      <trkpt lat="43.80878" lon="7.23603">
        <ele>535.75225830078</ele>
        <time>2011-10-08T13:23:17Z</time>
      </trkpt>
      <trkpt lat="43.80889" lon="7.2359">
        <ele>533.44909667969</ele>
        <time>2011-10-08T13:23:20Z</time>
      </trkpt>
      <trkpt lat="43.809" lon="7.23553">
        <ele>523.61431884766</ele>
        <time>2011-10-08T13:23:25Z</time>
      </trkpt>
      <trkpt lat="43.80899" lon="7.23549">
        <ele>522.44573974609</ele>
        <time>2011-10-08T13:23:28Z</time>
      </trkpt>
      <trkpt lat="43.80897" lon="7.23548">
        <ele>521.86932373047</ele>
        <time>2011-10-08T13:23:29Z</time>
      </trkpt>
      <trkpt lat="43.80894" lon="7.23549">
        <ele>522.00842285156</ele>
        <time>2011-10-08T13:23:31Z</time>
      </trkpt>
      <trkpt lat="43.8089" lon="7.2356">
        <ele>524.83471679688</ele>
        <time>2011-10-08T13:23:36Z</time>
      </trkpt>
      <trkpt lat="43.8089" lon="7.23562">
        <ele>525.50036621094</ele>
        <time>2011-10-08T13:23:38Z</time>
      </trkpt>
      <trkpt lat="43.80886" lon="7.23569">
        <ele>527.31848144531</ele>
        <time>2011-10-08T13:23:45Z</time>
      </trkpt>
      <trkpt lat="43.80883" lon="7.23576">
        <ele>529.15850830078</ele>
        <time>2011-10-08T13:23:51Z</time>
      </trkpt>
      <trkpt lat="43.80881" lon="7.23582">
        <ele>530.67755126953</ele>
        <time>2011-10-08T13:23:55Z</time>
      </trkpt>
      <trkpt lat="43.80878" lon="7.23588">
        <ele>532.05120849609</ele>
        <time>2011-10-08T13:24:01Z</time>
      </trkpt>
      <trkpt lat="43.80876" lon="7.23593">
        <ele>533.02453613281</ele>
        <time>2011-10-08T13:24:07Z</time>
      </trkpt>
      <trkpt lat="43.80875" lon="7.23593">
        <ele>532.88433837891</ele>
        <time>2011-10-08T13:24:12Z</time>
      </trkpt>
      <trkpt lat="43.80878" lon="7.23594">
        <ele>533.34100341797</ele>
        <time>2011-10-08T13:24:14Z</time>
      </trkpt>
      <trkpt lat="43.80879" lon="7.23595">
        <ele>533.85766601562</ele>
        <time>2011-10-08T13:24:19Z</time>
      </trkpt>
      <trkpt lat="43.80883" lon="7.23607">
        <ele>537.21423339844</ele>
        <time>2011-10-08T13:24:31Z</time>
      </trkpt>
      <trkpt lat="43.80885" lon="7.23612">
        <ele>538.55603027344</ele>
        <time>2011-10-08T13:24:41Z</time>
      </trkpt>
      <trkpt lat="43.80885" lon="7.23613">
        <ele>538.91253662109</ele>
        <time>2011-10-08T13:24:43Z</time>
      </trkpt>
      <trkpt lat="43.80885" lon="7.23614">
        <ele>539.04473876953</ele>
        <time>2011-10-08T13:24:44Z</time>
      </trkpt>
      <trkpt lat="43.80886" lon="7.23615">
        <ele>539.48132324219</ele>
        <time>2011-10-08T13:24:48Z</time>
      </trkpt>
      <trkpt lat="43.80886" lon="7.23616">
        <ele>539.60949707031</ele>
        <time>2011-10-08T13:25:00Z</time>
      </trkpt>
      <trkpt lat="43.80884" lon="7.23611">
        <ele>538.32373046875</ele>
        <time>2011-10-08T13:25:11Z</time>
      </trkpt>
      <trkpt lat="43.80887" lon="7.23601">
        <ele>535.98052978516</ele>
        <time>2011-10-08T13:25:14Z</time>
      </trkpt>
      <trkpt lat="43.80893" lon="7.2359">
        <ele>533.73352050781</ele>
        <time>2011-10-08T13:25:16Z</time>
      </trkpt>
      <trkpt lat="43.80905" lon="7.23564">
        <ele>527.28253173828</ele>
        <time>2011-10-08T13:25:20Z</time>
      </trkpt>
      <trkpt lat="43.80905" lon="7.23538">
        <ele>519.56109619141</ele>
        <time>2011-10-08T13:25:24Z</time>
      </trkpt>
      <trkpt lat="43.80911" lon="7.23525">
        <ele>516.16748046875</ele>
        <time>2011-10-08T13:25:26Z</time>
      </trkpt>
      <trkpt lat="43.80912" lon="7.23519">
        <ele>514.40380859375</ele>
        <time>2011-10-08T13:25:27Z</time>
      </trkpt>
      <trkpt lat="43.8092" lon="7.23508">
        <ele>511.58471679688</ele>
        <time>2011-10-08T13:25:30Z</time>
      </trkpt>
      <trkpt lat="43.80933" lon="7.23498">
        <ele>509.40518188477</ele>
        <time>2011-10-08T13:25:34Z</time>
      </trkpt>
      <trkpt lat="43.80935" lon="7.23495">
        <ele>508.60485839844</ele>
        <time>2011-10-08T13:25:35Z</time>
      </trkpt>
      <trkpt lat="43.80944" lon="7.23479">
        <ele>504.22024536133</ele>
        <time>2011-10-08T13:25:40Z</time>
      </trkpt>
      <trkpt lat="43.80952" lon="7.23472">
        <ele>502.75616455078</ele>
        <time>2011-10-08T13:25:43Z</time>
      </trkpt>
      <trkpt lat="43.80959" lon="7.23465">
        <ele>501.21017456055</ele>
        <time>2011-10-08T13:25:45Z</time>
      </trkpt>
      <trkpt lat="43.80976" lon="7.23458">
        <ele>500.99862670898</ele>
        <time>2011-10-08T13:25:49Z</time>
      </trkpt>
      <trkpt lat="43.80983" lon="7.23452">
        <ele>500.08575439453</ele>
        <time>2011-10-08T13:25:52Z</time>
      </trkpt>
      <trkpt lat="43.8099" lon="7.23452">
        <ele>500.86779785156</ele>
        <time>2011-10-08T13:25:56Z</time>
      </trkpt>
      <trkpt lat="43.80999" lon="7.23451">
        <ele>501.4921875</ele>
        <time>2011-10-08T13:25:59Z</time>
      </trkpt>
      <trkpt lat="43.81001" lon="7.23439">
        <ele>499.17938232422</ele>
        <time>2011-10-08T13:26:02Z</time>
      </trkpt>
      <trkpt lat="43.81001" lon="7.23434">
        <ele>497.80551147461</ele>
        <time>2011-10-08T13:26:03Z</time>
      </trkpt>
      <trkpt lat="43.81008" lon="7.23428">
        <ele>498.99194335938</ele>
        <time>2011-10-08T13:26:08Z</time>
      </trkpt>
      <trkpt lat="43.81017" lon="7.23424">
        <ele>501.35815429688</ele>
        <time>2011-10-08T13:26:12Z</time>
      </trkpt>
      <trkpt lat="43.81015" lon="7.23413">
        <ele>498.01382446289</ele>
        <time>2011-10-08T13:26:15Z</time>
      </trkpt>
      <trkpt lat="43.81017" lon="7.23409">
        <ele>497.40524291992</ele>
        <time>2011-10-08T13:26:16Z</time>
      </trkpt>
      <trkpt lat="43.81018" lon="7.23405">
        <ele>497.04141235352</ele>
        <time>2011-10-08T13:26:17Z</time>
      </trkpt>
      <trkpt lat="43.81025" lon="7.23408">
        <ele>500.23095703125</ele>
        <time>2011-10-08T13:26:27Z</time>
      </trkpt>
      <trkpt lat="43.81025" lon="7.23404">
        <ele>499.56909179688</ele>
        <time>2011-10-08T13:26:42Z</time>
      </trkpt>
      <trkpt lat="43.81025" lon="7.23404">
        <ele>499.58074951172</ele>
        <time>2011-10-08T13:26:43Z</time>
      </trkpt>
      <trkpt lat="43.81025" lon="7.23404">
        <ele>499.54574584961</ele>
        <time>2011-10-08T13:26:44Z</time>
      </trkpt>
      <trkpt lat="43.81026" lon="7.23404">
        <ele>499.98947143555</ele>
        <time>2011-10-08T13:26:48Z</time>
      </trkpt>
      <trkpt lat="43.81027" lon="7.23403">
        <ele>500.16885375977</ele>
        <time>2011-10-08T13:26:53Z</time>
      </trkpt>
      <trkpt lat="43.81024" lon="7.23399">
        <ele>498.0153503418</ele>
        <time>2011-10-08T13:26:56Z</time>
      </trkpt>
      <trkpt lat="43.81024" lon="7.23395">
        <ele>496.74475097656</ele>
        <time>2011-10-08T13:27:02Z</time>
      </trkpt>
      <trkpt lat="43.81027" lon="7.23391">
        <ele>497.06237792969</ele>
        <time>2011-10-08T13:27:05Z</time>
      </trkpt>
      <trkpt lat="43.81028" lon="7.23392">
        <ele>497.63821411133</ele>
        <time>2011-10-08T13:27:06Z</time>
      </trkpt>
      <trkpt lat="43.81031" lon="7.23394">
        <ele>499.4794921875</ele>
        <time>2011-10-08T13:27:32Z</time>
      </trkpt>
      <trkpt lat="43.81032" lon="7.23394">
        <ele>499.68640136719</ele>
        <time>2011-10-08T13:27:36Z</time>
      </trkpt>
      <trkpt lat="43.81032" lon="7.23394">
        <ele>499.70953369141</ele>
        <time>2011-10-08T13:27:40Z</time>
      </trkpt>
      <trkpt lat="43.81033" lon="7.2339">
        <ele>499.18508911133</ele>
        <time>2011-10-08T13:29:03Z</time>
      </trkpt>
      <trkpt lat="43.81036" lon="7.23387">
        <ele>499.76974487305</ele>
        <time>2011-10-08T13:29:08Z</time>
      </trkpt>
      <trkpt lat="43.8104" lon="7.2338">
        <ele>499.6393737793</ele>
        <time>2011-10-08T13:29:13Z</time>
      </trkpt>
      <trkpt lat="43.81042" lon="7.23379">
        <ele>500.03540039062</ele>
        <time>2011-10-08T13:29:14Z</time>
      </trkpt>
      <trkpt lat="43.81051" lon="7.23375">
        <ele>502.80484008789</ele>
        <time>2011-10-08T13:29:19Z</time>
      </trkpt>
      <trkpt lat="43.81057" lon="7.23377">
        <ele>505.59869384766</ele>
        <time>2011-10-08T13:29:30Z</time>
      </trkpt>
      <trkpt lat="43.81065" lon="7.23375">
        <ele>508.23181152344</ele>
        <time>2011-10-08T13:29:37Z</time>
      </trkpt>
      <trkpt lat="43.81066" lon="7.23361">
        <ele>505.28884887695</ele>
        <time>2011-10-08T13:29:44Z</time>
      </trkpt>
      <trkpt lat="43.81067" lon="7.23359">
        <ele>505.20541381836</ele>
        <time>2011-10-08T13:29:45Z</time>
      </trkpt>
      <trkpt lat="43.81071" lon="7.23355">
        <ele>506.28665161133</ele>
        <time>2011-10-08T13:29:51Z</time>
      </trkpt>
      <trkpt lat="43.81077" lon="7.23351">
        <ele>507.59869384766</ele>
        <time>2011-10-08T13:29:54Z</time>
      </trkpt>
      <trkpt lat="43.81084" lon="7.23347">
        <ele>509.68014526367</ele>
        <time>2011-10-08T13:29:58Z</time>
      </trkpt>
      <trkpt lat="43.81087" lon="7.23348">
        <ele>511.45059204102</ele>
        <time>2011-10-08T13:30:02Z</time>
      </trkpt>
      <trkpt lat="43.8109" lon="7.23342">
        <ele>511.9914855957</ele>
        <time>2011-10-08T13:30:08Z</time>
      </trkpt>
      <trkpt lat="43.81102" lon="7.23327">
        <ele>516.21594238281</ele>
        <time>2011-10-08T13:30:14Z</time>
      </trkpt>
      <trkpt lat="43.81104" lon="7.23325">
        <ele>517.26019287109</ele>
        <time>2011-10-08T13:30:17Z</time>
      </trkpt>
      <trkpt lat="43.81102" lon="7.23312">
        <ele>513.08367919922</ele>
        <time>2011-10-08T13:30:24Z</time>
      </trkpt>
      <trkpt lat="43.811" lon="7.23308">
        <ele>511.13754272461</ele>
        <time>2011-10-08T13:30:25Z</time>
      </trkpt>
      <trkpt lat="43.81101" lon="7.23296">
        <ele>509.40380859375</ele>
        <time>2011-10-08T13:30:29Z</time>
      </trkpt>
      <trkpt lat="43.81096" lon="7.23285">
        <ele>504.49575805664</ele>
        <time>2011-10-08T13:30:32Z</time>
      </trkpt>
      <trkpt lat="43.81092" lon="7.23272">
        <ele>500.35015869141</ele>
        <time>2011-10-08T13:30:36Z</time>
      </trkpt>
      <trkpt lat="43.81095" lon="7.23264">
        <ele>500.50717163086</ele>
        <time>2011-10-08T13:30:40Z</time>
      </trkpt>
      <trkpt lat="43.81107" lon="7.23251">
        <ele>502.94750976562</ele>
        <time>2011-10-08T13:30:46Z</time>
      </trkpt>
      <trkpt lat="43.81116" lon="7.23242">
        <ele>504.73669433594</ele>
        <time>2011-10-08T13:30:50Z</time>
      </trkpt>
      <trkpt lat="43.81118" lon="7.23238">
        <ele>504.81427001953</ele>
        <time>2011-10-08T13:30:54Z</time>
      </trkpt>
      <trkpt lat="43.81115" lon="7.23235">
        <ele>502.81063842773</ele>
        <time>2011-10-08T13:31:09Z</time>
      </trkpt>
      <trkpt lat="43.81115" lon="7.23234">
        <ele>502.76486206055</ele>
        <time>2011-10-08T13:31:24Z</time>
      </trkpt>
      <trkpt lat="43.81115" lon="7.23234">
        <ele>503.04409790039</ele>
        <time>2011-10-08T13:31:29Z</time>
      </trkpt>
      <trkpt lat="43.81116" lon="7.23234">
        <ele>503.1467590332</ele>
        <time>2011-10-08T13:31:32Z</time>
      </trkpt>
      <trkpt lat="43.8112" lon="7.23237">
        <ele>505.25564575195</ele>
        <time>2011-10-08T13:33:29Z</time>
      </trkpt>
      <trkpt lat="43.81119" lon="7.23238">
        <ele>505.25607299805</ele>
        <time>2011-10-08T13:33:31Z</time>
      </trkpt>
      <trkpt lat="43.81118" lon="7.23238">
        <ele>504.61724853516</ele>
        <time>2011-10-08T13:33:33Z</time>
      </trkpt>
      <trkpt lat="43.81116" lon="7.23237">
        <ele>504.05523681641</ele>
        <time>2011-10-08T13:33:34Z</time>
      </trkpt>
      <trkpt lat="43.81111" lon="7.2323">
        <ele>500.50201416016</ele>
        <time>2011-10-08T13:33:43Z</time>
      </trkpt>
      <trkpt lat="43.81106" lon="7.23222">
        <ele>497.07852172852</ele>
        <time>2011-10-08T13:34:01Z</time>
      </trkpt>
      <trkpt lat="43.81102" lon="7.2322">
        <ele>495.18939208984</ele>
        <time>2011-10-08T13:34:18Z</time>
      </trkpt>
      <trkpt lat="43.81105" lon="7.23218">
        <ele>496.02368164062</ele>
        <time>2011-10-08T13:34:44Z</time>
      </trkpt>
      <trkpt lat="43.81107" lon="7.23217">
        <ele>496.67114257812</ele>
        <time>2011-10-08T13:34:51Z</time>
      </trkpt>
      <trkpt lat="43.81115" lon="7.23214">
        <ele>499.03225708008</ele>
        <time>2011-10-08T13:34:56Z</time>
      </trkpt>
      <trkpt lat="43.81123" lon="7.23203">
        <ele>499.63446044922</ele>
        <time>2011-10-08T13:35:02Z</time>
      </trkpt>
      <trkpt lat="43.81133" lon="7.2319">
        <ele>500.34921264648</ele>
        <time>2011-10-08T13:35:08Z</time>
      </trkpt>
      <trkpt lat="43.81138" lon="7.2318">
        <ele>499.97979736328</ele>
        <time>2011-10-08T13:35:14Z</time>
      </trkpt>
      <trkpt lat="43.81138" lon="7.23178">
        <ele>499.59375</ele>
        <time>2011-10-08T13:35:19Z</time>
      </trkpt>
      <trkpt lat="43.81141" lon="7.23167">
        <ele>497.95831298828</ele>
        <time>2011-10-08T13:35:25Z</time>
      </trkpt>
      <trkpt lat="43.81144" lon="7.23149">
        <ele>494.75463867188</ele>
        <time>2011-10-08T13:35:32Z</time>
      </trkpt>
      <trkpt lat="43.8115" lon="7.23136">
        <ele>493.59991455078</ele>
        <time>2011-10-08T13:35:39Z</time>
      </trkpt>
      <trkpt lat="43.81157" lon="7.23128">
        <ele>493.54470825195</ele>
        <time>2011-10-08T13:35:45Z</time>
      </trkpt>
      <trkpt lat="43.81167" lon="7.23118">
        <ele>493.87768554688</ele>
        <time>2011-10-08T13:35:51Z</time>
      </trkpt>
      <trkpt lat="43.81179" lon="7.23108">
        <ele>493.1257019043</ele>
        <time>2011-10-08T13:35:59Z</time>
      </trkpt>
      <trkpt lat="43.81192" lon="7.23099">
        <ele>492.97814941406</ele>
        <time>2011-10-08T13:36:07Z</time>
      </trkpt>
      <trkpt lat="43.81197" lon="7.23093">
        <ele>492.31771850586</ele>
        <time>2011-10-08T13:36:11Z</time>
      </trkpt>
      <trkpt lat="43.81201" lon="7.23094">
        <ele>493.15005493164</ele>
        <time>2011-10-08T13:36:16Z</time>
      </trkpt>
      <trkpt lat="43.812" lon="7.23095">
        <ele>493.27813720703</ele>
        <time>2011-10-08T13:36:17Z</time>
      </trkpt>
      <trkpt lat="43.81194" lon="7.23096">
        <ele>492.61511230469</ele>
        <time>2011-10-08T13:36:21Z</time>
      </trkpt>
      <trkpt lat="43.8119" lon="7.23098">
        <ele>492.48641967773</ele>
        <time>2011-10-08T13:36:24Z</time>
      </trkpt>
      <trkpt lat="43.81189" lon="7.23099">
        <ele>492.50033569336</ele>
        <time>2011-10-08T13:36:25Z</time>
      </trkpt>
      <trkpt lat="43.81185" lon="7.23104">
        <ele>493.1891784668</ele>
        <time>2011-10-08T13:36:30Z</time>
      </trkpt>
      <trkpt lat="43.81182" lon="7.23103">
        <ele>492.48764038086</ele>
        <time>2011-10-08T13:36:38Z</time>
      </trkpt>
      <trkpt lat="43.81181" lon="7.23105">
        <ele>492.76693725586</ele>
        <time>2011-10-08T13:36:41Z</time>
      </trkpt>
      <trkpt lat="43.81178" lon="7.23121">
        <ele>496.26022338867</ele>
        <time>2011-10-08T13:36:49Z</time>
      </trkpt>
      <trkpt lat="43.81176" lon="7.23136">
        <ele>499.74163818359</ele>
        <time>2011-10-08T13:36:56Z</time>
      </trkpt>
      <trkpt lat="43.81173" lon="7.23153">
        <ele>503.70217895508</ele>
        <time>2011-10-08T13:37:04Z</time>
      </trkpt>
      <trkpt lat="43.81171" lon="7.23167">
        <ele>506.8205871582</ele>
        <time>2011-10-08T13:37:10Z</time>
      </trkpt>
      <trkpt lat="43.81171" lon="7.23171">
        <ele>507.93591308594</ele>
        <time>2011-10-08T13:37:12Z</time>
      </trkpt>
      <trkpt lat="43.81171" lon="7.23173">
        <ele>508.48745727539</ele>
        <time>2011-10-08T13:37:13Z</time>
      </trkpt>
      <trkpt lat="43.81172" lon="7.23188">
        <ele>512.32006835938</ele>
        <time>2011-10-08T13:37:19Z</time>
      </trkpt>
      <trkpt lat="43.81171" lon="7.23206">
        <ele>516.98120117188</ele>
        <time>2011-10-08T13:37:27Z</time>
      </trkpt>
      <trkpt lat="43.8117" lon="7.23212">
        <ele>518.12170410156</ele>
        <time>2011-10-08T13:37:30Z</time>
      </trkpt>
      <trkpt lat="43.81175" lon="7.2322">
        <ele>521.63665771484</ele>
        <time>2011-10-08T13:37:35Z</time>
      </trkpt>
      <trkpt lat="43.81184" lon="7.23217">
        <ele>522.82604980469</ele>
        <time>2011-10-08T13:37:40Z</time>
      </trkpt>
      <trkpt lat="43.81185" lon="7.23216">
        <ele>522.70861816406</ele>
        <time>2011-10-08T13:37:41Z</time>
      </trkpt>
      <trkpt lat="43.81194" lon="7.23203">
        <ele>521.04870605469</ele>
        <time>2011-10-08T13:37:49Z</time>
      </trkpt>
      <trkpt lat="43.81199" lon="7.23189">
        <ele>518.1513671875</ele>
        <time>2011-10-08T13:37:56Z</time>
      </trkpt>
      <trkpt lat="43.81203" lon="7.23185">
        <ele>517.75891113281</ele>
        <time>2011-10-08T13:37:59Z</time>
      </trkpt>
      <trkpt lat="43.81201" lon="7.23174">
        <ele>514.40600585938</ele>
        <time>2011-10-08T13:38:04Z</time>
      </trkpt>
      <trkpt lat="43.812" lon="7.2317">
        <ele>512.99810791016</ele>
        <time>2011-10-08T13:38:08Z</time>
      </trkpt>
      <trkpt lat="43.81197" lon="7.23172">
        <ele>513.13824462891</ele>
        <time>2011-10-08T13:38:58Z</time>
      </trkpt>
      <trkpt lat="43.81199" lon="7.23173">
        <ele>513.65447998047</ele>
        <time>2011-10-08T13:39:05Z</time>
      </trkpt>
      <trkpt lat="43.812" lon="7.23176">
        <ele>514.74041748047</ele>
        <time>2011-10-08T13:39:12Z</time>
      </trkpt>
      <trkpt lat="43.81199" lon="7.23175">
        <ele>514.31884765625</ele>
        <time>2011-10-08T13:39:17Z</time>
      </trkpt>
      <trkpt lat="43.812" lon="7.23173">
        <ele>513.82775878906</ele>
        <time>2011-10-08T13:39:33Z</time>
      </trkpt>
      <trkpt lat="43.81201" lon="7.23173">
        <ele>513.86175537109</ele>
        <time>2011-10-08T13:39:49Z</time>
      </trkpt>
      <trkpt lat="43.81201" lon="7.23172">
        <ele>513.65338134766</ele>
        <time>2011-10-08T13:39:55Z</time>
      </trkpt>
      <trkpt lat="43.81198" lon="7.23168">
        <ele>511.85076904297</ele>
        <time>2011-10-08T13:40:08Z</time>
      </trkpt>
      <trkpt lat="43.812" lon="7.23172">
        <ele>513.67956542969</ele>
        <time>2011-10-08T13:40:15Z</time>
      </trkpt>
      <trkpt lat="43.81203" lon="7.2319">
        <ele>519.40002441406</ele>
        <time>2011-10-08T13:40:23Z</time>
      </trkpt>
      <trkpt lat="43.81204" lon="7.23199">
        <ele>522.31713867188</ele>
        <time>2011-10-08T13:40:27Z</time>
      </trkpt>
      <trkpt lat="43.81212" lon="7.2321">
        <ele>527.26605224609</ele>
        <time>2011-10-08T13:40:34Z</time>
      </trkpt>
      <trkpt lat="43.81223" lon="7.23212">
        <ele>530.33862304688</ele>
        <time>2011-10-08T13:40:40Z</time>
      </trkpt>
      <trkpt lat="43.81228" lon="7.23212">
        <ele>531.76220703125</ele>
        <time>2011-10-08T13:40:45Z</time>
      </trkpt>
      <trkpt lat="43.81229" lon="7.23213">
        <ele>532.29437255859</ele>
        <time>2011-10-08T13:40:47Z</time>
      </trkpt>
      <trkpt lat="43.81229" lon="7.23214">
        <ele>532.73571777344</ele>
        <time>2011-10-08T13:40:51Z</time>
      </trkpt>
      <trkpt lat="43.81226" lon="7.23213">
        <ele>531.58050537109</ele>
        <time>2011-10-08T13:40:54Z</time>
      </trkpt>
      <trkpt lat="43.81224" lon="7.23212">
        <ele>530.97857666016</ele>
        <time>2011-10-08T13:40:58Z</time>
      </trkpt>
      <trkpt lat="43.81224" lon="7.23214">
        <ele>531.45239257812</ele>
        <time>2011-10-08T13:41:14Z</time>
      </trkpt>
      <trkpt lat="43.81221" lon="7.23215">
        <ele>530.80987548828</ele>
        <time>2011-10-08T13:41:20Z</time>
      </trkpt>
      <trkpt lat="43.81223" lon="7.23215">
        <ele>531.46862792969</ele>
        <time>2011-10-08T13:41:33Z</time>
      </trkpt>
      <trkpt lat="43.81224" lon="7.23217">
        <ele>532.22467041016</ele>
        <time>2011-10-08T13:41:37Z</time>
      </trkpt>
      <trkpt lat="43.81225" lon="7.23218">
        <ele>533.06011962891</ele>
        <time>2011-10-08T13:41:44Z</time>
      </trkpt>
      <trkpt lat="43.81227" lon="7.23217">
        <ele>533.02752685547</ele>
        <time>2011-10-08T13:41:46Z</time>
      </trkpt>
      <trkpt lat="43.8124" lon="7.23216">
        <ele>535.92852783203</ele>
        <time>2011-10-08T13:41:52Z</time>
      </trkpt>
      <trkpt lat="43.81253" lon="7.23214">
        <ele>537.55981445312</ele>
        <time>2011-10-08T13:41:56Z</time>
      </trkpt>
      <trkpt lat="43.81266" lon="7.23215">
        <ele>537.59967041016</ele>
        <time>2011-10-08T13:42:00Z</time>
      </trkpt>
      <trkpt lat="43.81275" lon="7.23208">
        <ele>534.97448730469</ele>
        <time>2011-10-08T13:42:06Z</time>
      </trkpt>
      <trkpt lat="43.81273" lon="7.23206">
        <ele>534.30895996094</ele>
        <time>2011-10-08T13:42:16Z</time>
      </trkpt>
      <trkpt lat="43.81273" lon="7.2319">
        <ele>528.85955810547</ele>
        <time>2011-10-08T13:42:20Z</time>
      </trkpt>
      <trkpt lat="43.81271" lon="7.23161">
        <ele>519.35699462891</ele>
        <time>2011-10-08T13:42:23Z</time>
      </trkpt>
      <trkpt lat="43.8127" lon="7.23149">
        <ele>516.05377197266</ele>
        <time>2011-10-08T13:42:24Z</time>
      </trkpt>
      <trkpt lat="43.81269" lon="7.23137">
        <ele>512.78247070312</ele>
        <time>2011-10-08T13:42:25Z</time>
      </trkpt>
      <trkpt lat="43.81269" lon="7.2312">
        <ele>507.74899291992</ele>
        <time>2011-10-08T13:42:27Z</time>
      </trkpt>
      <trkpt lat="43.81271" lon="7.23114">
        <ele>506.06130981445</ele>
        <time>2011-10-08T13:42:30Z</time>
      </trkpt>
      <trkpt lat="43.81271" lon="7.23114">
        <ele>506.25720214844</ele>
        <time>2011-10-08T13:42:31Z</time>
      </trkpt>
      <trkpt lat="43.81277" lon="7.23133">
        <ele>511.41970825195</ele>
        <time>2011-10-08T13:42:36Z</time>
      </trkpt>
      <trkpt lat="43.8129" lon="7.23158">
        <ele>518.51544189453</ele>
        <time>2011-10-08T13:42:40Z</time>
      </trkpt>
      <trkpt lat="43.81324" lon="7.23172">
        <ele>522.88220214844</ele>
        <time>2011-10-08T13:42:44Z</time>
      </trkpt>
      <trkpt lat="43.81342" lon="7.2317">
        <ele>520.37744140625</ele>
        <time>2011-10-08T13:42:46Z</time>
      </trkpt>
      <trkpt lat="43.81374" lon="7.2317">
        <ele>514.27935791016</ele>
        <time>2011-10-08T13:42:51Z</time>
      </trkpt>
      <trkpt lat="43.81379" lon="7.23164">
        <ele>511.43701171875</ele>
        <time>2011-10-08T13:42:54Z</time>
      </trkpt>
      <trkpt lat="43.81378" lon="7.23159">
        <ele>509.97698974609</ele>
        <time>2011-10-08T13:42:55Z</time>
      </trkpt>
      <trkpt lat="43.81379" lon="7.23135">
        <ele>502.46142578125</ele>
        <time>2011-10-08T13:43:00Z</time>
      </trkpt>
      <trkpt lat="43.81374" lon="7.23129">
        <ele>501.54040527344</ele>
        <time>2011-10-08T13:43:03Z</time>
      </trkpt>
      <trkpt lat="43.81371" lon="7.23136">
        <ele>504.44409179688</ele>
        <time>2011-10-08T13:43:06Z</time>
      </trkpt>
      <trkpt lat="43.81371" lon="7.23158">
        <ele>511.09948730469</ele>
        <time>2011-10-08T13:43:11Z</time>
      </trkpt>
      <trkpt lat="43.81367" lon="7.2316">
        <ele>512.43182373047</ele>
        <time>2011-10-08T13:43:14Z</time>
      </trkpt>
      <trkpt lat="43.81362" lon="7.23157">
        <ele>512.40356445312</ele>
        <time>2011-10-08T13:43:16Z</time>
      </trkpt>
      <trkpt lat="43.81351" lon="7.23155">
        <ele>513.92327880859</ele>
        <time>2011-10-08T13:43:20Z</time>
      </trkpt>
      <trkpt lat="43.81353" lon="7.23156">
        <ele>513.89868164062</ele>
        <time>2011-10-08T13:43:24Z</time>
      </trkpt>
      <trkpt lat="43.81356" lon="7.23155">
        <ele>513.17938232422</ele>
        <time>2011-10-08T13:43:25Z</time>
      </trkpt>
      <trkpt lat="43.81378" lon="7.2314">
        <ele>504.23345947266</ele>
        <time>2011-10-08T13:43:30Z</time>
      </trkpt>
      <trkpt lat="43.81386" lon="7.23139">
        <ele>502.32873535156</ele>
        <time>2011-10-08T13:43:31Z</time>
      </trkpt>
      <trkpt lat="43.81393" lon="7.23132">
        <ele>498.71380615234</ele>
        <time>2011-10-08T13:43:34Z</time>
      </trkpt>
      <trkpt lat="43.81393" lon="7.23131">
        <ele>498.47833251953</ele>
        <time>2011-10-08T13:43:35Z</time>
      </trkpt>
      <trkpt lat="43.81392" lon="7.2313">
        <ele>498.32318115234</ele>
        <time>2011-10-08T13:43:37Z</time>
      </trkpt>
      <trkpt lat="43.81388" lon="7.23125">
        <ele>497.72744750977</ele>
        <time>2011-10-08T13:43:41Z</time>
      </trkpt>
      <trkpt lat="43.81387" lon="7.23123">
        <ele>497.36492919922</ele>
        <time>2011-10-08T13:43:46Z</time>
      </trkpt>
      <trkpt lat="43.81387" lon="7.23123">
        <ele>497.19116210938</ele>
        <time>2011-10-08T13:43:54Z</time>
      </trkpt>
      <trkpt lat="43.81387" lon="7.23121">
        <ele>496.77801513672</ele>
        <time>2011-10-08T13:43:59Z</time>
      </trkpt>
      <trkpt lat="43.81387" lon="7.23121">
        <ele>496.71929931641</ele>
        <time>2011-10-08T13:44:00Z</time>
      </trkpt>
      <trkpt lat="43.81389" lon="7.23119">
        <ele>495.61856079102</ele>
        <time>2011-10-08T13:44:27Z</time>
      </trkpt>
      <trkpt lat="43.81389" lon="7.23119">
        <ele>495.63323974609</ele>
        <time>2011-10-08T13:44:28Z</time>
      </trkpt>
      <trkpt lat="43.81389" lon="7.23118">
        <ele>495.45944213867</ele>
        <time>2011-10-08T13:44:59Z</time>
      </trkpt>
      <trkpt lat="43.81389" lon="7.23118">
        <ele>495.45944213867</ele>
        <time>2011-10-08T13:45:00Z</time>
      </trkpt>
      <trkpt lat="43.81388" lon="7.23118">
        <ele>495.35913085938</ele>
        <time>2011-10-08T13:45:14Z</time>
      </trkpt>
      <trkpt lat="43.81391" lon="7.23119">
        <ele>495.24163818359</ele>
        <time>2011-10-08T13:48:34Z</time>
      </trkpt>
      <trkpt lat="43.81391" lon="7.23119">
        <ele>495.24163818359</ele>
        <time>2011-10-08T13:48:35Z</time>
      </trkpt>
      <trkpt lat="43.81392" lon="7.23119">
        <ele>495.04113769531</ele>
        <time>2011-10-08T13:49:38Z</time>
      </trkpt>
      <trkpt lat="43.81384" lon="7.23104">
        <ele>492.10562133789</ele>
        <time>2011-10-08T13:49:44Z</time>
      </trkpt>
      <trkpt lat="43.81378" lon="7.23103">
        <ele>493.10198974609</ele>
        <time>2011-10-08T13:49:48Z</time>
      </trkpt>
      <trkpt lat="43.8138" lon="7.23113">
        <ele>495.66931152344</ele>
        <time>2011-10-08T13:49:52Z</time>
      </trkpt>
      <trkpt lat="43.81379" lon="7.23121">
        <ele>498.4294128418</ele>
        <time>2011-10-08T13:49:55Z</time>
      </trkpt>
      <trkpt lat="43.81379" lon="7.23129">
        <ele>500.57342529297</ele>
        <time>2011-10-08T13:49:58Z</time>
      </trkpt>
      <trkpt lat="43.81379" lon="7.23137">
        <ele>503.19232177734</ele>
        <time>2011-10-08T13:50:01Z</time>
      </trkpt>
      <trkpt lat="43.81376" lon="7.23135">
        <ele>503.32611083984</ele>
        <time>2011-10-08T13:50:05Z</time>
      </trkpt>
      <trkpt lat="43.81376" lon="7.23133">
        <ele>502.37316894531</ele>
        <time>2011-10-08T13:50:06Z</time>
      </trkpt>
      <trkpt lat="43.81381" lon="7.23108">
        <ele>493.98068237305</ele>
        <time>2011-10-08T13:50:11Z</time>
      </trkpt>
      <trkpt lat="43.81376" lon="7.23103">
        <ele>493.23739624023</ele>
        <time>2011-10-08T13:50:14Z</time>
      </trkpt>
      <trkpt lat="43.81377" lon="7.23105">
        <ele>493.86883544922</ele>
        <time>2011-10-08T13:50:17Z</time>
      </trkpt>
      <trkpt lat="43.81378" lon="7.23109">
        <ele>494.61807250977</ele>
        <time>2011-10-08T13:50:21Z</time>
      </trkpt>
      <trkpt lat="43.81377" lon="7.23109">
        <ele>494.86196899414</ele>
        <time>2011-10-08T13:50:26Z</time>
      </trkpt>
      <trkpt lat="43.8138" lon="7.23115">
        <ele>496.1257019043</ele>
        <time>2011-10-08T13:51:03Z</time>
      </trkpt>
      <trkpt lat="43.81379" lon="7.23115">
        <ele>496.36862182617</ele>
        <time>2011-10-08T13:51:06Z</time>
      </trkpt>
      <trkpt lat="43.81378" lon="7.23118">
        <ele>497.58737182617</ele>
        <time>2011-10-08T13:51:53Z</time>
      </trkpt>
      <trkpt lat="43.81379" lon="7.23118">
        <ele>497.3596496582</ele>
        <time>2011-10-08T13:51:58Z</time>
      </trkpt>
      <trkpt lat="43.81386" lon="7.23122">
        <ele>497.13482666016</ele>
        <time>2011-10-08T13:52:31Z</time>
      </trkpt>
      <trkpt lat="43.81383" lon="7.23117">
        <ele>496.1291809082</ele>
        <time>2011-10-08T13:53:10Z</time>
      </trkpt>
      <trkpt lat="43.81385" lon="7.23117">
        <ele>495.73193359375</ele>
        <time>2011-10-08T13:53:39Z</time>
      </trkpt>
      <trkpt lat="43.81383" lon="7.23117">
        <ele>496.1438293457</ele>
        <time>2011-10-08T13:53:43Z</time>
      </trkpt>
      <trkpt lat="43.81382" lon="7.23117">
        <ele>496.43310546875</ele>
        <time>2011-10-08T13:53:49Z</time>
      </trkpt>
      <trkpt lat="43.81382" lon="7.23117">
        <ele>496.43310546875</ele>
        <time>2011-10-08T13:53:50Z</time>
      </trkpt>
      <trkpt lat="43.81382" lon="7.23119">
        <ele>497.04251098633</ele>
        <time>2011-10-08T13:54:37Z</time>
      </trkpt>
      <trkpt lat="43.81389" lon="7.23121">
        <ele>496.38467407227</ele>
        <time>2011-10-08T13:55:08Z</time>
      </trkpt>
      <trkpt lat="43.81381" lon="7.23118">
        <ele>497.05325317383</ele>
        <time>2011-10-08T13:55:57Z</time>
      </trkpt>
      <trkpt lat="43.8138" lon="7.23118">
        <ele>497.0998840332</ele>
        <time>2011-10-08T13:55:58Z</time>
      </trkpt>
      <trkpt lat="43.81382" lon="7.2312">
        <ele>497.53082275391</ele>
        <time>2011-10-08T13:56:21Z</time>
      </trkpt>
      <trkpt lat="43.81382" lon="7.23121">
        <ele>497.52825927734</ele>
        <time>2011-10-08T13:56:26Z</time>
      </trkpt>
      <trkpt lat="43.81382" lon="7.23126">
        <ele>499.14086914062</ele>
        <time>2011-10-08T13:56:32Z</time>
      </trkpt>
      <trkpt lat="43.81382" lon="7.23126">
        <ele>499.33114624023</ele>
        <time>2011-10-08T13:56:38Z</time>
      </trkpt>
      <trkpt lat="43.81382" lon="7.23131">
        <ele>500.64639282227</ele>
        <time>2011-10-08T13:56:43Z</time>
      </trkpt>
      <trkpt lat="43.8138" lon="7.23146">
        <ele>505.55654907227</ele>
        <time>2011-10-08T13:56:49Z</time>
      </trkpt>
      <trkpt lat="43.8138" lon="7.23154">
        <ele>508.1315612793</ele>
        <time>2011-10-08T13:56:52Z</time>
      </trkpt>
      <trkpt lat="43.8138" lon="7.23163">
        <ele>510.74880981445</ele>
        <time>2011-10-08T13:56:55Z</time>
      </trkpt>
      <trkpt lat="43.81382" lon="7.23168">
        <ele>512.10998535156</ele>
        <time>2011-10-08T13:57:01Z</time>
      </trkpt>
      <trkpt lat="43.8138" lon="7.23166">
        <ele>511.9775390625</ele>
        <time>2011-10-08T13:57:10Z</time>
      </trkpt>
      <trkpt lat="43.8139" lon="7.23172">
        <ele>511.6494140625</ele>
        <time>2011-10-08T13:57:15Z</time>
      </trkpt>
      <trkpt lat="43.81406" lon="7.23183">
        <ele>511.27725219727</ele>
        <time>2011-10-08T13:57:19Z</time>
      </trkpt>
      <trkpt lat="43.81423" lon="7.23192">
        <ele>509.59548950195</ele>
        <time>2011-10-08T13:57:23Z</time>
      </trkpt>
      <trkpt lat="43.81451" lon="7.23204">
        <ele>502.67932128906</ele>
        <time>2011-10-08T13:57:28Z</time>
      </trkpt>
      <trkpt lat="43.81476" lon="7.2322">
        <ele>497.14807128906</ele>
        <time>2011-10-08T13:57:33Z</time>
      </trkpt>
      <trkpt lat="43.81484" lon="7.23238">
        <ele>497.9944152832</ele>
        <time>2011-10-08T13:57:37Z</time>
      </trkpt>
      <trkpt lat="43.81484" lon="7.23243">
        <ele>498.8571472168</ele>
        <time>2011-10-08T13:57:38Z</time>
      </trkpt>
      <trkpt lat="43.81485" lon="7.23254">
        <ele>500.78790283203</ele>
        <time>2011-10-08T13:57:40Z</time>
      </trkpt>
      <trkpt lat="43.81495" lon="7.23274">
        <ele>500.86123657227</ele>
        <time>2011-10-08T13:57:44Z</time>
      </trkpt>
      <trkpt lat="43.81515" lon="7.233">
        <ele>495.99328613281</ele>
        <time>2011-10-08T13:57:51Z</time>
      </trkpt>
      <trkpt lat="43.81524" lon="7.23323">
        <ele>495.97451782227</ele>
        <time>2011-10-08T13:57:56Z</time>
      </trkpt>
      <trkpt lat="43.81524" lon="7.23335">
        <ele>498.35668945312</ele>
        <time>2011-10-08T13:57:58Z</time>
      </trkpt>
      <trkpt lat="43.81522" lon="7.23368">
        <ele>503.3157043457</ele>
        <time>2011-10-08T13:58:02Z</time>
      </trkpt>
      <trkpt lat="43.81538" lon="7.2341">
        <ele>500.61038208008</ele>
        <time>2011-10-08T13:58:06Z</time>
      </trkpt>
      <trkpt lat="43.81558" lon="7.23472">
        <ele>495.09875488281</ele>
        <time>2011-10-08T13:58:12Z</time>
      </trkpt>
      <trkpt lat="43.81561" lon="7.23503">
        <ele>495.65393066406</ele>
        <time>2011-10-08T13:58:15Z</time>
      </trkpt>
      <trkpt lat="43.81555" lon="7.23553">
        <ele>502.22467041016</ele>
        <time>2011-10-08T13:58:20Z</time>
      </trkpt>
      <trkpt lat="43.81548" lon="7.23577">
        <ele>507.54046630859</ele>
        <time>2011-10-08T13:58:24Z</time>
      </trkpt>
      <trkpt lat="43.81547" lon="7.23588">
        <ele>508.43832397461</ele>
        <time>2011-10-08T13:58:26Z</time>
      </trkpt>
      <trkpt lat="43.81546" lon="7.23596">
        <ele>509.12469482422</ele>
        <time>2011-10-08T13:58:30Z</time>
      </trkpt>
      <trkpt lat="43.81544" lon="7.23598">
        <ele>509.98611450195</ele>
        <time>2011-10-08T13:58:36Z</time>
      </trkpt>
      <trkpt lat="43.81543" lon="7.23597">
        <ele>510.49374389648</ele>
        <time>2011-10-08T13:58:48Z</time>
      </trkpt>
      <trkpt lat="43.81544" lon="7.23597">
        <ele>510.04187011719</ele>
        <time>2011-10-08T13:59:07Z</time>
      </trkpt>
      <trkpt lat="43.81546" lon="7.23598">
        <ele>508.83996582031</ele>
        <time>2011-10-08T13:59:21Z</time>
      </trkpt>
      <trkpt lat="43.81546" lon="7.23599">
        <ele>508.58508300781</ele>
        <time>2011-10-08T13:59:24Z</time>
      </trkpt>
      <trkpt lat="43.81546" lon="7.23599">
        <ele>508.578125</ele>
        <time>2011-10-08T13:59:25Z</time>
      </trkpt>
      <trkpt lat="43.81548" lon="7.23606">
        <ele>507.69869995117</ele>
        <time>2011-10-08T13:59:53Z</time>
      </trkpt>
      <trkpt lat="43.81549" lon="7.23608">
        <ele>506.97552490234</ele>
        <time>2011-10-08T14:00:17Z</time>
      </trkpt>
      <trkpt lat="43.81549" lon="7.23609">
        <ele>506.95947265625</ele>
        <time>2011-10-08T14:00:43Z</time>
      </trkpt>
      <trkpt lat="43.81549" lon="7.23608">
        <ele>506.76559448242</ele>
        <time>2011-10-08T14:02:44Z</time>
      </trkpt>
      <trkpt lat="43.81549" lon="7.23607">
        <ele>506.76681518555</ele>
        <time>2011-10-08T14:02:46Z</time>
      </trkpt>
      <trkpt lat="43.81549" lon="7.23607">
        <ele>506.77044677734</ele>
        <time>2011-10-08T14:02:52Z</time>
      </trkpt>
      <trkpt lat="43.81549" lon="7.23607">
        <ele>506.77163696289</ele>
        <time>2011-10-08T14:02:53Z</time>
      </trkpt>
      <trkpt lat="43.81549" lon="7.23607">
        <ele>506.7861328125</ele>
        <time>2011-10-08T14:03:04Z</time>
      </trkpt>
      <trkpt lat="43.81549" lon="7.23607">
        <ele>506.7897644043</ele>
        <time>2011-10-08T14:03:05Z</time>
      </trkpt>
      <trkpt lat="43.81549" lon="7.23606">
        <ele>506.79943847656</ele>
        <time>2011-10-08T14:03:12Z</time>
      </trkpt>
      <trkpt lat="43.81552" lon="7.2361">
        <ele>504.92474365234</ele>
        <time>2011-10-08T14:04:19Z</time>
      </trkpt>
      <trkpt lat="43.81552" lon="7.23609">
        <ele>504.9267578125</ele>
        <time>2011-10-08T14:04:20Z</time>
      </trkpt>
      <trkpt lat="43.81552" lon="7.23607">
        <ele>505.20166015625</ele>
        <time>2011-10-08T14:05:00Z</time>
      </trkpt>
      <trkpt lat="43.81552" lon="7.23606">
        <ele>505.22930908203</ele>
        <time>2011-10-08T14:05:36Z</time>
      </trkpt>
      <trkpt lat="43.81552" lon="7.23606">
        <ele>505.23034667969</ele>
        <time>2011-10-08T14:05:37Z</time>
      </trkpt>
      <trkpt lat="43.81548" lon="7.23604">
        <ele>507.75778198242</ele>
        <time>2011-10-08T14:06:02Z</time>
      </trkpt>
      <trkpt lat="43.81551" lon="7.23606">
        <ele>505.66558837891</ele>
        <time>2011-10-08T14:06:21Z</time>
      </trkpt>
      <trkpt lat="43.81552" lon="7.23606">
        <ele>505.21496582031</ele>
        <time>2011-10-08T14:06:30Z</time>
      </trkpt>
      <trkpt lat="43.81559" lon="7.23612">
        <ele>500.87228393555</ele>
        <time>2011-10-08T14:09:37Z</time>
      </trkpt>
      <trkpt lat="43.81548" lon="7.23606">
        <ele>507.71575927734</ele>
        <time>2011-10-08T14:12:27Z</time>
      </trkpt>
      <trkpt lat="43.81567" lon="7.2361">
        <ele>496.2041015625</ele>
        <time>2011-10-08T14:15:45Z</time>
      </trkpt>
      <trkpt lat="43.81561" lon="7.2361">
        <ele>499.55358886719</ele>
        <time>2011-10-08T14:16:21Z</time>
      </trkpt>
      <trkpt lat="43.81564" lon="7.23612">
        <ele>497.76174926758</ele>
        <time>2011-10-08T14:17:22Z</time>
      </trkpt>
      <trkpt lat="43.81565" lon="7.23615">
        <ele>497.53060913086</ele>
        <time>2011-10-08T14:17:28Z</time>
      </trkpt>
      <trkpt lat="43.81564" lon="7.23625">
        <ele>498.14953613281</ele>
        <time>2011-10-08T14:17:34Z</time>
      </trkpt>
      <trkpt lat="43.81564" lon="7.23639">
        <ele>497.66854858398</ele>
        <time>2011-10-08T14:17:37Z</time>
      </trkpt>
      <trkpt lat="43.81566" lon="7.23663">
        <ele>496.61837768555</ele>
        <time>2011-10-08T14:17:41Z</time>
      </trkpt>
      <trkpt lat="43.81567" lon="7.23681">
        <ele>495.10150146484</ele>
        <time>2011-10-08T14:17:44Z</time>
      </trkpt>
      <trkpt lat="43.81567" lon="7.23708">
        <ele>492.55136108398</ele>
        <time>2011-10-08T14:17:49Z</time>
      </trkpt>
      <trkpt lat="43.81568" lon="7.23723">
        <ele>490.62939453125</ele>
        <time>2011-10-08T14:17:52Z</time>
      </trkpt>
      <trkpt lat="43.81566" lon="7.2374">
        <ele>489.71063232422</ele>
        <time>2011-10-08T14:17:56Z</time>
      </trkpt>
      <trkpt lat="43.81568" lon="7.23743">
        <ele>488.78332519531</ele>
        <time>2011-10-08T14:18:01Z</time>
      </trkpt>
      <trkpt lat="43.81562" lon="7.23745">
        <ele>490.7981262207</ele>
        <time>2011-10-08T14:18:15Z</time>
      </trkpt>
      <trkpt lat="43.81551" lon="7.23752">
        <ele>494.70837402344</ele>
        <time>2011-10-08T14:18:20Z</time>
      </trkpt>
      <trkpt lat="43.81532" lon="7.23766">
        <ele>500.3307800293</ele>
        <time>2011-10-08T14:18:27Z</time>
      </trkpt>
      <trkpt lat="43.81514" lon="7.2378">
        <ele>505.80834960938</ele>
        <time>2011-10-08T14:18:34Z</time>
      </trkpt>
      <trkpt lat="43.81509" lon="7.23785">
        <ele>507.37594604492</ele>
        <time>2011-10-08T14:18:39Z</time>
      </trkpt>
      <trkpt lat="43.815" lon="7.23797">
        <ele>509.45587158203</ele>
        <time>2011-10-08T14:18:46Z</time>
      </trkpt>
      <trkpt lat="43.81497" lon="7.23801">
        <ele>511.15747070312</ele>
        <time>2011-10-08T14:18:50Z</time>
      </trkpt>
      <trkpt lat="43.81485" lon="7.23816">
        <ele>518.13861083984</ele>
        <time>2011-10-08T14:18:57Z</time>
      </trkpt>
      <trkpt lat="43.81467" lon="7.23831">
        <ele>528.94085693359</ele>
        <time>2011-10-08T14:19:04Z</time>
      </trkpt>
      <trkpt lat="43.81451" lon="7.23835">
        <ele>539.81970214844</ele>
        <time>2011-10-08T14:19:11Z</time>
      </trkpt>
      <trkpt lat="43.81436" lon="7.23842">
        <ele>549.33453369141</ele>
        <time>2011-10-08T14:19:18Z</time>
      </trkpt>
      <trkpt lat="43.8142" lon="7.23852">
        <ele>559.17749023438</ele>
        <time>2011-10-08T14:19:25Z</time>
      </trkpt>
      <trkpt lat="43.81409" lon="7.23865">
        <ele>563.94030761719</ele>
        <time>2011-10-08T14:19:31Z</time>
      </trkpt>
      <trkpt lat="43.81399" lon="7.2388">
        <ele>567.0087890625</ele>
        <time>2011-10-08T14:19:37Z</time>
      </trkpt>
      <trkpt lat="43.81393" lon="7.23897">
        <ele>567.97430419922</ele>
        <time>2011-10-08T14:19:42Z</time>
      </trkpt>
      <trkpt lat="43.8139" lon="7.239">
        <ele>568.71459960938</ele>
        <time>2011-10-08T14:19:45Z</time>
      </trkpt>
      <trkpt lat="43.81389" lon="7.23903">
        <ele>569.04052734375</ele>
        <time>2011-10-08T14:19:58Z</time>
      </trkpt>
      <trkpt lat="43.81397" lon="7.23915">
        <ele>563.39489746094</ele>
        <time>2011-10-08T14:20:04Z</time>
      </trkpt>
      <trkpt lat="43.81399" lon="7.23916">
        <ele>562.31237792969</ele>
        <time>2011-10-08T14:20:05Z</time>
      </trkpt>
      <trkpt lat="43.81412" lon="7.23929">
        <ele>557.37902832031</ele>
        <time>2011-10-08T14:20:13Z</time>
      </trkpt>
      <trkpt lat="43.81423" lon="7.23949">
        <ele>554.49017333984</ele>
        <time>2011-10-08T14:20:21Z</time>
      </trkpt>
      <trkpt lat="43.81435" lon="7.23961">
        <ele>549.59643554688</ele>
        <time>2011-10-08T14:20:27Z</time>
      </trkpt>
      <trkpt lat="43.81451" lon="7.23979">
        <ele>542.72149658203</ele>
        <time>2011-10-08T14:20:35Z</time>
      </trkpt>
      <trkpt lat="43.81461" lon="7.23995">
        <ele>538.89056396484</ele>
        <time>2011-10-08T14:20:42Z</time>
      </trkpt>
      <trkpt lat="43.8147" lon="7.24012">
        <ele>535.36175537109</ele>
        <time>2011-10-08T14:20:50Z</time>
      </trkpt>
      <trkpt lat="43.81479" lon="7.24034">
        <ele>532.64050292969</ele>
        <time>2011-10-08T14:20:58Z</time>
      </trkpt>
      <trkpt lat="43.81483" lon="7.24048">
        <ele>531.71600341797</ele>
        <time>2011-10-08T14:21:03Z</time>
      </trkpt>
      <trkpt lat="43.81487" lon="7.24068">
        <ele>531.27410888672</ele>
        <time>2011-10-08T14:21:09Z</time>
      </trkpt>
      <trkpt lat="43.81482" lon="7.24097">
        <ele>537.71868896484</ele>
        <time>2011-10-08T14:21:18Z</time>
      </trkpt>
      <trkpt lat="43.81478" lon="7.2412">
        <ele>543.1533203125</ele>
        <time>2011-10-08T14:21:25Z</time>
      </trkpt>
      <trkpt lat="43.81475" lon="7.2414">
        <ele>547.54180908203</ele>
        <time>2011-10-08T14:21:31Z</time>
      </trkpt>
      <trkpt lat="43.81477" lon="7.24165">
        <ele>549.71356201172</ele>
        <time>2011-10-08T14:21:38Z</time>
      </trkpt>
      <trkpt lat="43.81479" lon="7.24187">
        <ele>551.28778076172</ele>
        <time>2011-10-08T14:21:45Z</time>
      </trkpt>
      <trkpt lat="43.8148" lon="7.24191">
        <ele>551.21887207031</ele>
        <time>2011-10-08T14:21:46Z</time>
      </trkpt>
      <trkpt lat="43.81483" lon="7.24217">
        <ele>552.91094970703</ele>
        <time>2011-10-08T14:21:54Z</time>
      </trkpt>
      <trkpt lat="43.8148" lon="7.24237">
        <ele>556.92852783203</ele>
        <time>2011-10-08T14:22:00Z</time>
      </trkpt>
      <trkpt lat="43.8148" lon="7.24254">
        <ele>558.60070800781</ele>
        <time>2011-10-08T14:22:05Z</time>
      </trkpt>
      <trkpt lat="43.81476" lon="7.24272">
        <ele>559.61572265625</ele>
        <time>2011-10-08T14:22:11Z</time>
      </trkpt>
      <trkpt lat="43.81475" lon="7.24285">
        <ele>559.55926513672</ele>
        <time>2011-10-08T14:22:16Z</time>
      </trkpt>
      <trkpt lat="43.81479" lon="7.24301">
        <ele>556.81170654297</ele>
        <time>2011-10-08T14:22:23Z</time>
      </trkpt>
      <trkpt lat="43.8148" lon="7.24313">
        <ele>556.15563964844</ele>
        <time>2011-10-08T14:22:29Z</time>
      </trkpt>
      <trkpt lat="43.81485" lon="7.24315">
        <ele>553.80999755859</ele>
        <time>2011-10-08T14:22:45Z</time>
      </trkpt>
      <trkpt lat="43.81487" lon="7.24318">
        <ele>553.064453125</ele>
        <time>2011-10-08T14:23:11Z</time>
      </trkpt>
      <trkpt lat="43.81486" lon="7.24319">
        <ele>553.3427734375</ele>
        <time>2011-10-08T14:23:32Z</time>
      </trkpt>
      <trkpt lat="43.81482" lon="7.24321">
        <ele>555.02758789062</ele>
        <time>2011-10-08T14:23:44Z</time>
      </trkpt>
      <trkpt lat="43.81462" lon="7.24326">
        <ele>563.02001953125</ele>
        <time>2011-10-08T14:23:50Z</time>
      </trkpt>
      <trkpt lat="43.81441" lon="7.24334">
        <ele>570.89532470703</ele>
        <time>2011-10-08T14:23:54Z</time>
      </trkpt>
      <trkpt lat="43.81434" lon="7.24336">
        <ele>573.060546875</ele>
        <time>2011-10-08T14:23:55Z</time>
      </trkpt>
      <trkpt lat="43.81413" lon="7.24354">
        <ele>578.14849853516</ele>
        <time>2011-10-08T14:23:59Z</time>
      </trkpt>
      <trkpt lat="43.81385" lon="7.24393">
        <ele>580.45672607422</ele>
        <time>2011-10-08T14:24:05Z</time>
      </trkpt>
      <trkpt lat="43.81355" lon="7.2442">
        <ele>586.52301025391</ele>
        <time>2011-10-08T14:24:09Z</time>
      </trkpt>
      <trkpt lat="43.81334" lon="7.24457">
        <ele>575.72644042969</ele>
        <time>2011-10-08T14:24:13Z</time>
      </trkpt>
      <trkpt lat="43.8131" lon="7.2449">
        <ele>567.02581787109</ele>
        <time>2011-10-08T14:24:17Z</time>
      </trkpt>
      <trkpt lat="43.81286" lon="7.24504">
        <ele>570.71496582031</ele>
        <time>2011-10-08T14:24:21Z</time>
      </trkpt>
      <trkpt lat="43.81277" lon="7.24499">
        <ele>576.45495605469</ele>
        <time>2011-10-08T14:24:23Z</time>
      </trkpt>
      <trkpt lat="43.81252" lon="7.24519">
        <ele>579.76477050781</ele>
        <time>2011-10-08T14:24:28Z</time>
      </trkpt>
      <trkpt lat="43.81257" lon="7.24547">
        <ele>567.05334472656</ele>
        <time>2011-10-08T14:24:31Z</time>
      </trkpt>
      <trkpt lat="43.81268" lon="7.24573">
        <ele>551.31500244141</ele>
        <time>2011-10-08T14:24:34Z</time>
      </trkpt>
      <trkpt lat="43.81273" lon="7.24618">
        <ele>543.7841796875</ele>
        <time>2011-10-08T14:24:39Z</time>
      </trkpt>
      <trkpt lat="43.81275" lon="7.2464">
        <ele>541.91070556641</ele>
        <time>2011-10-08T14:24:42Z</time>
      </trkpt>
      <trkpt lat="43.81263" lon="7.24672">
        <ele>545.74670410156</ele>
        <time>2011-10-08T14:24:47Z</time>
      </trkpt>
      <trkpt lat="43.81258" lon="7.24675">
        <ele>546.96917724609</ele>
        <time>2011-10-08T14:24:48Z</time>
      </trkpt>
      <trkpt lat="43.81243" lon="7.24683">
        <ele>551.15863037109</ele>
        <time>2011-10-08T14:24:51Z</time>
      </trkpt>
      <trkpt lat="43.81219" lon="7.2469">
        <ele>561.11450195312</ele>
        <time>2011-10-08T14:24:56Z</time>
      </trkpt>
      <trkpt lat="43.81195" lon="7.24708">
        <ele>567.88732910156</ele>
        <time>2011-10-08T14:25:01Z</time>
      </trkpt>
      <trkpt lat="43.81192" lon="7.24728">
        <ele>563.60827636719</ele>
        <time>2011-10-08T14:25:04Z</time>
      </trkpt>
      <trkpt lat="43.81201" lon="7.24747">
        <ele>552.03283691406</ele>
        <time>2011-10-08T14:25:07Z</time>
      </trkpt>
      <trkpt lat="43.81208" lon="7.24762">
        <ele>546.55932617188</ele>
        <time>2011-10-08T14:25:09Z</time>
      </trkpt>
      <trkpt lat="43.81218" lon="7.24783">
        <ele>538.76019287109</ele>
        <time>2011-10-08T14:25:12Z</time>
      </trkpt>
      <trkpt lat="43.81224" lon="7.24807">
        <ele>533.20007324219</ele>
        <time>2011-10-08T14:25:16Z</time>
      </trkpt>
      <trkpt lat="43.81223" lon="7.2482">
        <ele>533.25952148438</ele>
        <time>2011-10-08T14:25:19Z</time>
      </trkpt>
      <trkpt lat="43.81209" lon="7.24848">
        <ele>546.04779052734</ele>
        <time>2011-10-08T14:25:26Z</time>
      </trkpt>
      <trkpt lat="43.81212" lon="7.24869">
        <ele>547.77917480469</ele>
        <time>2011-10-08T14:25:32Z</time>
      </trkpt>
      <trkpt lat="43.81211" lon="7.24891">
        <ele>552.07171630859</ele>
        <time>2011-10-08T14:25:38Z</time>
      </trkpt>
      <trkpt lat="43.81214" lon="7.24905">
        <ele>552.35760498047</ele>
        <time>2011-10-08T14:25:43Z</time>
      </trkpt>
      <trkpt lat="43.81224" lon="7.24922">
        <ele>546.34460449219</ele>
        <time>2011-10-08T14:25:51Z</time>
      </trkpt>
      <trkpt lat="43.81228" lon="7.24935">
        <ele>544.39337158203</ele>
        <time>2011-10-08T14:25:57Z</time>
      </trkpt>
      <trkpt lat="43.81229" lon="7.24937">
        <ele>543.95678710938</ele>
        <time>2011-10-08T14:25:58Z</time>
      </trkpt>
      <trkpt lat="43.81232" lon="7.2494">
        <ele>540.85717773438</ele>
        <time>2011-10-08T14:26:05Z</time>
      </trkpt>
      <trkpt lat="43.81233" lon="7.24945">
        <ele>540.71411132812</ele>
        <time>2011-10-08T14:26:21Z</time>
      </trkpt>
      <trkpt lat="43.81234" lon="7.24954">
        <ele>541.07574462891</ele>
        <time>2011-10-08T14:26:25Z</time>
      </trkpt>
      <trkpt lat="43.81235" lon="7.24967">
        <ele>541.76696777344</ele>
        <time>2011-10-08T14:26:30Z</time>
      </trkpt>
      <trkpt lat="43.81235" lon="7.24969">
        <ele>542.06567382812</ele>
        <time>2011-10-08T14:26:31Z</time>
      </trkpt>
      <trkpt lat="43.81238" lon="7.2498">
        <ele>540.19110107422</ele>
        <time>2011-10-08T14:26:36Z</time>
      </trkpt>
      <trkpt lat="43.8125" lon="7.24991">
        <ele>530.87023925781</ele>
        <time>2011-10-08T14:26:43Z</time>
      </trkpt>
      <trkpt lat="43.81258" lon="7.25005">
        <ele>530.47692871094</ele>
        <time>2011-10-08T14:26:50Z</time>
      </trkpt>
      <trkpt lat="43.81258" lon="7.25007">
        <ele>531.16613769531</ele>
        <time>2011-10-08T14:26:51Z</time>
      </trkpt>
      <trkpt lat="43.81262" lon="7.25025">
        <ele>536.51708984375</ele>
        <time>2011-10-08T14:26:58Z</time>
      </trkpt>
      <trkpt lat="43.81264" lon="7.25026">
        <ele>536.53564453125</ele>
        <time>2011-10-08T14:27:02Z</time>
      </trkpt>
      <trkpt lat="43.81266" lon="7.25023">
        <ele>534.50445556641</ele>
        <time>2011-10-08T14:27:07Z</time>
      </trkpt>
      <trkpt lat="43.81268" lon="7.25019">
        <ele>531.99017333984</ele>
        <time>2011-10-08T14:27:13Z</time>
      </trkpt>
      <trkpt lat="43.81271" lon="7.25024">
        <ele>533.02667236328</ele>
        <time>2011-10-08T14:27:36Z</time>
      </trkpt>
      <trkpt lat="43.81271" lon="7.25027">
        <ele>534.02508544922</ele>
        <time>2011-10-08T14:27:57Z</time>
      </trkpt>
      <trkpt lat="43.81271" lon="7.25027">
        <ele>534.06427001953</ele>
        <time>2011-10-08T14:27:58Z</time>
      </trkpt>
      <trkpt lat="43.81268" lon="7.25028">
        <ele>535.50042724609</ele>
        <time>2011-10-08T14:29:40Z</time>
      </trkpt>
      <trkpt lat="43.81268" lon="7.25028">
        <ele>535.60650634766</ele>
        <time>2011-10-08T14:29:41Z</time>
      </trkpt>
      <trkpt lat="43.81276" lon="7.25033">
        <ele>534.69232177734</ele>
        <time>2011-10-08T14:32:33Z</time>
      </trkpt>
      <trkpt lat="43.81276" lon="7.25033">
        <ele>534.73236083984</ele>
        <time>2011-10-08T14:32:34Z</time>
      </trkpt>
      <trkpt lat="43.81271" lon="7.25028">
        <ele>534.59283447266</ele>
        <time>2011-10-08T14:34:30Z</time>
      </trkpt>
      <trkpt lat="43.81265" lon="7.25026">
        <ele>536.05950927734</ele>
        <time>2011-10-08T14:35:24Z</time>
      </trkpt>
      <trkpt lat="43.81265" lon="7.25026">
        <ele>536.04040527344</ele>
        <time>2011-10-08T14:35:25Z</time>
      </trkpt>
      <trkpt lat="43.81282" lon="7.2503">
        <ele>530.90850830078</ele>
        <time>2011-10-08T14:38:00Z</time>
      </trkpt>
      <trkpt lat="43.81282" lon="7.2503">
        <ele>530.90850830078</ele>
        <time>2011-10-08T14:38:01Z</time>
      </trkpt>
      <trkpt lat="43.81282" lon="7.2503">
        <ele>531.33941650391</ele>
        <time>2011-10-08T14:38:49Z</time>
      </trkpt>
      <trkpt lat="43.81282" lon="7.2503">
        <ele>531.09265136719</ele>
        <time>2011-10-08T14:38:53Z</time>
      </trkpt>
      <trkpt lat="43.81278" lon="7.25037">
        <ele>535.50524902344</ele>
        <time>2011-10-08T14:38:58Z</time>
      </trkpt>
      <trkpt lat="43.81274" lon="7.25044">
        <ele>539.63793945312</ele>
        <time>2011-10-08T14:39:02Z</time>
      </trkpt>
      <trkpt lat="43.81271" lon="7.25048">
        <ele>542.75067138672</ele>
        <time>2011-10-08T14:39:06Z</time>
      </trkpt>
      <trkpt lat="43.81268" lon="7.25056">
        <ele>547.04455566406</ele>
        <time>2011-10-08T14:39:11Z</time>
      </trkpt>
      <trkpt lat="43.8126" lon="7.25071">
        <ele>555.5205078125</ele>
        <time>2011-10-08T14:39:19Z</time>
      </trkpt>
      <trkpt lat="43.81258" lon="7.25083">
        <ele>560.75897216797</ele>
        <time>2011-10-08T14:39:26Z</time>
      </trkpt>
      <trkpt lat="43.81259" lon="7.25088">
        <ele>562.6201171875</ele>
        <time>2011-10-08T14:39:30Z</time>
      </trkpt>
      <trkpt lat="43.81263" lon="7.25093">
        <ele>564.10614013672</ele>
        <time>2011-10-08T14:39:35Z</time>
      </trkpt>
      <trkpt lat="43.81265" lon="7.25095">
        <ele>564.54956054688</ele>
        <time>2011-10-08T14:39:37Z</time>
      </trkpt>
      <trkpt lat="43.81275" lon="7.25098">
        <ele>563.18548583984</ele>
        <time>2011-10-08T14:39:43Z</time>
      </trkpt>
      <trkpt lat="43.81281" lon="7.25099">
        <ele>562.56213378906</ele>
        <time>2011-10-08T14:39:48Z</time>
      </trkpt>
      <trkpt lat="43.81288" lon="7.25103">
        <ele>563.02978515625</ele>
        <time>2011-10-08T14:39:54Z</time>
      </trkpt>
      <trkpt lat="43.81289" lon="7.25104">
        <ele>563.02825927734</ele>
        <time>2011-10-08T14:39:55Z</time>
      </trkpt>
      <trkpt lat="43.81305" lon="7.25111">
        <ele>563.42919921875</ele>
        <time>2011-10-08T14:40:04Z</time>
      </trkpt>
      <trkpt lat="43.81318" lon="7.25119">
        <ele>565.52801513672</ele>
        <time>2011-10-08T14:40:11Z</time>
      </trkpt>
      <trkpt lat="43.81326" lon="7.25129">
        <ele>569.75390625</ele>
        <time>2011-10-08T14:40:17Z</time>
      </trkpt>
      <trkpt lat="43.81326" lon="7.2513">
        <ele>570.32635498047</ele>
        <time>2011-10-08T14:40:18Z</time>
      </trkpt>
      <trkpt lat="43.81328" lon="7.25146">
        <ele>579.84246826172</ele>
        <time>2011-10-08T14:40:27Z</time>
      </trkpt>
      <trkpt lat="43.81326" lon="7.25166">
        <ele>592.38452148438</ele>
        <time>2011-10-08T14:40:36Z</time>
      </trkpt>
      <trkpt lat="43.81327" lon="7.2517">
        <ele>594.02368164062</ele>
        <time>2011-10-08T14:40:38Z</time>
      </trkpt>
      <trkpt lat="43.81326" lon="7.25177">
        <ele>597.01593017578</ele>
        <time>2011-10-08T14:40:42Z</time>
      </trkpt>
      <trkpt lat="43.81335" lon="7.25185">
        <ele>599.31463623047</ele>
        <time>2011-10-08T14:40:48Z</time>
      </trkpt>
      <trkpt lat="43.8135" lon="7.25188">
        <ele>600.64453125</ele>
        <time>2011-10-08T14:40:55Z</time>
      </trkpt>
      <trkpt lat="43.8136" lon="7.25186">
        <ele>600.06695556641</ele>
        <time>2011-10-08T14:41:01Z</time>
      </trkpt>
      <trkpt lat="43.81366" lon="7.25186">
        <ele>600.04266357422</ele>
        <time>2011-10-08T14:41:04Z</time>
      </trkpt>
      <trkpt lat="43.81376" lon="7.25187">
        <ele>600.27014160156</ele>
        <time>2011-10-08T14:41:09Z</time>
      </trkpt>
      <trkpt lat="43.81393" lon="7.25183">
        <ele>598.73010253906</ele>
        <time>2011-10-08T14:41:18Z</time>
      </trkpt>
      <trkpt lat="43.81406" lon="7.25183">
        <ele>598.65875244141</ele>
        <time>2011-10-08T14:41:24Z</time>
      </trkpt>
      <trkpt lat="43.81417" lon="7.2518">
        <ele>597.49652099609</ele>
        <time>2011-10-08T14:41:29Z</time>
      </trkpt>
      <trkpt lat="43.81431" lon="7.25178">
        <ele>595.88665771484</ele>
        <time>2011-10-08T14:41:35Z</time>
      </trkpt>
      <trkpt lat="43.81449" lon="7.25178">
        <ele>595.11114501953</ele>
        <time>2011-10-08T14:41:41Z</time>
      </trkpt>
      <trkpt lat="43.81474" lon="7.25179">
        <ele>593.85278320312</ele>
        <time>2011-10-08T14:41:50Z</time>
      </trkpt>
      <trkpt lat="43.81487" lon="7.25181">
        <ele>594.05517578125</ele>
        <time>2011-10-08T14:41:55Z</time>
      </trkpt>
      <trkpt lat="43.81499" lon="7.25192">
        <ele>597.21295166016</ele>
        <time>2011-10-08T14:42:01Z</time>
      </trkpt>
      <trkpt lat="43.81514" lon="7.25203">
        <ele>598.63311767578</ele>
        <time>2011-10-08T14:42:08Z</time>
      </trkpt>
      <trkpt lat="43.81532" lon="7.25214">
        <ele>599.30780029297</ele>
        <time>2011-10-08T14:42:16Z</time>
      </trkpt>
      <trkpt lat="43.81553" lon="7.25223">
        <ele>598.5615234375</ele>
        <time>2011-10-08T14:42:24Z</time>
      </trkpt>
      <trkpt lat="43.81573" lon="7.25238">
        <ele>599.29119873047</ele>
        <time>2011-10-08T14:42:32Z</time>
      </trkpt>
      <trkpt lat="43.8159" lon="7.2525">
        <ele>598.97650146484</ele>
        <time>2011-10-08T14:42:40Z</time>
      </trkpt>
      <trkpt lat="43.81603" lon="7.25261">
        <ele>597.41369628906</ele>
        <time>2011-10-08T14:42:46Z</time>
      </trkpt>
      <trkpt lat="43.81621" lon="7.25273">
        <ele>594.53845214844</ele>
        <time>2011-10-08T14:42:54Z</time>
      </trkpt>
      <trkpt lat="43.81633" lon="7.25293">
        <ele>595.43865966797</ele>
        <time>2011-10-08T14:43:01Z</time>
      </trkpt>
      <trkpt lat="43.81647" lon="7.25324">
        <ele>598.31420898438</ele>
        <time>2011-10-08T14:43:10Z</time>
      </trkpt>
      <trkpt lat="43.81658" lon="7.25354">
        <ele>599.92620849609</ele>
        <time>2011-10-08T14:43:18Z</time>
      </trkpt>
      <trkpt lat="43.81668" lon="7.25378">
        <ele>600.14654541016</ele>
        <time>2011-10-08T14:43:25Z</time>
      </trkpt>
      <trkpt lat="43.81677" lon="7.254">
        <ele>601.49157714844</ele>
        <time>2011-10-08T14:43:31Z</time>
      </trkpt>
      <trkpt lat="43.81689" lon="7.25418">
        <ele>602.64575195312</ele>
        <time>2011-10-08T14:43:37Z</time>
      </trkpt>
      <trkpt lat="43.81692" lon="7.25424">
        <ele>602.66540527344</ele>
        <time>2011-10-08T14:43:39Z</time>
      </trkpt>
      <trkpt lat="43.81699" lon="7.2544">
        <ele>603.27770996094</ele>
        <time>2011-10-08T14:43:44Z</time>
      </trkpt>
      <trkpt lat="43.817" lon="7.25443">
        <ele>603.46411132812</ele>
        <time>2011-10-08T14:43:45Z</time>
      </trkpt>
      <trkpt lat="43.81704" lon="7.2545">
        <ele>604.00720214844</ele>
        <time>2011-10-08T14:43:49Z</time>
      </trkpt>
      <trkpt lat="43.81702" lon="7.25458">
        <ele>604.67791748047</ele>
        <time>2011-10-08T14:43:54Z</time>
      </trkpt>
      <trkpt lat="43.81694" lon="7.25455">
        <ele>604.47467041016</ele>
        <time>2011-10-08T14:44:02Z</time>
      </trkpt>
      <trkpt lat="43.81686" lon="7.25452">
        <ele>604.33892822266</ele>
        <time>2011-10-08T14:44:10Z</time>
      </trkpt>
      <trkpt lat="43.81683" lon="7.25449">
        <ele>604.29162597656</ele>
        <time>2011-10-08T14:44:16Z</time>
      </trkpt>
      <trkpt lat="43.81677" lon="7.25447">
        <ele>604.38000488281</ele>
        <time>2011-10-08T14:44:22Z</time>
      </trkpt>
      <trkpt lat="43.81665" lon="7.25442">
        <ele>604.92449951172</ele>
        <time>2011-10-08T14:44:30Z</time>
      </trkpt>
      <trkpt lat="43.81657" lon="7.25436">
        <ele>606.57678222656</ele>
        <time>2011-10-08T14:44:36Z</time>
      </trkpt>
      <trkpt lat="43.8165" lon="7.25432">
        <ele>608.22198486328</ele>
        <time>2011-10-08T14:44:42Z</time>
      </trkpt>
      <trkpt lat="43.81648" lon="7.25431">
        <ele>608.56732177734</ele>
        <time>2011-10-08T14:44:43Z</time>
      </trkpt>
      <trkpt lat="43.81646" lon="7.25434">
        <ele>608.87048339844</ele>
        <time>2011-10-08T14:44:52Z</time>
      </trkpt>
      <trkpt lat="43.81665" lon="7.25446">
        <ele>605.00079345703</ele>
        <time>2011-10-08T14:44:59Z</time>
      </trkpt>
      <trkpt lat="43.81691" lon="7.25463">
        <ele>604.90264892578</ele>
        <time>2011-10-08T14:45:06Z</time>
      </trkpt>
      <trkpt lat="43.81701" lon="7.25467">
        <ele>605.44921875</ele>
        <time>2011-10-08T14:45:09Z</time>
      </trkpt>
      <trkpt lat="43.81713" lon="7.25468">
        <ele>605.92913818359</ele>
        <time>2011-10-08T14:45:16Z</time>
      </trkpt>
      <trkpt lat="43.81714" lon="7.25465">
        <ele>605.56549072266</ele>
        <time>2011-10-08T14:45:20Z</time>
      </trkpt>
      <trkpt lat="43.8171" lon="7.25468">
        <ele>605.81097412109</ele>
        <time>2011-10-08T14:45:24Z</time>
      </trkpt>
      <trkpt lat="43.81714" lon="7.25475">
        <ele>606.76641845703</ele>
        <time>2011-10-08T14:45:28Z</time>
      </trkpt>
      <trkpt lat="43.8172" lon="7.25473">
        <ele>606.80987548828</ele>
        <time>2011-10-08T14:45:32Z</time>
      </trkpt>
      <trkpt lat="43.81716" lon="7.2547">
        <ele>606.22125244141</ele>
        <time>2011-10-08T14:45:36Z</time>
      </trkpt>
      <trkpt lat="43.81702" lon="7.25458">
        <ele>604.66625976562</ele>
        <time>2011-10-08T14:45:43Z</time>
      </trkpt>
      <trkpt lat="43.8169" lon="7.25448">
        <ele>604.07891845703</ele>
        <time>2011-10-08T14:45:49Z</time>
      </trkpt>
      <trkpt lat="43.81678" lon="7.2543">
        <ele>604.05200195312</ele>
        <time>2011-10-08T14:45:58Z</time>
      </trkpt>
      <trkpt lat="43.81674" lon="7.25424">
        <ele>604.28216552734</ele>
        <time>2011-10-08T14:46:01Z</time>
      </trkpt>
      <trkpt lat="43.81663" lon="7.25414">
        <ele>605.49157714844</ele>
        <time>2011-10-08T14:46:08Z</time>
      </trkpt>
      <trkpt lat="43.81656" lon="7.25404">
        <ele>605.97589111328</ele>
        <time>2011-10-08T14:46:14Z</time>
      </trkpt>
      <trkpt lat="43.8165" lon="7.25394">
        <ele>606.44793701172</ele>
        <time>2011-10-08T14:46:21Z</time>
      </trkpt>
      <trkpt lat="43.81644" lon="7.25391">
        <ele>607.38928222656</ele>
        <time>2011-10-08T14:46:26Z</time>
      </trkpt>
      <trkpt lat="43.8164" lon="7.25389">
        <ele>608.20233154297</ele>
        <time>2011-10-08T14:46:32Z</time>
      </trkpt>
      <trkpt lat="43.81638" lon="7.25387">
        <ele>608.55206298828</ele>
        <time>2011-10-08T14:46:40Z</time>
      </trkpt>
      <trkpt lat="43.81637" lon="7.25387">
        <ele>608.78527832031</ele>
        <time>2011-10-08T14:46:44Z</time>
      </trkpt>
      <trkpt lat="43.81637" lon="7.25387">
        <ele>608.75701904297</ele>
        <time>2011-10-08T14:46:48Z</time>
      </trkpt>
      <trkpt lat="43.81637" lon="7.25387">
        <ele>608.76171875</ele>
        <time>2011-10-08T14:46:49Z</time>
      </trkpt>
      <trkpt lat="43.8163" lon="7.25392">
        <ele>611.02557373047</ele>
        <time>2011-10-08T14:47:14Z</time>
      </trkpt>
      <trkpt lat="43.81627" lon="7.25388">
        <ele>611.41058349609</ele>
        <time>2011-10-08T14:47:20Z</time>
      </trkpt>
      <trkpt lat="43.81625" lon="7.25385">
        <ele>611.54937744141</ele>
        <time>2011-10-08T14:47:22Z</time>
      </trkpt>
      <trkpt lat="43.81624" lon="7.25383">
        <ele>611.71960449219</ele>
        <time>2011-10-08T14:47:24Z</time>
      </trkpt>
      <trkpt lat="43.81623" lon="7.25381">
        <ele>611.8193359375</ele>
        <time>2011-10-08T14:47:25Z</time>
      </trkpt>
      <trkpt lat="43.81621" lon="7.25378">
        <ele>612.10479736328</ele>
        <time>2011-10-08T14:47:28Z</time>
      </trkpt>
      <trkpt lat="43.8162" lon="7.25377">
        <ele>612.30712890625</ele>
        <time>2011-10-08T14:47:29Z</time>
      </trkpt>
      <trkpt lat="43.81618" lon="7.25375">
        <ele>612.38507080078</ele>
        <time>2011-10-08T14:47:31Z</time>
      </trkpt>
      <trkpt lat="43.81618" lon="7.25373">
        <ele>612.39440917969</ele>
        <time>2011-10-08T14:47:32Z</time>
      </trkpt>
      <trkpt lat="43.81617" lon="7.25373">
        <ele>612.61462402344</ele>
        <time>2011-10-08T14:47:37Z</time>
      </trkpt>
      <trkpt lat="43.8161" lon="7.25368">
        <ele>613.93505859375</ele>
        <time>2011-10-08T14:47:46Z</time>
      </trkpt>
      <trkpt lat="43.81609" lon="7.25367">
        <ele>614.37713623047</ele>
        <time>2011-10-08T14:47:52Z</time>
      </trkpt>
      <trkpt lat="43.81606" lon="7.25363">
        <ele>614.65936279297</ele>
        <time>2011-10-08T14:48:00Z</time>
      </trkpt>
      <trkpt lat="43.81606" lon="7.25362">
        <ele>614.71380615234</ele>
        <time>2011-10-08T14:48:01Z</time>
      </trkpt>
      <trkpt lat="43.81605" lon="7.25361">
        <ele>614.90075683594</ele>
        <time>2011-10-08T14:48:04Z</time>
      </trkpt>
      <trkpt lat="43.81602" lon="7.25357">
        <ele>615.41888427734</ele>
        <time>2011-10-08T14:48:12Z</time>
      </trkpt>
      <trkpt lat="43.816" lon="7.25356">
        <ele>615.77416992188</ele>
        <time>2011-10-08T14:48:17Z</time>
      </trkpt>
      <trkpt lat="43.81601" lon="7.25356">
        <ele>615.67053222656</ele>
        <time>2011-10-08T14:48:20Z</time>
      </trkpt>
      <trkpt lat="43.81599" lon="7.25355">
        <ele>615.99676513672</ele>
        <time>2011-10-08T14:48:24Z</time>
      </trkpt>
      <trkpt lat="43.81595" lon="7.25353">
        <ele>616.90600585938</ele>
        <time>2011-10-08T14:48:30Z</time>
      </trkpt>
      <trkpt lat="43.81594" lon="7.25352">
        <ele>617.25659179688</ele>
        <time>2011-10-08T14:48:33Z</time>
      </trkpt>
      <trkpt lat="43.81593" lon="7.25351">
        <ele>617.54553222656</ele>
        <time>2011-10-08T14:48:34Z</time>
      </trkpt>
      <trkpt lat="43.8159" lon="7.2535">
        <ele>618.1005859375</ele>
        <time>2011-10-08T14:48:37Z</time>
      </trkpt>
      <trkpt lat="43.8159" lon="7.2535">
        <ele>618.19036865234</ele>
        <time>2011-10-08T14:48:38Z</time>
      </trkpt>
      <trkpt lat="43.81589" lon="7.25346">
        <ele>618.17456054688</ele>
        <time>2011-10-08T14:48:45Z</time>
      </trkpt>
      <trkpt lat="43.81584" lon="7.25341">
        <ele>619.35144042969</ele>
        <time>2011-10-08T14:48:55Z</time>
      </trkpt>
      <trkpt lat="43.81577" lon="7.2534">
        <ele>620.83770751953</ele>
        <time>2011-10-08T14:49:03Z</time>
      </trkpt>
      <trkpt lat="43.81571" lon="7.2534">
        <ele>622.27941894531</ele>
        <time>2011-10-08T14:49:09Z</time>
      </trkpt>
      <trkpt lat="43.81565" lon="7.25336">
        <ele>623.41925048828</ele>
        <time>2011-10-08T14:49:17Z</time>
      </trkpt>
      <trkpt lat="43.81563" lon="7.25335">
        <ele>624.02551269531</ele>
        <time>2011-10-08T14:49:23Z</time>
      </trkpt>
      <trkpt lat="43.81561" lon="7.25336">
        <ele>624.40966796875</ele>
        <time>2011-10-08T14:49:25Z</time>
      </trkpt>
      <trkpt lat="43.81556" lon="7.25335">
        <ele>625.73834228516</ele>
        <time>2011-10-08T14:49:32Z</time>
      </trkpt>
      <trkpt lat="43.81553" lon="7.25334">
        <ele>626.44427490234</ele>
        <time>2011-10-08T14:49:38Z</time>
      </trkpt>
      <trkpt lat="43.8155" lon="7.25334">
        <ele>627.05364990234</ele>
        <time>2011-10-08T14:50:06Z</time>
      </trkpt>
      <trkpt lat="43.81549" lon="7.25334">
        <ele>627.14300537109</ele>
        <time>2011-10-08T14:50:08Z</time>
      </trkpt>
      <trkpt lat="43.81549" lon="7.25334">
        <ele>627.14300537109</ele>
        <time>2011-10-08T14:50:09Z</time>
      </trkpt>
      <trkpt lat="43.81549" lon="7.25334">
        <ele>627.15814208984</ele>
        <time>2011-10-08T14:50:10Z</time>
      </trkpt>
      <trkpt lat="43.8155" lon="7.25334">
        <ele>627.06451416016</ele>
        <time>2011-10-08T14:50:11Z</time>
      </trkpt>
      <trkpt lat="43.81546" lon="7.25335">
        <ele>628.03979492188</ele>
        <time>2011-10-08T14:50:16Z</time>
      </trkpt>
      <trkpt lat="43.81543" lon="7.25336">
        <ele>628.80621337891</ele>
        <time>2011-10-08T14:50:18Z</time>
      </trkpt>
      <trkpt lat="43.81542" lon="7.25336">
        <ele>629.09350585938</ele>
        <time>2011-10-08T14:50:19Z</time>
      </trkpt>
      <trkpt lat="43.81539" lon="7.25337">
        <ele>629.85681152344</ele>
        <time>2011-10-08T14:50:21Z</time>
      </trkpt>
      <trkpt lat="43.81537" lon="7.25338">
        <ele>630.24334716797</ele>
        <time>2011-10-08T14:50:22Z</time>
      </trkpt>
      <trkpt lat="43.81526" lon="7.25345">
        <ele>633.12414550781</ele>
        <time>2011-10-08T14:50:31Z</time>
      </trkpt>
      <trkpt lat="43.81516" lon="7.25352">
        <ele>635.75799560547</ele>
        <time>2011-10-08T14:50:37Z</time>
      </trkpt>
      <trkpt lat="43.81513" lon="7.25353">
        <ele>636.40447998047</ele>
        <time>2011-10-08T14:50:39Z</time>
      </trkpt>
      <trkpt lat="43.81511" lon="7.25354">
        <ele>637.05291748047</ele>
        <time>2011-10-08T14:50:41Z</time>
      </trkpt>
      <trkpt lat="43.81509" lon="7.25355">
        <ele>637.42694091797</ele>
        <time>2011-10-08T14:50:42Z</time>
      </trkpt>
      <trkpt lat="43.81504" lon="7.25356">
        <ele>638.59875488281</ele>
        <time>2011-10-08T14:50:46Z</time>
      </trkpt>
      <trkpt lat="43.81503" lon="7.25357">
        <ele>638.81573486328</ele>
        <time>2011-10-08T14:50:53Z</time>
      </trkpt>
      <trkpt lat="43.81501" lon="7.2536">
        <ele>639.31134033203</ele>
        <time>2011-10-08T14:50:59Z</time>
      </trkpt>
      <trkpt lat="43.81497" lon="7.25365">
        <ele>640.10192871094</ele>
        <time>2011-10-08T14:51:07Z</time>
      </trkpt>
      <trkpt lat="43.81495" lon="7.25366">
        <ele>640.35827636719</ele>
        <time>2011-10-08T14:51:10Z</time>
      </trkpt>
      <trkpt lat="43.81492" lon="7.2537">
        <ele>640.85607910156</ele>
        <time>2011-10-08T14:51:19Z</time>
      </trkpt>
      <trkpt lat="43.81494" lon="7.25369">
        <ele>640.59631347656</ele>
        <time>2011-10-08T14:51:27Z</time>
      </trkpt>
      <trkpt lat="43.81495" lon="7.25368">
        <ele>640.49444580078</ele>
        <time>2011-10-08T14:51:32Z</time>
      </trkpt>
      <trkpt lat="43.81494" lon="7.25368">
        <ele>640.5322265625</ele>
        <time>2011-10-08T14:51:37Z</time>
      </trkpt>
      <trkpt lat="43.81494" lon="7.25368">
        <ele>640.52996826172</ele>
        <time>2011-10-08T14:51:38Z</time>
      </trkpt>
      <trkpt lat="43.81495" lon="7.25368">
        <ele>640.48187255859</ele>
        <time>2011-10-08T14:51:39Z</time>
      </trkpt>
      <trkpt lat="43.81495" lon="7.25368">
        <ele>640.47845458984</ele>
        <time>2011-10-08T14:51:40Z</time>
      </trkpt>
      <trkpt lat="43.81492" lon="7.25369">
        <ele>640.78283691406</ele>
        <time>2011-10-08T14:51:55Z</time>
      </trkpt>
      <trkpt lat="43.81485" lon="7.25373">
        <ele>641.79565429688</ele>
        <time>2011-10-08T14:52:00Z</time>
      </trkpt>
      <trkpt lat="43.81484" lon="7.25373">
        <ele>641.90093994141</ele>
        <time>2011-10-08T14:52:01Z</time>
      </trkpt>
      <trkpt lat="43.8147" lon="7.2538">
        <ele>643.748046875</ele>
        <time>2011-10-08T14:52:12Z</time>
      </trkpt>
      <trkpt lat="43.81461" lon="7.25386">
        <ele>644.93823242188</ele>
        <time>2011-10-08T14:52:21Z</time>
      </trkpt>
      <trkpt lat="43.81453" lon="7.25388">
        <ele>646.01507568359</ele>
        <time>2011-10-08T14:52:28Z</time>
      </trkpt>
      <trkpt lat="43.81448" lon="7.25392">
        <ele>646.59417724609</ele>
        <time>2011-10-08T14:52:32Z</time>
      </trkpt>
      <trkpt lat="43.81442" lon="7.25395">
        <ele>647.41815185547</ele>
        <time>2011-10-08T14:52:39Z</time>
      </trkpt>
      <trkpt lat="43.81441" lon="7.25396">
        <ele>647.56805419922</ele>
        <time>2011-10-08T14:52:49Z</time>
      </trkpt>
      <trkpt lat="43.81448" lon="7.25392">
        <ele>646.69830322266</ele>
        <time>2011-10-08T14:53:02Z</time>
      </trkpt>
      <trkpt lat="43.81449" lon="7.25391">
        <ele>646.49572753906</ele>
        <time>2011-10-08T14:53:08Z</time>
      </trkpt>
      <trkpt lat="43.81448" lon="7.25392">
        <ele>646.69604492188</ele>
        <time>2011-10-08T14:53:32Z</time>
      </trkpt>
      <trkpt lat="43.81448" lon="7.25392">
        <ele>646.69604492188</ele>
        <time>2011-10-08T14:53:33Z</time>
      </trkpt>
      <trkpt lat="43.81445" lon="7.25394">
        <ele>647.05535888672</ele>
        <time>2011-10-08T14:54:06Z</time>
      </trkpt>
      <trkpt lat="43.81445" lon="7.25394">
        <ele>647.10345458984</ele>
        <time>2011-10-08T14:54:09Z</time>
      </trkpt>
      <trkpt lat="43.81442" lon="7.25396">
        <ele>647.47882080078</ele>
        <time>2011-10-08T14:54:59Z</time>
      </trkpt>
      <trkpt lat="43.81442" lon="7.25396">
        <ele>647.47882080078</ele>
        <time>2011-10-08T14:55:00Z</time>
      </trkpt>
      <trkpt lat="43.81441" lon="7.25396">
        <ele>647.58062744141</ele>
        <time>2011-10-08T14:55:24Z</time>
      </trkpt>
      <trkpt lat="43.81441" lon="7.25396">
        <ele>647.58062744141</ele>
        <time>2011-10-08T14:55:25Z</time>
      </trkpt>
      <trkpt lat="43.81439" lon="7.25397">
        <ele>647.81182861328</ele>
        <time>2011-10-08T14:55:32Z</time>
      </trkpt>
      <trkpt lat="43.8144" lon="7.25396">
        <ele>647.74542236328</ele>
        <time>2011-10-08T14:55:48Z</time>
      </trkpt>
      <trkpt lat="43.81439" lon="7.25395">
        <ele>647.7763671875</ele>
        <time>2011-10-08T14:55:52Z</time>
      </trkpt>
      <trkpt lat="43.81422" lon="7.25394">
        <ele>649.80535888672</ele>
        <time>2011-10-08T14:55:58Z</time>
      </trkpt>
      <trkpt lat="43.814" lon="7.25391">
        <ele>651.29443359375</ele>
        <time>2011-10-08T14:56:02Z</time>
      </trkpt>
      <trkpt lat="43.81368" lon="7.25384">
        <ele>652.99853515625</ele>
        <time>2011-10-08T14:56:07Z</time>
      </trkpt>
      <trkpt lat="43.81356" lon="7.25381">
        <ele>653.65313720703</ele>
        <time>2011-10-08T14:56:09Z</time>
      </trkpt>
      <trkpt lat="43.81328" lon="7.25371">
        <ele>655.10357666016</ele>
        <time>2011-10-08T14:56:14Z</time>
      </trkpt>
      <trkpt lat="43.81313" lon="7.25369">
        <ele>655.4384765625</ele>
        <time>2011-10-08T14:56:19Z</time>
      </trkpt>
      <trkpt lat="43.81306" lon="7.25366">
        <ele>655.74554443359</ele>
        <time>2011-10-08T14:56:24Z</time>
      </trkpt>
      <trkpt lat="43.81301" lon="7.25365">
        <ele>655.94226074219</ele>
        <time>2011-10-08T14:56:30Z</time>
      </trkpt>
      <trkpt lat="43.81295" lon="7.25361">
        <ele>656.38159179688</ele>
        <time>2011-10-08T14:56:37Z</time>
      </trkpt>
      <trkpt lat="43.81294" lon="7.25361">
        <ele>656.44580078125</ele>
        <time>2011-10-08T14:56:38Z</time>
      </trkpt>
      <trkpt lat="43.81289" lon="7.25356">
        <ele>656.97497558594</ele>
        <time>2011-10-08T14:56:45Z</time>
      </trkpt>
      <trkpt lat="43.81281" lon="7.25354">
        <ele>657.57049560547</ele>
        <time>2011-10-08T14:56:52Z</time>
      </trkpt>
      <trkpt lat="43.81277" lon="7.25353">
        <ele>657.86016845703</ele>
        <time>2011-10-08T14:56:58Z</time>
      </trkpt>
      <trkpt lat="43.81273" lon="7.25353">
        <ele>658.01800537109</ele>
        <time>2011-10-08T14:57:04Z</time>
      </trkpt>
      <trkpt lat="43.81267" lon="7.2535">
        <ele>658.68530273438</ele>
        <time>2011-10-08T14:57:10Z</time>
      </trkpt>
      <trkpt lat="43.81263" lon="7.25344">
        <ele>659.57415771484</ele>
        <time>2011-10-08T14:57:17Z</time>
      </trkpt>
      <trkpt lat="43.81256" lon="7.25343">
        <ele>660.26916503906</ele>
        <time>2011-10-08T14:57:24Z</time>
      </trkpt>
      <trkpt lat="43.81252" lon="7.25341">
        <ele>660.7626953125</ele>
        <time>2011-10-08T14:57:30Z</time>
      </trkpt>
      <trkpt lat="43.8125" lon="7.25339">
        <ele>661.23101806641</ele>
        <time>2011-10-08T14:57:36Z</time>
      </trkpt>
      <trkpt lat="43.81243" lon="7.25338">
        <ele>662.35052490234</ele>
        <time>2011-10-08T14:57:44Z</time>
      </trkpt>
      <trkpt lat="43.81236" lon="7.25332">
        <ele>663.76251220703</ele>
        <time>2011-10-08T14:57:52Z</time>
      </trkpt>
      <trkpt lat="43.81233" lon="7.25332">
        <ele>664.18072509766</ele>
        <time>2011-10-08T14:57:57Z</time>
      </trkpt>
      <trkpt lat="43.81227" lon="7.25329">
        <ele>664.29077148438</ele>
        <time>2011-10-08T14:58:04Z</time>
      </trkpt>
      <trkpt lat="43.81221" lon="7.2533">
        <ele>665.49481201172</ele>
        <time>2011-10-08T14:58:09Z</time>
      </trkpt>
      <trkpt lat="43.81216" lon="7.2533">
        <ele>666.33990478516</ele>
        <time>2011-10-08T14:58:22Z</time>
      </trkpt>
      <trkpt lat="43.81204" lon="7.25326">
        <ele>667.53936767578</ele>
        <time>2011-10-08T14:58:29Z</time>
      </trkpt>
      <trkpt lat="43.81193" lon="7.25322">
        <ele>668.88153076172</ele>
        <time>2011-10-08T14:58:35Z</time>
      </trkpt>
      <trkpt lat="43.81181" lon="7.25314">
        <ele>670.40777587891</ele>
        <time>2011-10-08T14:58:42Z</time>
      </trkpt>
      <trkpt lat="43.81167" lon="7.25302">
        <ele>673.11755371094</ele>
        <time>2011-10-08T14:58:50Z</time>
      </trkpt>
      <trkpt lat="43.81157" lon="7.25295">
        <ele>674.46228027344</ele>
        <time>2011-10-08T14:58:56Z</time>
      </trkpt>
      <trkpt lat="43.81147" lon="7.25286">
        <ele>676.01806640625</ele>
        <time>2011-10-08T14:59:02Z</time>
      </trkpt>
      <trkpt lat="43.81137" lon="7.25282">
        <ele>677.81634521484</ele>
        <time>2011-10-08T14:59:08Z</time>
      </trkpt>
      <trkpt lat="43.8113" lon="7.2528">
        <ele>679.22204589844</ele>
        <time>2011-10-08T14:59:13Z</time>
      </trkpt>
      <trkpt lat="43.81129" lon="7.25279">
        <ele>679.54675292969</ele>
        <time>2011-10-08T14:59:14Z</time>
      </trkpt>
      <trkpt lat="43.81125" lon="7.25277">
        <ele>680.41339111328</ele>
        <time>2011-10-08T14:59:17Z</time>
      </trkpt>
      <trkpt lat="43.81122" lon="7.25276">
        <ele>681.03894042969</ele>
        <time>2011-10-08T14:59:19Z</time>
      </trkpt>
      <trkpt lat="43.81113" lon="7.25265">
        <ele>683.88397216797</ele>
        <time>2011-10-08T14:59:28Z</time>
      </trkpt>
      <trkpt lat="43.81106" lon="7.25256">
        <ele>686.52465820312</ele>
        <time>2011-10-08T14:59:35Z</time>
      </trkpt>
      <trkpt lat="43.811" lon="7.25248">
        <ele>688.66430664062</ele>
        <time>2011-10-08T14:59:41Z</time>
      </trkpt>
      <trkpt lat="43.81099" lon="7.25248">
        <ele>689.06268310547</ele>
        <time>2011-10-08T14:59:42Z</time>
      </trkpt>
      <trkpt lat="43.81089" lon="7.25248">
        <ele>691.56323242188</ele>
        <time>2011-10-08T14:59:50Z</time>
      </trkpt>
      <trkpt lat="43.81088" lon="7.25247">
        <ele>691.89575195312</ele>
        <time>2011-10-08T14:59:51Z</time>
      </trkpt>
      <trkpt lat="43.81086" lon="7.25247">
        <ele>692.54278564453</ele>
        <time>2011-10-08T14:59:53Z</time>
      </trkpt>
      <trkpt lat="43.81085" lon="7.25246">
        <ele>692.88720703125</ele>
        <time>2011-10-08T14:59:54Z</time>
      </trkpt>
      <trkpt lat="43.81082" lon="7.25245">
        <ele>693.39654541016</ele>
        <time>2011-10-08T14:59:56Z</time>
      </trkpt>
      <trkpt lat="43.81081" lon="7.25245">
        <ele>693.48321533203</ele>
        <time>2011-10-08T14:59:57Z</time>
      </trkpt>
      <trkpt lat="43.81073" lon="7.25239">
        <ele>694.37945556641</ele>
        <time>2011-10-08T15:00:03Z</time>
      </trkpt>
      <trkpt lat="43.81066" lon="7.25232">
        <ele>695.56298828125</ele>
        <time>2011-10-08T15:00:09Z</time>
      </trkpt>
      <trkpt lat="43.81059" lon="7.25223">
        <ele>697.23962402344</ele>
        <time>2011-10-08T15:00:15Z</time>
      </trkpt>
      <trkpt lat="43.81051" lon="7.25209">
        <ele>700.13873291016</ele>
        <time>2011-10-08T15:00:22Z</time>
      </trkpt>
      <trkpt lat="43.81048" lon="7.25203">
        <ele>701.45416259766</ele>
        <time>2011-10-08T15:00:25Z</time>
      </trkpt>
      <trkpt lat="43.81046" lon="7.25199">
        <ele>702.53546142578</ele>
        <time>2011-10-08T15:00:27Z</time>
      </trkpt>
      <trkpt lat="43.81045" lon="7.25197">
        <ele>703.12451171875</ele>
        <time>2011-10-08T15:00:28Z</time>
      </trkpt>
      <trkpt lat="43.81034" lon="7.25182">
        <ele>707.83203125</ele>
        <time>2011-10-08T15:00:35Z</time>
      </trkpt>
      <trkpt lat="43.81024" lon="7.2517">
        <ele>712.53570556641</ele>
        <time>2011-10-08T15:00:41Z</time>
      </trkpt>
      <trkpt lat="43.8101" lon="7.25153">
        <ele>718.38952636719</ele>
        <time>2011-10-08T15:00:50Z</time>
      </trkpt>
      <trkpt lat="43.81005" lon="7.25146">
        <ele>720.75225830078</ele>
        <time>2011-10-08T15:00:53Z</time>
      </trkpt>
      <trkpt lat="43.80994" lon="7.25124">
        <ele>725.60229492188</ele>
        <time>2011-10-08T15:01:02Z</time>
      </trkpt>
      <trkpt lat="43.80986" lon="7.25113">
        <ele>727.71307373047</ele>
        <time>2011-10-08T15:01:07Z</time>
      </trkpt>
      <trkpt lat="43.80974" lon="7.25101">
        <ele>730.90356445312</ele>
        <time>2011-10-08T15:01:14Z</time>
      </trkpt>
      <trkpt lat="43.80964" lon="7.25091">
        <ele>733.88336181641</ele>
        <time>2011-10-08T15:01:20Z</time>
      </trkpt>
      <trkpt lat="43.8095" lon="7.25081">
        <ele>737.64910888672</ele>
        <time>2011-10-08T15:01:28Z</time>
      </trkpt>
      <trkpt lat="43.80933" lon="7.25072">
        <ele>741.27093505859</ele>
        <time>2011-10-08T15:01:37Z</time>
      </trkpt>
      <trkpt lat="43.80922" lon="7.2507">
        <ele>743.42614746094</ele>
        <time>2011-10-08T15:01:43Z</time>
      </trkpt>
      <trkpt lat="43.80914" lon="7.25068">
        <ele>744.92907714844</ele>
        <time>2011-10-08T15:01:47Z</time>
      </trkpt>
      <trkpt lat="43.80902" lon="7.25066">
        <ele>745.90533447266</ele>
        <time>2011-10-08T15:01:52Z</time>
      </trkpt>
      <trkpt lat="43.80886" lon="7.25065">
        <ele>746.74810791016</ele>
        <time>2011-10-08T15:01:59Z</time>
      </trkpt>
      <trkpt lat="43.80876" lon="7.25059">
        <ele>749.10687255859</ele>
        <time>2011-10-08T15:02:05Z</time>
      </trkpt>
      <trkpt lat="43.80868" lon="7.25055">
        <ele>751.48046875</ele>
        <time>2011-10-08T15:02:12Z</time>
      </trkpt>
      <trkpt lat="43.80864" lon="7.25053">
        <ele>752.45428466797</ele>
        <time>2011-10-08T15:02:20Z</time>
      </trkpt>
      <trkpt lat="43.80863" lon="7.25052">
        <ele>752.71026611328</ele>
        <time>2011-10-08T15:02:21Z</time>
      </trkpt>
      <trkpt lat="43.80862" lon="7.25052">
        <ele>753.0986328125</ele>
        <time>2011-10-08T15:02:22Z</time>
      </trkpt>
      <trkpt lat="43.8086" lon="7.2505">
        <ele>753.92181396484</ele>
        <time>2011-10-08T15:02:24Z</time>
      </trkpt>
      <trkpt lat="43.80857" lon="7.25047">
        <ele>755.64697265625</ele>
        <time>2011-10-08T15:02:28Z</time>
      </trkpt>
      <trkpt lat="43.80856" lon="7.25046">
        <ele>756.00561523438</ele>
        <time>2011-10-08T15:02:29Z</time>
      </trkpt>
      <trkpt lat="43.80852" lon="7.25044">
        <ele>757.21984863281</ele>
        <time>2011-10-08T15:02:34Z</time>
      </trkpt>
      <trkpt lat="43.80851" lon="7.25044">
        <ele>757.68511962891</ele>
        <time>2011-10-08T15:02:35Z</time>
      </trkpt>
      <trkpt lat="43.80845" lon="7.25039">
        <ele>760.53015136719</ele>
        <time>2011-10-08T15:02:41Z</time>
      </trkpt>
      <trkpt lat="43.80844" lon="7.2504">
        <ele>760.11236572266</ele>
        <time>2011-10-08T15:02:42Z</time>
      </trkpt>
      <trkpt lat="43.8084" lon="7.25045">
        <ele>758.11791992188</ele>
        <time>2011-10-08T15:02:48Z</time>
      </trkpt>
      <trkpt lat="43.80838" lon="7.25047">
        <ele>757.302734375</ele>
        <time>2011-10-08T15:02:50Z</time>
      </trkpt>
      <trkpt lat="43.8083" lon="7.25058">
        <ele>752.28466796875</ele>
        <time>2011-10-08T15:02:57Z</time>
      </trkpt>
      <trkpt lat="43.80823" lon="7.25062">
        <ele>751.49688720703</ele>
        <time>2011-10-08T15:03:02Z</time>
      </trkpt>
      <trkpt lat="43.80821" lon="7.25063">
        <ele>751.42114257812</ele>
        <time>2011-10-08T15:03:04Z</time>
      </trkpt>
      <trkpt lat="43.80812" lon="7.25071">
        <ele>749.07299804688</ele>
        <time>2011-10-08T15:03:11Z</time>
      </trkpt>
      <trkpt lat="43.80803" lon="7.2508">
        <ele>746.43762207031</ele>
        <time>2011-10-08T15:03:16Z</time>
      </trkpt>
      <trkpt lat="43.8079" lon="7.25094">
        <ele>742.76995849609</ele>
        <time>2011-10-08T15:03:22Z</time>
      </trkpt>
      <trkpt lat="43.80777" lon="7.25103">
        <ele>740.95849609375</ele>
        <time>2011-10-08T15:03:28Z</time>
      </trkpt>
      <trkpt lat="43.80768" lon="7.25109">
        <ele>740.01495361328</ele>
        <time>2011-10-08T15:03:35Z</time>
      </trkpt>
      <trkpt lat="43.80767" lon="7.2511">
        <ele>739.61291503906</ele>
        <time>2011-10-08T15:03:38Z</time>
      </trkpt>
      <trkpt lat="43.80765" lon="7.2511">
        <ele>740.02471923828</ele>
        <time>2011-10-08T15:03:40Z</time>
      </trkpt>
      <trkpt lat="43.80764" lon="7.2511">
        <ele>740.34808349609</ele>
        <time>2011-10-08T15:03:41Z</time>
      </trkpt>
      <trkpt lat="43.80763" lon="7.25109">
        <ele>741.10101318359</ele>
        <time>2011-10-08T15:03:43Z</time>
      </trkpt>
      <trkpt lat="43.80762" lon="7.25109">
        <ele>741.0703125</ele>
        <time>2011-10-08T15:03:45Z</time>
      </trkpt>
      <trkpt lat="43.80762" lon="7.25109">
        <ele>740.96362304688</ele>
        <time>2011-10-08T15:03:47Z</time>
      </trkpt>
      <trkpt lat="43.80761" lon="7.25109">
        <ele>741.49047851562</ele>
        <time>2011-10-08T15:03:51Z</time>
      </trkpt>
      <trkpt lat="43.80758" lon="7.25115">
        <ele>739.45086669922</ele>
        <time>2011-10-08T15:04:02Z</time>
      </trkpt>
      <trkpt lat="43.80756" lon="7.25124">
        <ele>735.79614257812</ele>
        <time>2011-10-08T15:04:08Z</time>
      </trkpt>
      <trkpt lat="43.80756" lon="7.25125">
        <ele>735.36383056641</ele>
        <time>2011-10-08T15:04:09Z</time>
      </trkpt>
      <trkpt lat="43.80754" lon="7.2513">
        <ele>733.46740722656</ele>
        <time>2011-10-08T15:04:16Z</time>
      </trkpt>
      <trkpt lat="43.80754" lon="7.25131">
        <ele>732.97918701172</ele>
        <time>2011-10-08T15:04:18Z</time>
      </trkpt>
      <trkpt lat="43.80752" lon="7.25132">
        <ele>732.73553466797</ele>
        <time>2011-10-08T15:04:25Z</time>
      </trkpt>
      <trkpt lat="43.8075" lon="7.25132">
        <ele>733.40405273438</ele>
        <time>2011-10-08T15:04:33Z</time>
      </trkpt>
      <trkpt lat="43.8075" lon="7.25131">
        <ele>733.70050048828</ele>
        <time>2011-10-08T15:04:45Z</time>
      </trkpt>
      <trkpt lat="43.80757" lon="7.25107">
        <ele>743.25341796875</ele>
        <time>2011-10-08T15:05:50Z</time>
      </trkpt>
      <trkpt lat="43.80757" lon="7.25107">
        <ele>743.13500976562</ele>
        <time>2011-10-08T15:05:58Z</time>
      </trkpt>
      <trkpt lat="43.8076" lon="7.25109">
        <ele>741.76123046875</ele>
        <time>2011-10-08T15:06:01Z</time>
      </trkpt>
      <trkpt lat="43.80773" lon="7.25119">
        <ele>734.54760742188</ele>
        <time>2011-10-08T15:06:28Z</time>
      </trkpt>
      <trkpt lat="43.80747" lon="7.25104">
        <ele>745.73681640625</ele>
        <time>2011-10-08T15:07:18Z</time>
      </trkpt>
      <trkpt lat="43.80758" lon="7.25111">
        <ele>741.12316894531</ele>
        <time>2011-10-08T15:07:25Z</time>
      </trkpt>
      <trkpt lat="43.80766" lon="7.2512">
        <ele>735.63708496094</ele>
        <time>2011-10-08T15:07:42Z</time>
      </trkpt>
      <trkpt lat="43.80759" lon="7.25117">
        <ele>738.22814941406</ele>
        <time>2011-10-08T15:08:23Z</time>
      </trkpt>
      <trkpt lat="43.80764" lon="7.25118">
        <ele>736.82214355469</ele>
        <time>2011-10-08T15:09:06Z</time>
      </trkpt>
      <trkpt lat="43.80764" lon="7.25118">
        <ele>736.83508300781</ele>
        <time>2011-10-08T15:09:24Z</time>
      </trkpt>
      <trkpt lat="43.80764" lon="7.25118">
        <ele>736.74963378906</ele>
        <time>2011-10-08T15:09:39Z</time>
      </trkpt>
      <trkpt lat="43.80764" lon="7.25117">
        <ele>737.16839599609</ele>
        <time>2011-10-08T15:09:40Z</time>
      </trkpt>
      <trkpt lat="43.80763" lon="7.25114">
        <ele>738.50524902344</ele>
        <time>2011-10-08T15:09:45Z</time>
      </trkpt>
      <trkpt lat="43.80764" lon="7.25115">
        <ele>738.236328125</ele>
        <time>2011-10-08T15:09:48Z</time>
      </trkpt>
      <trkpt lat="43.80764" lon="7.25115">
        <ele>737.98004150391</ele>
        <time>2011-10-08T15:09:49Z</time>
      </trkpt>
      <trkpt lat="43.80764" lon="7.25116">
        <ele>737.7451171875</ele>
        <time>2011-10-08T15:09:50Z</time>
      </trkpt>
      <trkpt lat="43.80766" lon="7.25116">
        <ele>737.46789550781</ele>
        <time>2011-10-08T15:09:59Z</time>
      </trkpt>
      <trkpt lat="43.80766" lon="7.25116">
        <ele>737.22869873047</ele>
        <time>2011-10-08T15:10:02Z</time>
      </trkpt>
      <trkpt lat="43.80767" lon="7.25116">
        <ele>737.08764648438</ele>
        <time>2011-10-08T15:10:04Z</time>
      </trkpt>
      <trkpt lat="43.80769" lon="7.25121">
        <ele>734.51788330078</ele>
        <time>2011-10-08T15:10:28Z</time>
      </trkpt>
      <trkpt lat="43.80766" lon="7.25118">
        <ele>736.53546142578</ele>
        <time>2011-10-08T15:10:43Z</time>
      </trkpt>
      <trkpt lat="43.80751" lon="7.25116">
        <ele>740.3017578125</ele>
        <time>2011-10-08T15:10:47Z</time>
      </trkpt>
      <trkpt lat="43.80717" lon="7.25104">
        <ele>745.00030517578</ele>
        <time>2011-10-08T15:10:51Z</time>
      </trkpt>
      <trkpt lat="43.80695" lon="7.25094">
        <ele>748.47821044922</ele>
        <time>2011-10-08T15:10:55Z</time>
      </trkpt>
      <trkpt lat="43.8069" lon="7.25096">
        <ele>747.81518554688</ele>
        <time>2011-10-08T15:10:56Z</time>
      </trkpt>
      <trkpt lat="43.80663" lon="7.25094">
        <ele>747.50390625</ele>
        <time>2011-10-08T15:11:00Z</time>
      </trkpt>
      <trkpt lat="43.80651" lon="7.25094">
        <ele>746.34173583984</ele>
        <time>2011-10-08T15:11:02Z</time>
      </trkpt>
      <trkpt lat="43.80647" lon="7.25095">
        <ele>745.73529052734</ele>
        <time>2011-10-08T15:11:03Z</time>
      </trkpt>
      <trkpt lat="43.80629" lon="7.25104">
        <ele>740.30017089844</ele>
        <time>2011-10-08T15:11:08Z</time>
      </trkpt>
      <trkpt lat="43.80624" lon="7.25106">
        <ele>739.09613037109</ele>
        <time>2011-10-08T15:11:09Z</time>
      </trkpt>
      <trkpt lat="43.80586" lon="7.25111">
        <ele>733.32745361328</ele>
        <time>2011-10-08T15:11:15Z</time>
      </trkpt>
      <trkpt lat="43.80572" lon="7.25112">
        <ele>733.04565429688</ele>
        <time>2011-10-08T15:11:17Z</time>
      </trkpt>
      <trkpt lat="43.8054" lon="7.25115">
        <ele>732.64862060547</ele>
        <time>2011-10-08T15:11:22Z</time>
      </trkpt>
      <trkpt lat="43.80522" lon="7.2512">
        <ele>730.59442138672</ele>
        <time>2011-10-08T15:11:26Z</time>
      </trkpt>
      <trkpt lat="43.80511" lon="7.25124">
        <ele>728.69122314453</ele>
        <time>2011-10-08T15:11:29Z</time>
      </trkpt>
      <trkpt lat="43.80499" lon="7.25127">
        <ele>727.25030517578</ele>
        <time>2011-10-08T15:11:32Z</time>
      </trkpt>
      <trkpt lat="43.80486" lon="7.2513">
        <ele>725.67053222656</ele>
        <time>2011-10-08T15:11:35Z</time>
      </trkpt>
      <trkpt lat="43.8046" lon="7.25141">
        <ele>719.6982421875</ele>
        <time>2011-10-08T15:11:41Z</time>
      </trkpt>
      <trkpt lat="43.80444" lon="7.25147">
        <ele>715.69836425781</ele>
        <time>2011-10-08T15:11:45Z</time>
      </trkpt>
      <trkpt lat="43.80413" lon="7.25159">
        <ele>708.06774902344</ele>
        <time>2011-10-08T15:11:51Z</time>
      </trkpt>
      <trkpt lat="43.80383" lon="7.25166">
        <ele>702.80395507812</ele>
        <time>2011-10-08T15:11:56Z</time>
      </trkpt>
      <trkpt lat="43.80362" lon="7.25168">
        <ele>700.86102294922</ele>
        <time>2011-10-08T15:11:59Z</time>
      </trkpt>
      <trkpt lat="43.8033" lon="7.25167">
        <ele>699.55749511719</ele>
        <time>2011-10-08T15:12:03Z</time>
      </trkpt>
      <trkpt lat="43.80301" lon="7.25154">
        <ele>702.36639404297</ele>
        <time>2011-10-08T15:12:07Z</time>
      </trkpt>
      <trkpt lat="43.80289" lon="7.25147">
        <ele>703.58441162109</ele>
        <time>2011-10-08T15:12:09Z</time>
      </trkpt>
      <trkpt lat="43.80271" lon="7.25128">
        <ele>708.38830566406</ele>
        <time>2011-10-08T15:12:14Z</time>
      </trkpt>
      <trkpt lat="43.80264" lon="7.25114">
        <ele>711.93859863281</ele>
        <time>2011-10-08T15:12:18Z</time>
      </trkpt>
      <trkpt lat="43.80261" lon="7.25111">
        <ele>712.82946777344</ele>
        <time>2011-10-08T15:12:19Z</time>
      </trkpt>
      <trkpt lat="43.80235" lon="7.25081">
        <ele>716.94226074219</ele>
        <time>2011-10-08T15:12:26Z</time>
      </trkpt>
      <trkpt lat="43.80228" lon="7.2507">
        <ele>718.85607910156</ele>
        <time>2011-10-08T15:12:28Z</time>
      </trkpt>
      <trkpt lat="43.8021" lon="7.25034">
        <ele>726.11804199219</ele>
        <time>2011-10-08T15:12:34Z</time>
      </trkpt>
      <trkpt lat="43.80198" lon="7.25012">
        <ele>728.82763671875</ele>
        <time>2011-10-08T15:12:39Z</time>
      </trkpt>
      <trkpt lat="43.80178" lon="7.24986">
        <ele>728.19738769531</ele>
        <time>2011-10-08T15:12:44Z</time>
      </trkpt>
      <trkpt lat="43.80162" lon="7.24976">
        <ele>723.53649902344</ele>
        <time>2011-10-08T15:12:49Z</time>
      </trkpt>
      <trkpt lat="43.80141" lon="7.24972">
        <ele>714.69635009766</ele>
        <time>2011-10-08T15:12:53Z</time>
      </trkpt>
      <trkpt lat="43.8013" lon="7.24959">
        <ele>712.42651367188</ele>
        <time>2011-10-08T15:12:56Z</time>
      </trkpt>
      <trkpt lat="43.80128" lon="7.24954">
        <ele>712.10565185547</ele>
        <time>2011-10-08T15:12:57Z</time>
      </trkpt>
      <trkpt lat="43.80117" lon="7.24935">
        <ele>710.64343261719</ele>
        <time>2011-10-08T15:13:00Z</time>
      </trkpt>
      <trkpt lat="43.80099" lon="7.24909">
        <ele>705.38830566406</ele>
        <time>2011-10-08T15:13:05Z</time>
      </trkpt>
      <trkpt lat="43.80091" lon="7.24889">
        <ele>702.94342041016</ele>
        <time>2011-10-08T15:13:10Z</time>
      </trkpt>
      <trkpt lat="43.80083" lon="7.24868">
        <ele>700.41217041016</ele>
        <time>2011-10-08T15:13:13Z</time>
      </trkpt>
      <trkpt lat="43.8008" lon="7.24834">
        <ele>702.48065185547</ele>
        <time>2011-10-08T15:13:17Z</time>
      </trkpt>
      <trkpt lat="43.80081" lon="7.24827">
        <ele>703.63079833984</ele>
        <time>2011-10-08T15:13:18Z</time>
      </trkpt>
      <trkpt lat="43.80078" lon="7.2479">
        <ele>706.00677490234</ele>
        <time>2011-10-08T15:13:24Z</time>
      </trkpt>
      <trkpt lat="43.80075" lon="7.24781">
        <ele>706.03131103516</ele>
        <time>2011-10-08T15:13:26Z</time>
      </trkpt>
      <trkpt lat="43.80068" lon="7.24755">
        <ele>705.87255859375</ele>
        <time>2011-10-08T15:13:30Z</time>
      </trkpt>
      <trkpt lat="43.80065" lon="7.24741">
        <ele>706.20703125</ele>
        <time>2011-10-08T15:13:32Z</time>
      </trkpt>
      <trkpt lat="43.80058" lon="7.24716">
        <ele>706.85064697266</ele>
        <time>2011-10-08T15:13:35Z</time>
      </trkpt>
      <trkpt lat="43.80044" lon="7.24679">
        <ele>707.71820068359</ele>
        <time>2011-10-08T15:13:40Z</time>
      </trkpt>
      <trkpt lat="43.80036" lon="7.24667">
        <ele>707.43841552734</ele>
        <time>2011-10-08T15:13:43Z</time>
      </trkpt>
      <trkpt lat="43.80025" lon="7.24673">
        <ele>703.58990478516</ele>
        <time>2011-10-08T15:13:47Z</time>
      </trkpt>
      <trkpt lat="43.80017" lon="7.2467">
        <ele>702.03729248047</ele>
        <time>2011-10-08T15:13:51Z</time>
      </trkpt>
      <trkpt lat="43.80016" lon="7.24671">
        <ele>701.31555175781</ele>
        <time>2011-10-08T15:13:52Z</time>
      </trkpt>
      <trkpt lat="43.80014" lon="7.24673">
        <ele>700.41931152344</ele>
        <time>2011-10-08T15:13:54Z</time>
      </trkpt>
      <trkpt lat="43.80013" lon="7.24674">
        <ele>699.98834228516</ele>
        <time>2011-10-08T15:13:56Z</time>
      </trkpt>
      <trkpt lat="43.80011" lon="7.24677">
        <ele>699.09228515625</ele>
        <time>2011-10-08T15:13:58Z</time>
      </trkpt>
      <trkpt lat="43.80011" lon="7.24678">
        <ele>698.76940917969</ele>
        <time>2011-10-08T15:13:59Z</time>
      </trkpt>
      <trkpt lat="43.80007" lon="7.24684">
        <ele>696.48126220703</ele>
        <time>2011-10-08T15:14:05Z</time>
      </trkpt>
      <trkpt lat="43.80005" lon="7.24686">
        <ele>695.55169677734</ele>
        <time>2011-10-08T15:14:10Z</time>
      </trkpt>
      <trkpt lat="43.80001" lon="7.24688">
        <ele>693.92944335938</ele>
        <time>2011-10-08T15:14:16Z</time>
      </trkpt>
      <trkpt lat="43.79998" lon="7.24691">
        <ele>693.40405273438</ele>
        <time>2011-10-08T15:14:23Z</time>
      </trkpt>
      <trkpt lat="43.79994" lon="7.24691">
        <ele>693.87652587891</ele>
        <time>2011-10-08T15:14:28Z</time>
      </trkpt>
      <trkpt lat="43.79985" lon="7.24692">
        <ele>694.84075927734</ele>
        <time>2011-10-08T15:14:37Z</time>
      </trkpt>
      <trkpt lat="43.79981" lon="7.24695">
        <ele>694.7529296875</ele>
        <time>2011-10-08T15:14:42Z</time>
      </trkpt>
      <trkpt lat="43.79976" lon="7.24695">
        <ele>695.18017578125</ele>
        <time>2011-10-08T15:14:48Z</time>
      </trkpt>
      <trkpt lat="43.79967" lon="7.24697">
        <ele>695.89556884766</ele>
        <time>2011-10-08T15:14:55Z</time>
      </trkpt>
      <trkpt lat="43.79959" lon="7.24701">
        <ele>696.07141113281</ele>
        <time>2011-10-08T15:15:03Z</time>
      </trkpt>
      <trkpt lat="43.79953" lon="7.24702">
        <ele>696.46545410156</ele>
        <time>2011-10-08T15:15:10Z</time>
      </trkpt>
      <trkpt lat="43.79947" lon="7.24703">
        <ele>696.90802001953</ele>
        <time>2011-10-08T15:15:16Z</time>
      </trkpt>
      <trkpt lat="43.7994" lon="7.24706">
        <ele>697.09075927734</ele>
        <time>2011-10-08T15:15:23Z</time>
      </trkpt>
      <trkpt lat="43.79937" lon="7.24706">
        <ele>697.185546875</ele>
        <time>2011-10-08T15:15:26Z</time>
      </trkpt>
      <trkpt lat="43.79935" lon="7.24707">
        <ele>697.16247558594</ele>
        <time>2011-10-08T15:15:28Z</time>
      </trkpt>
      <trkpt lat="43.79929" lon="7.24708">
        <ele>697.57513427734</ele>
        <time>2011-10-08T15:15:34Z</time>
      </trkpt>
      <trkpt lat="43.79921" lon="7.24713">
        <ele>697.14959716797</ele>
        <time>2011-10-08T15:15:42Z</time>
      </trkpt>
      <trkpt lat="43.79917" lon="7.24713">
        <ele>697.75762939453</ele>
        <time>2011-10-08T15:15:45Z</time>
      </trkpt>
      <trkpt lat="43.79913" lon="7.24714">
        <ele>698.244140625</ele>
        <time>2011-10-08T15:15:49Z</time>
      </trkpt>
      <trkpt lat="43.79907" lon="7.24716">
        <ele>698.99633789062</ele>
        <time>2011-10-08T15:15:54Z</time>
      </trkpt>
      <trkpt lat="43.79897" lon="7.2472">
        <ele>700.11999511719</ele>
        <time>2011-10-08T15:16:03Z</time>
      </trkpt>
      <trkpt lat="43.79888" lon="7.24724">
        <ele>700.94006347656</ele>
        <time>2011-10-08T15:16:11Z</time>
      </trkpt>
      <trkpt lat="43.79883" lon="7.24724">
        <ele>702.18713378906</ele>
        <time>2011-10-08T15:16:17Z</time>
      </trkpt>
      <trkpt lat="43.79876" lon="7.24726">
        <ele>703.10656738281</ele>
        <time>2011-10-08T15:16:24Z</time>
      </trkpt>
      <trkpt lat="43.79871" lon="7.24725">
        <ele>704.63568115234</ele>
        <time>2011-10-08T15:16:29Z</time>
      </trkpt>
      <trkpt lat="43.7986" lon="7.24728">
        <ele>705.86877441406</ele>
        <time>2011-10-08T15:16:38Z</time>
      </trkpt>
      <trkpt lat="43.79857" lon="7.24732">
        <ele>705.25457763672</ele>
        <time>2011-10-08T15:16:43Z</time>
      </trkpt>
      <trkpt lat="43.79848" lon="7.24737">
        <ele>705.72485351562</ele>
        <time>2011-10-08T15:16:52Z</time>
      </trkpt>
      <trkpt lat="43.7984" lon="7.24744">
        <ele>704.84088134766</ele>
        <time>2011-10-08T15:17:00Z</time>
      </trkpt>
      <trkpt lat="43.79837" lon="7.24746">
        <ele>704.70385742188</ele>
        <time>2011-10-08T15:17:04Z</time>
      </trkpt>
      <trkpt lat="43.79829" lon="7.24755">
        <ele>704.13317871094</ele>
        <time>2011-10-08T15:17:13Z</time>
      </trkpt>
      <trkpt lat="43.79824" lon="7.2476">
        <ele>704.12072753906</ele>
        <time>2011-10-08T15:17:20Z</time>
      </trkpt>
      <trkpt lat="43.79822" lon="7.24758">
        <ele>705.65734863281</ele>
        <time>2011-10-08T15:17:26Z</time>
      </trkpt>
      <trkpt lat="43.79818" lon="7.24754">
        <ele>708.28839111328</ele>
        <time>2011-10-08T15:17:32Z</time>
      </trkpt>
      <trkpt lat="43.79817" lon="7.24753">
        <ele>709.1171875</ele>
        <time>2011-10-08T15:17:36Z</time>
      </trkpt>
      <trkpt lat="43.79816" lon="7.24751">
        <ele>710.43151855469</ele>
        <time>2011-10-08T15:17:45Z</time>
      </trkpt>
      <trkpt lat="43.79817" lon="7.24748">
        <ele>710.92913818359</ele>
        <time>2011-10-08T15:18:06Z</time>
      </trkpt>
      <trkpt lat="43.79816" lon="7.24757">
        <ele>708.36553955078</ele>
        <time>2011-10-08T15:18:51Z</time>
      </trkpt>
      <trkpt lat="43.79808" lon="7.24759">
        <ele>710.5986328125</ele>
        <time>2011-10-08T15:18:57Z</time>
      </trkpt>
      <trkpt lat="43.79807" lon="7.24757">
        <ele>711.50793457031</ele>
        <time>2011-10-08T15:19:05Z</time>
      </trkpt>
      <trkpt lat="43.7981" lon="7.24757">
        <ele>710.41381835938</ele>
        <time>2011-10-08T15:19:10Z</time>
      </trkpt>
      <trkpt lat="43.79813" lon="7.2476">
        <ele>708.22351074219</ele>
        <time>2011-10-08T15:19:15Z</time>
      </trkpt>
      <trkpt lat="43.79811" lon="7.24762">
        <ele>707.95440673828</ele>
        <time>2011-10-08T15:19:25Z</time>
      </trkpt>
      <trkpt lat="43.79811" lon="7.2476">
        <ele>708.91613769531</ele>
        <time>2011-10-08T15:19:30Z</time>
      </trkpt>
      <trkpt lat="43.79813" lon="7.24754">
        <ele>710.19018554688</ele>
        <time>2011-10-08T15:19:42Z</time>
      </trkpt>
      <trkpt lat="43.79816" lon="7.24747">
        <ele>711.55517578125</ele>
        <time>2011-10-08T15:19:56Z</time>
      </trkpt>
      <trkpt lat="43.79816" lon="7.24746">
        <ele>712.18194580078</ele>
        <time>2011-10-08T15:20:02Z</time>
      </trkpt>
      <trkpt lat="43.79815" lon="7.24746">
        <ele>712.51275634766</ele>
        <time>2011-10-08T15:20:12Z</time>
      </trkpt>
      <trkpt lat="43.79815" lon="7.24745">
        <ele>712.95739746094</ele>
        <time>2011-10-08T15:20:29Z</time>
      </trkpt>
      <trkpt lat="43.79814" lon="7.24746">
        <ele>712.90228271484</ele>
        <time>2011-10-08T15:20:44Z</time>
      </trkpt>
      <trkpt lat="43.79813" lon="7.24746">
        <ele>713.19750976562</ele>
        <time>2011-10-08T15:21:02Z</time>
      </trkpt>
      <trkpt lat="43.79813" lon="7.24746">
        <ele>713.34509277344</ele>
        <time>2011-10-08T15:21:10Z</time>
      </trkpt>
      <trkpt lat="43.79812" lon="7.24746">
        <ele>713.85955810547</ele>
        <time>2011-10-08T15:21:27Z</time>
      </trkpt>
      <trkpt lat="43.79811" lon="7.24746">
        <ele>713.88177490234</ele>
        <time>2011-10-08T15:21:30Z</time>
      </trkpt>
      <trkpt lat="43.79811" lon="7.24747">
        <ele>713.59906005859</ele>
        <time>2011-10-08T15:21:38Z</time>
      </trkpt>
      <trkpt lat="43.7981" lon="7.24746">
        <ele>714.49377441406</ele>
        <time>2011-10-08T15:21:45Z</time>
      </trkpt>
      <trkpt lat="43.79797" lon="7.24755">
        <ele>715.78271484375</ele>
        <time>2011-10-08T15:21:50Z</time>
      </trkpt>
      <trkpt lat="43.7979" lon="7.2476">
        <ele>716.18585205078</ele>
        <time>2011-10-08T15:21:52Z</time>
      </trkpt>
      <trkpt lat="43.79787" lon="7.24763">
        <ele>716.47723388672</ele>
        <time>2011-10-08T15:21:53Z</time>
      </trkpt>
      <trkpt lat="43.79784" lon="7.24765">
        <ele>716.62213134766</ele>
        <time>2011-10-08T15:21:54Z</time>
      </trkpt>
      <trkpt lat="43.79762" lon="7.24774">
        <ele>719.9892578125</ele>
        <time>2011-10-08T15:22:00Z</time>
      </trkpt>
      <trkpt lat="43.7974" lon="7.24785">
        <ele>721.4736328125</ele>
        <time>2011-10-08T15:22:04Z</time>
      </trkpt>
      <trkpt lat="43.79727" lon="7.24794">
        <ele>720.23919677734</ele>
        <time>2011-10-08T15:22:06Z</time>
      </trkpt>
      <trkpt lat="43.79699" lon="7.24823">
        <ele>712.36761474609</ele>
        <time>2011-10-08T15:22:11Z</time>
      </trkpt>
      <trkpt lat="43.79674" lon="7.2485">
        <ele>705.49420166016</ele>
        <time>2011-10-08T15:22:16Z</time>
      </trkpt>
      <trkpt lat="43.7965" lon="7.24872">
        <ele>700.95129394531</ele>
        <time>2011-10-08T15:22:20Z</time>
      </trkpt>
      <trkpt lat="43.79621" lon="7.24883">
        <ele>700.79193115234</ele>
        <time>2011-10-08T15:22:24Z</time>
      </trkpt>
      <trkpt lat="43.79581" lon="7.24887">
        <ele>704.93487548828</ele>
        <time>2011-10-08T15:22:28Z</time>
      </trkpt>
      <trkpt lat="43.79509" lon="7.24882">
        <ele>702.39111328125</ele>
        <time>2011-10-08T15:22:35Z</time>
      </trkpt>
      <trkpt lat="43.79462" lon="7.24865">
        <ele>698.43597412109</ele>
        <time>2011-10-08T15:22:40Z</time>
      </trkpt>
      <trkpt lat="43.7941" lon="7.24839">
        <ele>692.54229736328</ele>
        <time>2011-10-08T15:22:46Z</time>
      </trkpt>
      <trkpt lat="43.79381" lon="7.24829">
        <ele>685.57171630859</ele>
        <time>2011-10-08T15:22:50Z</time>
      </trkpt>
      <trkpt lat="43.79372" lon="7.24828">
        <ele>682.96234130859</ele>
        <time>2011-10-08T15:22:52Z</time>
      </trkpt>
      <trkpt lat="43.79366" lon="7.24824">
        <ele>681.19342041016</ele>
        <time>2011-10-08T15:22:57Z</time>
      </trkpt>
      <trkpt lat="43.79367" lon="7.24823">
        <ele>681.58557128906</ele>
        <time>2011-10-08T15:23:04Z</time>
      </trkpt>
      <trkpt lat="43.79363" lon="7.24821">
        <ele>680.53631591797</ele>
        <time>2011-10-08T15:23:10Z</time>
      </trkpt>
      <trkpt lat="43.79362" lon="7.2482">
        <ele>680.3173828125</ele>
        <time>2011-10-08T15:23:15Z</time>
      </trkpt>
      <trkpt lat="43.79363" lon="7.24823">
        <ele>680.4384765625</ele>
        <time>2011-10-08T15:23:28Z</time>
      </trkpt>
      <trkpt lat="43.79365" lon="7.24829">
        <ele>680.60858154297</ele>
        <time>2011-10-08T15:23:44Z</time>
      </trkpt>
      <trkpt lat="43.7937" lon="7.24834">
        <ele>681.85107421875</ele>
        <time>2011-10-08T15:23:50Z</time>
      </trkpt>
      <trkpt lat="43.7937" lon="7.24834">
        <ele>681.89129638672</ele>
        <time>2011-10-08T15:23:54Z</time>
      </trkpt>
      <trkpt lat="43.79368" lon="7.24835">
        <ele>680.88336181641</ele>
        <time>2011-10-08T15:23:59Z</time>
      </trkpt>
      <trkpt lat="43.79363" lon="7.24836">
        <ele>679.05560302734</ele>
        <time>2011-10-08T15:24:06Z</time>
      </trkpt>
      <trkpt lat="43.79361" lon="7.24837">
        <ele>678.21716308594</ele>
        <time>2011-10-08T15:24:08Z</time>
      </trkpt>
      <trkpt lat="43.79345" lon="7.24838">
        <ele>673.29534912109</ele>
        <time>2011-10-08T15:24:12Z</time>
      </trkpt>
      <trkpt lat="43.79323" lon="7.24833">
        <ele>669.86572265625</ele>
        <time>2011-10-08T15:24:16Z</time>
      </trkpt>
      <trkpt lat="43.79307" lon="7.24821">
        <ele>668.15460205078</ele>
        <time>2011-10-08T15:24:19Z</time>
      </trkpt>
      <trkpt lat="43.79289" lon="7.24807">
        <ele>665.45837402344</ele>
        <time>2011-10-08T15:24:23Z</time>
      </trkpt>
      <trkpt lat="43.79285" lon="7.24805">
        <ele>664.82489013672</ele>
        <time>2011-10-08T15:24:25Z</time>
      </trkpt>
      <trkpt lat="43.79279" lon="7.24803">
        <ele>663.77111816406</ele>
        <time>2011-10-08T15:24:33Z</time>
      </trkpt>
      <trkpt lat="43.79278" lon="7.248">
        <ele>663.60961914062</ele>
        <time>2011-10-08T15:24:34Z</time>
      </trkpt>
      <trkpt lat="43.79275" lon="7.24784">
        <ele>662.36657714844</ele>
        <time>2011-10-08T15:24:39Z</time>
      </trkpt>
      <trkpt lat="43.79271" lon="7.24787">
        <ele>661.74249267578</ele>
        <time>2011-10-08T15:24:51Z</time>
      </trkpt>
      <trkpt lat="43.79271" lon="7.2479">
        <ele>661.94281005859</ele>
        <time>2011-10-08T15:24:56Z</time>
      </trkpt>
      <trkpt lat="43.79271" lon="7.24792">
        <ele>662.08386230469</ele>
        <time>2011-10-08T15:24:57Z</time>
      </trkpt>
      <trkpt lat="43.7927" lon="7.24812">
        <ele>662.99749755859</ele>
        <time>2011-10-08T15:25:02Z</time>
      </trkpt>
      <trkpt lat="43.79264" lon="7.24818">
        <ele>662.57305908203</ele>
        <time>2011-10-08T15:25:04Z</time>
      </trkpt>
      <trkpt lat="43.7924" lon="7.24831">
        <ele>661.39233398438</ele>
        <time>2011-10-08T15:25:10Z</time>
      </trkpt>
      <trkpt lat="43.79229" lon="7.24846">
        <ele>659.10906982422</ele>
        <time>2011-10-08T15:25:13Z</time>
      </trkpt>
      <trkpt lat="43.79216" lon="7.2486">
        <ele>656.90051269531</ele>
        <time>2011-10-08T15:25:17Z</time>
      </trkpt>
      <trkpt lat="43.79205" lon="7.24871">
        <ele>655.58624267578</ele>
        <time>2011-10-08T15:25:22Z</time>
      </trkpt>
      <trkpt lat="43.79203" lon="7.24874">
        <ele>655.37902832031</ele>
        <time>2011-10-08T15:25:25Z</time>
      </trkpt>
      <trkpt lat="43.79202" lon="7.24876">
        <ele>655.15600585938</ele>
        <time>2011-10-08T15:25:32Z</time>
      </trkpt>
      <trkpt lat="43.79201" lon="7.24878">
        <ele>654.96820068359</ele>
        <time>2011-10-08T15:25:33Z</time>
      </trkpt>
      <trkpt lat="43.79203" lon="7.24891">
        <ele>653.30078125</ele>
        <time>2011-10-08T15:25:38Z</time>
      </trkpt>
      <trkpt lat="43.79203" lon="7.24896">
        <ele>652.61389160156</ele>
        <time>2011-10-08T15:25:41Z</time>
      </trkpt>
      <trkpt lat="43.792" lon="7.24907">
        <ele>651.74029541016</ele>
        <time>2011-10-08T15:25:46Z</time>
      </trkpt>
      <trkpt lat="43.79195" lon="7.24917">
        <ele>651.00579833984</ele>
        <time>2011-10-08T15:25:50Z</time>
      </trkpt>
      <trkpt lat="43.79195" lon="7.24918">
        <ele>650.88000488281</ele>
        <time>2011-10-08T15:25:56Z</time>
      </trkpt>
      <trkpt lat="43.79192" lon="7.24918">
        <ele>650.93829345703</ele>
        <time>2011-10-08T15:26:10Z</time>
      </trkpt>
      <trkpt lat="43.79194" lon="7.24915">
        <ele>651.59136962891</ele>
        <time>2011-10-08T15:26:19Z</time>
      </trkpt>
      <trkpt lat="43.79196" lon="7.24912">
        <ele>651.63140869141</ele>
        <time>2011-10-08T15:26:27Z</time>
      </trkpt>
      <trkpt lat="43.79198" lon="7.24906">
        <ele>652.01910400391</ele>
        <time>2011-10-08T15:26:34Z</time>
      </trkpt>
      <trkpt lat="43.79201" lon="7.24903">
        <ele>652.12866210938</ele>
        <time>2011-10-08T15:26:40Z</time>
      </trkpt>
      <trkpt lat="43.79202" lon="7.24897">
        <ele>652.71264648438</ele>
        <time>2011-10-08T15:26:46Z</time>
      </trkpt>
      <trkpt lat="43.79202" lon="7.24895">
        <ele>653.00787353516</ele>
        <time>2011-10-08T15:26:48Z</time>
      </trkpt>
      <trkpt lat="43.79201" lon="7.24894">
        <ele>653.13592529297</ele>
        <time>2011-10-08T15:26:49Z</time>
      </trkpt>
      <trkpt lat="43.79199" lon="7.24886">
        <ele>654.16729736328</ele>
        <time>2011-10-08T15:26:56Z</time>
      </trkpt>
      <trkpt lat="43.792" lon="7.24885">
        <ele>654.28765869141</ele>
        <time>2011-10-08T15:26:58Z</time>
      </trkpt>
      <trkpt lat="43.79201" lon="7.24883">
        <ele>654.41363525391</ele>
        <time>2011-10-08T15:27:00Z</time>
      </trkpt>
      <trkpt lat="43.79202" lon="7.24882">
        <ele>654.48889160156</ele>
        <time>2011-10-08T15:27:01Z</time>
      </trkpt>
      <trkpt lat="43.79203" lon="7.2488">
        <ele>654.67468261719</ele>
        <time>2011-10-08T15:27:02Z</time>
      </trkpt>
      <trkpt lat="43.79218" lon="7.24865">
        <ele>656.00177001953</ele>
        <time>2011-10-08T15:27:07Z</time>
      </trkpt>
      <trkpt lat="43.79233" lon="7.24847">
        <ele>658.98345947266</ele>
        <time>2011-10-08T15:27:12Z</time>
      </trkpt>
      <trkpt lat="43.79243" lon="7.24837">
        <ele>660.92095947266</ele>
        <time>2011-10-08T15:27:16Z</time>
      </trkpt>
      <trkpt lat="43.79266" lon="7.24828">
        <ele>663.40911865234</ele>
        <time>2011-10-08T15:27:23Z</time>
      </trkpt>
      <trkpt lat="43.79273" lon="7.24819">
        <ele>663.77111816406</ele>
        <time>2011-10-08T15:27:28Z</time>
      </trkpt>
      <trkpt lat="43.79282" lon="7.24808">
        <ele>664.55108642578</ele>
        <time>2011-10-08T15:27:34Z</time>
      </trkpt>
      <trkpt lat="43.79285" lon="7.24805">
        <ele>664.84405517578</ele>
        <time>2011-10-08T15:27:36Z</time>
      </trkpt>
      <trkpt lat="43.79286" lon="7.24801">
        <ele>664.82739257812</ele>
        <time>2011-10-08T15:27:43Z</time>
      </trkpt>
      <trkpt lat="43.7929" lon="7.24793">
        <ele>665.25549316406</ele>
        <time>2011-10-08T15:27:57Z</time>
      </trkpt>
      <trkpt lat="43.79293" lon="7.24789">
        <ele>665.74407958984</ele>
        <time>2011-10-08T15:28:09Z</time>
      </trkpt>
      <trkpt lat="43.79292" lon="7.24787">
        <ele>665.43713378906</ele>
        <time>2011-10-08T15:28:11Z</time>
      </trkpt>
      <trkpt lat="43.79285" lon="7.24783">
        <ele>664.04321289062</ele>
        <time>2011-10-08T15:28:14Z</time>
      </trkpt>
      <trkpt lat="43.79275" lon="7.24782">
        <ele>662.16693115234</ele>
        <time>2011-10-08T15:28:16Z</time>
      </trkpt>
      <trkpt lat="43.79269" lon="7.2478">
        <ele>661.03289794922</ele>
        <time>2011-10-08T15:28:17Z</time>
      </trkpt>
      <trkpt lat="43.79243" lon="7.24776">
        <ele>655.9609375</ele>
        <time>2011-10-08T15:28:21Z</time>
      </trkpt>
      <trkpt lat="43.79236" lon="7.24774">
        <ele>654.68914794922</ele>
        <time>2011-10-08T15:28:22Z</time>
      </trkpt>
      <trkpt lat="43.79229" lon="7.24771">
        <ele>652.87731933594</ele>
        <time>2011-10-08T15:28:24Z</time>
      </trkpt>
      <trkpt lat="43.79228" lon="7.24769">
        <ele>652.57867431641</ele>
        <time>2011-10-08T15:28:30Z</time>
      </trkpt>
      <trkpt lat="43.79226" lon="7.24772">
        <ele>652.6826171875</ele>
        <time>2011-10-08T15:28:39Z</time>
      </trkpt>
      <trkpt lat="43.79226" lon="7.24774">
        <ele>652.84136962891</ele>
        <time>2011-10-08T15:28:52Z</time>
      </trkpt>
      <trkpt lat="43.79225" lon="7.24773">
        <ele>652.55450439453</ele>
        <time>2011-10-08T15:28:55Z</time>
      </trkpt>
      <trkpt lat="43.79217" lon="7.24766">
        <ele>650.02502441406</ele>
        <time>2011-10-08T15:28:59Z</time>
      </trkpt>
      <trkpt lat="43.79206" lon="7.24757">
        <ele>646.39154052734</ele>
        <time>2011-10-08T15:29:04Z</time>
      </trkpt>
      <trkpt lat="43.79203" lon="7.24754">
        <ele>645.02374267578</ele>
        <time>2011-10-08T15:29:09Z</time>
      </trkpt>
      <trkpt lat="43.79192" lon="7.24744">
        <ele>639.68218994141</ele>
        <time>2011-10-08T15:29:14Z</time>
      </trkpt>
      <trkpt lat="43.79174" lon="7.24741">
        <ele>634.42547607422</ele>
        <time>2011-10-08T15:29:19Z</time>
      </trkpt>
      <trkpt lat="43.79152" lon="7.2474">
        <ele>630.12536621094</ele>
        <time>2011-10-08T15:29:24Z</time>
      </trkpt>
      <trkpt lat="43.79136" lon="7.24745">
        <ele>629.45562744141</ele>
        <time>2011-10-08T15:29:29Z</time>
      </trkpt>
      <trkpt lat="43.79132" lon="7.24746">
        <ele>629.17681884766</ele>
        <time>2011-10-08T15:29:31Z</time>
      </trkpt>
      <trkpt lat="43.79119" lon="7.2475">
        <ele>628.69427490234</ele>
        <time>2011-10-08T15:29:36Z</time>
      </trkpt>
      <trkpt lat="43.79103" lon="7.24756">
        <ele>627.83709716797</ele>
        <time>2011-10-08T15:29:40Z</time>
      </trkpt>
      <trkpt lat="43.79087" lon="7.24764">
        <ele>627.72955322266</ele>
        <time>2011-10-08T15:29:44Z</time>
      </trkpt>
      <trkpt lat="43.79083" lon="7.24764">
        <ele>627.32214355469</ele>
        <time>2011-10-08T15:29:45Z</time>
      </trkpt>
      <trkpt lat="43.79068" lon="7.24765">
        <ele>625.43731689453</ele>
        <time>2011-10-08T15:29:49Z</time>
      </trkpt>
      <trkpt lat="43.79055" lon="7.24766">
        <ele>624.01763916016</ele>
        <time>2011-10-08T15:29:53Z</time>
      </trkpt>
      <trkpt lat="43.7905" lon="7.24767">
        <ele>623.62396240234</ele>
        <time>2011-10-08T15:29:54Z</time>
      </trkpt>
      <trkpt lat="43.79036" lon="7.24769">
        <ele>622.28210449219</ele>
        <time>2011-10-08T15:29:57Z</time>
      </trkpt>
      <trkpt lat="43.79016" lon="7.24774">
        <ele>620.89483642578</ele>
        <time>2011-10-08T15:30:01Z</time>
      </trkpt>
      <trkpt lat="43.79003" lon="7.24778">
        <ele>619.99951171875</ele>
        <time>2011-10-08T15:30:04Z</time>
      </trkpt>
      <trkpt lat="43.78994" lon="7.2478">
        <ele>618.91925048828</ele>
        <time>2011-10-08T15:30:06Z</time>
      </trkpt>
      <trkpt lat="43.78984" lon="7.2478">
        <ele>617.02319335938</ele>
        <time>2011-10-08T15:30:11Z</time>
      </trkpt>
      <trkpt lat="43.7898" lon="7.24778">
        <ele>615.90051269531</ele>
        <time>2011-10-08T15:30:13Z</time>
      </trkpt>
      <trkpt lat="43.7896" lon="7.24788">
        <ele>614.23913574219</ele>
        <time>2011-10-08T15:30:18Z</time>
      </trkpt>
      <trkpt lat="43.78954" lon="7.24792">
        <ele>613.73828125</ele>
        <time>2011-10-08T15:30:20Z</time>
      </trkpt>
      <trkpt lat="43.78953" lon="7.24793">
        <ele>613.72113037109</ele>
        <time>2011-10-08T15:30:25Z</time>
      </trkpt>
      <trkpt lat="43.78953" lon="7.24794">
        <ele>613.87561035156</ele>
        <time>2011-10-08T15:30:31Z</time>
      </trkpt>
      <trkpt lat="43.78958" lon="7.24793">
        <ele>614.65301513672</ele>
        <time>2011-10-08T15:30:41Z</time>
      </trkpt>
      <trkpt lat="43.78961" lon="7.24795">
        <ele>615.82006835938</ele>
        <time>2011-10-08T15:30:52Z</time>
      </trkpt>
      <trkpt lat="43.78962" lon="7.24796">
        <ele>616.18566894531</ele>
        <time>2011-10-08T15:30:55Z</time>
      </trkpt>
      <trkpt lat="43.78962" lon="7.24796">
        <ele>616.20544433594</ele>
        <time>2011-10-08T15:30:56Z</time>
      </trkpt>
      <trkpt lat="43.78963" lon="7.24797">
        <ele>616.48303222656</ele>
        <time>2011-10-08T15:31:01Z</time>
      </trkpt>
      <trkpt lat="43.78963" lon="7.24797">
        <ele>616.53259277344</ele>
        <time>2011-10-08T15:31:02Z</time>
      </trkpt>
      <trkpt lat="43.78963" lon="7.24797">
        <ele>616.64196777344</ele>
        <time>2011-10-08T15:31:03Z</time>
      </trkpt>
      <trkpt lat="43.78964" lon="7.24797">
        <ele>616.91070556641</ele>
        <time>2011-10-08T15:31:06Z</time>
      </trkpt>
      <trkpt lat="43.78964" lon="7.24798">
        <ele>616.95062255859</ele>
        <time>2011-10-08T15:31:07Z</time>
      </trkpt>
      <trkpt lat="43.78963" lon="7.24797">
        <ele>616.53259277344</ele>
        <time>2011-10-08T15:31:19Z</time>
      </trkpt>
      <trkpt lat="43.78957" lon="7.24792">
        <ele>614.39068603516</ele>
        <time>2011-10-08T15:31:24Z</time>
      </trkpt>
      <trkpt lat="43.78954" lon="7.24792">
        <ele>613.66040039062</ele>
        <time>2011-10-08T15:31:30Z</time>
      </trkpt>
      <trkpt lat="43.78952" lon="7.24793">
        <ele>613.32525634766</ele>
        <time>2011-10-08T15:31:35Z</time>
      </trkpt>
      <trkpt lat="43.78949" lon="7.2479">
        <ele>612.15924072266</ele>
        <time>2011-10-08T15:31:40Z</time>
      </trkpt>
      <trkpt lat="43.78945" lon="7.24786">
        <ele>610.57092285156</ele>
        <time>2011-10-08T15:31:46Z</time>
      </trkpt>
      <trkpt lat="43.78941" lon="7.2478">
        <ele>608.73828125</ele>
        <time>2011-10-08T15:31:53Z</time>
      </trkpt>
      <trkpt lat="43.78939" lon="7.24777">
        <ele>607.93438720703</ele>
        <time>2011-10-08T15:31:56Z</time>
      </trkpt>
      <trkpt lat="43.78938" lon="7.24775">
        <ele>607.26123046875</ele>
        <time>2011-10-08T15:31:57Z</time>
      </trkpt>
      <trkpt lat="43.78929" lon="7.24762">
        <ele>603.09777832031</ele>
        <time>2011-10-08T15:32:01Z</time>
      </trkpt>
      <trkpt lat="43.78921" lon="7.24746">
        <ele>598.73358154297</ele>
        <time>2011-10-08T15:32:06Z</time>
      </trkpt>
      <trkpt lat="43.78919" lon="7.24742">
        <ele>597.04449462891</ele>
        <time>2011-10-08T15:32:10Z</time>
      </trkpt>
      <trkpt lat="43.78917" lon="7.24738">
        <ele>595.86285400391</ele>
        <time>2011-10-08T15:32:12Z</time>
      </trkpt>
      <trkpt lat="43.78915" lon="7.24733">
        <ele>594.01452636719</ele>
        <time>2011-10-08T15:32:14Z</time>
      </trkpt>
      <trkpt lat="43.78913" lon="7.2473">
        <ele>592.82305908203</ele>
        <time>2011-10-08T15:32:15Z</time>
      </trkpt>
      <trkpt lat="43.78909" lon="7.24707">
        <ele>586.24432373047</ele>
        <time>2011-10-08T15:32:19Z</time>
      </trkpt>
      <trkpt lat="43.78902" lon="7.24685">
        <ele>579.55816650391</ele>
        <time>2011-10-08T15:32:22Z</time>
      </trkpt>
      <trkpt lat="43.78898" lon="7.24679">
        <ele>577.67761230469</ele>
        <time>2011-10-08T15:32:23Z</time>
      </trkpt>
      <trkpt lat="43.78887" lon="7.24667">
        <ele>573.69024658203</ele>
        <time>2011-10-08T15:32:27Z</time>
      </trkpt>
      <trkpt lat="43.78881" lon="7.24661">
        <ele>571.56072998047</ele>
        <time>2011-10-08T15:32:30Z</time>
      </trkpt>
      <trkpt lat="43.78883" lon="7.24659">
        <ele>571.16351318359</ele>
        <time>2011-10-08T15:32:32Z</time>
      </trkpt>
      <trkpt lat="43.78886" lon="7.24657">
        <ele>570.84063720703</ele>
        <time>2011-10-08T15:32:34Z</time>
      </trkpt>
      <trkpt lat="43.78878" lon="7.2466">
        <ele>571.09588623047</ele>
        <time>2011-10-08T15:32:39Z</time>
      </trkpt>
      <trkpt lat="43.78878" lon="7.24661">
        <ele>571.21673583984</ele>
        <time>2011-10-08T15:32:45Z</time>
      </trkpt>
      <trkpt lat="43.78874" lon="7.24658">
        <ele>570.25640869141</ele>
        <time>2011-10-08T15:32:57Z</time>
      </trkpt>
      <trkpt lat="43.78873" lon="7.24657">
        <ele>569.974609375</ele>
        <time>2011-10-08T15:33:02Z</time>
      </trkpt>
      <trkpt lat="43.78872" lon="7.24655">
        <ele>569.34210205078</ele>
        <time>2011-10-08T15:33:10Z</time>
      </trkpt>
      <trkpt lat="43.78871" lon="7.24655">
        <ele>569.22918701172</ele>
        <time>2011-10-08T15:33:11Z</time>
      </trkpt>
      <trkpt lat="43.7887" lon="7.24654">
        <ele>568.95629882812</ele>
        <time>2011-10-08T15:33:14Z</time>
      </trkpt>
      <trkpt lat="43.7887" lon="7.24654">
        <ele>568.873046875</ele>
        <time>2011-10-08T15:33:15Z</time>
      </trkpt>
      <trkpt lat="43.78865" lon="7.24648">
        <ele>567.11840820312</ele>
        <time>2011-10-08T15:33:36Z</time>
      </trkpt>
      <trkpt lat="43.7885" lon="7.24635">
        <ele>562.81494140625</ele>
        <time>2011-10-08T15:33:41Z</time>
      </trkpt>
      <trkpt lat="43.78836" lon="7.24621">
        <ele>558.62713623047</ele>
        <time>2011-10-08T15:33:43Z</time>
      </trkpt>
      <trkpt lat="43.78817" lon="7.24592">
        <ele>549.84490966797</ele>
        <time>2011-10-08T15:33:46Z</time>
      </trkpt>
      <trkpt lat="43.78819" lon="7.24584">
        <ele>548.13116455078</ele>
        <time>2011-10-08T15:33:49Z</time>
      </trkpt>
      <trkpt lat="43.7883" lon="7.24589">
        <ele>550.74176025391</ele>
        <time>2011-10-08T15:33:52Z</time>
      </trkpt>
      <trkpt lat="43.78842" lon="7.24581">
        <ele>549.60485839844</ele>
        <time>2011-10-08T15:33:55Z</time>
      </trkpt>
      <trkpt lat="43.78844" lon="7.24565">
        <ele>545.03515625</ele>
        <time>2011-10-08T15:33:57Z</time>
      </trkpt>
      <trkpt lat="43.78834" lon="7.24542">
        <ele>538.04547119141</ele>
        <time>2011-10-08T15:34:00Z</time>
      </trkpt>
      <trkpt lat="43.78808" lon="7.24516">
        <ele>528.14233398438</ele>
        <time>2011-10-08T15:34:03Z</time>
      </trkpt>
      <trkpt lat="43.78798" lon="7.24509">
        <ele>525.36944580078</ele>
        <time>2011-10-08T15:34:04Z</time>
      </trkpt>
      <trkpt lat="43.78772" lon="7.24478">
        <ele>515.44891357422</ele>
        <time>2011-10-08T15:34:08Z</time>
      </trkpt>
      <trkpt lat="43.78766" lon="7.24435">
        <ele>504.20166015625</ele>
        <time>2011-10-08T15:34:12Z</time>
      </trkpt>
      <trkpt lat="43.78743" lon="7.2441">
        <ele>496.75396728516</ele>
        <time>2011-10-08T15:34:15Z</time>
      </trkpt>
      <trkpt lat="43.78735" lon="7.24405">
        <ele>494.93435668945</ele>
        <time>2011-10-08T15:34:16Z</time>
      </trkpt>
      <trkpt lat="43.78722" lon="7.24397">
        <ele>491.89535522461</ele>
        <time>2011-10-08T15:34:18Z</time>
      </trkpt>
      <trkpt lat="43.78697" lon="7.24394">
        <ele>488.71334838867</ele>
        <time>2011-10-08T15:34:22Z</time>
      </trkpt>
      <trkpt lat="43.7869" lon="7.24394">
        <ele>488.11538696289</ele>
        <time>2011-10-08T15:34:23Z</time>
      </trkpt>
      <trkpt lat="43.78665" lon="7.24401">
        <ele>487.37612915039</ele>
        <time>2011-10-08T15:34:28Z</time>
      </trkpt>
      <trkpt lat="43.78657" lon="7.244">
        <ele>487.0768737793</ele>
        <time>2011-10-08T15:34:31Z</time>
      </trkpt>
      <trkpt lat="43.78639" lon="7.24412">
        <ele>489.5615234375</ele>
        <time>2011-10-08T15:34:37Z</time>
      </trkpt>
      <trkpt lat="43.78624" lon="7.24421">
        <ele>491.34548950195</ele>
        <time>2011-10-08T15:34:40Z</time>
      </trkpt>
      <trkpt lat="43.7859" lon="7.24426">
        <ele>491.92056274414</ele>
        <time>2011-10-08T15:34:45Z</time>
      </trkpt>
      <trkpt lat="43.78584" lon="7.24423">
        <ele>491.23321533203</ele>
        <time>2011-10-08T15:34:46Z</time>
      </trkpt>
      <trkpt lat="43.78561" lon="7.24413">
        <ele>488.86138916016</ele>
        <time>2011-10-08T15:34:49Z</time>
      </trkpt>
      <trkpt lat="43.78508" lon="7.24381">
        <ele>482.93539428711</ele>
        <time>2011-10-08T15:34:55Z</time>
      </trkpt>
      <trkpt lat="43.78471" lon="7.24365">
        <ele>480.93167114258</ele>
        <time>2011-10-08T15:34:59Z</time>
      </trkpt>
      <trkpt lat="43.78461" lon="7.24363">
        <ele>480.84689331055</ele>
        <time>2011-10-08T15:35:00Z</time>
      </trkpt>
      <trkpt lat="43.78439" lon="7.24358">
        <ele>480.78552246094</ele>
        <time>2011-10-08T15:35:03Z</time>
      </trkpt>
      <trkpt lat="43.78429" lon="7.24364">
        <ele>481.32275390625</ele>
        <time>2011-10-08T15:35:07Z</time>
      </trkpt>
      <trkpt lat="43.78434" lon="7.24372">
        <ele>481.77560424805</ele>
        <time>2011-10-08T15:35:10Z</time>
      </trkpt>
      <trkpt lat="43.78438" lon="7.24373">
        <ele>481.89028930664</ele>
        <time>2011-10-08T15:35:11Z</time>
      </trkpt>
      <trkpt lat="43.78457" lon="7.24391">
        <ele>483.478515625</ele>
        <time>2011-10-08T15:35:17Z</time>
      </trkpt>
      <trkpt lat="43.78465" lon="7.24408">
        <ele>485.39276123047</ele>
        <time>2011-10-08T15:35:21Z</time>
      </trkpt>
      <trkpt lat="43.78471" lon="7.24423">
        <ele>487.14959716797</ele>
        <time>2011-10-08T15:35:25Z</time>
      </trkpt>
      <trkpt lat="43.78465" lon="7.24424">
        <ele>486.921875</ele>
        <time>2011-10-08T15:35:28Z</time>
      </trkpt>
      <trkpt lat="43.78458" lon="7.24416">
        <ele>485.9140625</ele>
        <time>2011-10-08T15:35:32Z</time>
      </trkpt>
    </trkseg>
  </trk>
</gpx>